<?xml version="1.0" encoding="UTF-8" standalone="no" ?>
<gpx xmlns="http://www.topografix.com/GPX/1/1" xmlns:xsi="http://www.w3.org/2001/XMLSchema-instance" xsi:schemaLocation="http://www.topografix.com/GPX/1/1 http://www.topografix.com/GPX/1/1/gpx.xsd" version="1.1" creator="VisuGPX - https://www.visugpx.com">
  <metadata>
    <name>Circuit tour de Salvagny </name>
    <desc><![CDATA[Rando VTT depuis La tour de Salvagny 2012 - 31 km et 1160m de d ]]></desc>
  </metadata>
  <trk>
    <name><![CDATA[Tour de Salvagny]]></name>
    <trkseg>
      <trkpt lat="45.80622" lon="4.71975">
        <ele>319.7756348</ele>
        <time>2012-11-04T07:43:08Z</time>
      </trkpt>
      <trkpt lat="45.80643" lon="4.7197">
        <ele>319.2950439</ele>
        <time>2012-11-04T07:43:14Z</time>
      </trkpt>
      <trkpt lat="45.80681" lon="4.71961">
        <ele>318.8143311</ele>
        <time>2012-11-04T07:43:24Z</time>
      </trkpt>
      <trkpt lat="45.80733" lon="4.71948">
        <ele>318.3336182</ele>
        <time>2012-11-04T07:43:37Z</time>
      </trkpt>
      <trkpt lat="45.80767" lon="4.71937">
        <ele>320.7370605</ele>
        <time>2012-11-04T07:43:46Z</time>
      </trkpt>
      <trkpt lat="45.80785" lon="4.71933">
        <ele>321.6983643</ele>
        <time>2012-11-04T07:43:51Z</time>
      </trkpt>
      <trkpt lat="45.80789" lon="4.71932">
        <ele>321.6983643</ele>
        <time>2012-11-04T07:43:52Z</time>
      </trkpt>
      <trkpt lat="45.80794" lon="4.71914">
        <ele>321.6983643</ele>
        <time>2012-11-04T07:43:56Z</time>
      </trkpt>
      <trkpt lat="45.80792" lon="4.71908">
        <ele>322.659668</ele>
        <time>2012-11-04T07:43:57Z</time>
      </trkpt>
      <trkpt lat="45.80785" lon="4.71864">
        <ele>322.659668</ele>
        <time>2012-11-04T07:44:04Z</time>
      </trkpt>
      <trkpt lat="45.80783" lon="4.71845">
        <ele>320.2563477</ele>
        <time>2012-11-04T07:44:07Z</time>
      </trkpt>
      <trkpt lat="45.80781" lon="4.71815">
        <ele>319.2950439</ele>
        <time>2012-11-04T07:44:12Z</time>
      </trkpt>
      <trkpt lat="45.80779" lon="4.71787">
        <ele>318.3336182</ele>
        <time>2012-11-04T07:44:17Z</time>
      </trkpt>
      <trkpt lat="45.80788" lon="4.71766">
        <ele>320.2563477</ele>
        <time>2012-11-04T07:44:21Z</time>
      </trkpt>
      <trkpt lat="45.80813" lon="4.71722">
        <ele>323.6209717</ele>
        <time>2012-11-04T07:44:31Z</time>
      </trkpt>
      <trkpt lat="45.80834" lon="4.71673">
        <ele>325.5435791</ele>
        <time>2012-11-04T07:44:42Z</time>
      </trkpt>
      <trkpt lat="45.80854" lon="4.71649">
        <ele>326.9855957</ele>
        <time>2012-11-04T07:44:50Z</time>
      </trkpt>
      <trkpt lat="45.80879" lon="4.71626">
        <ele>339.9633789</ele>
        <time>2012-11-04T07:45:01Z</time>
      </trkpt>
      <trkpt lat="45.80902" lon="4.71609">
        <ele>339.9633789</ele>
        <time>2012-11-04T07:45:09Z</time>
      </trkpt>
      <trkpt lat="45.80927" lon="4.71592">
        <ele>338.0407715</ele>
        <time>2012-11-04T07:45:18Z</time>
      </trkpt>
      <trkpt lat="45.80947" lon="4.71583">
        <ele>336.598877</ele>
        <time>2012-11-04T07:45:25Z</time>
      </trkpt>
      <trkpt lat="45.80977" lon="4.71578">
        <ele>338.0407715</ele>
        <time>2012-11-04T07:45:35Z</time>
      </trkpt>
      <trkpt lat="45.81005" lon="4.71573">
        <ele>340.9246826</ele>
        <time>2012-11-04T07:45:45Z</time>
      </trkpt>
      <trkpt lat="45.81025" lon="4.71559">
        <ele>343.3278809</ele>
        <time>2012-11-04T07:45:53Z</time>
      </trkpt>
      <trkpt lat="45.81051" lon="4.71539">
        <ele>344.7700195</ele>
        <time>2012-11-04T07:46:04Z</time>
      </trkpt>
      <trkpt lat="45.81077" lon="4.71519">
        <ele>343.3278809</ele>
        <time>2012-11-04T07:46:15Z</time>
      </trkpt>
      <trkpt lat="45.81104" lon="4.71497">
        <ele>343.8085938</ele>
        <time>2012-11-04T07:46:27Z</time>
      </trkpt>
      <trkpt lat="45.81123" lon="4.71479">
        <ele>345.2506104</ele>
        <time>2012-11-04T07:46:36Z</time>
      </trkpt>
      <trkpt lat="45.81121" lon="4.71455">
        <ele>345.7313232</ele>
        <time>2012-11-04T07:46:42Z</time>
      </trkpt>
      <trkpt lat="45.81104" lon="4.71421">
        <ele>349.5765381</ele>
        <time>2012-11-04T07:46:48Z</time>
      </trkpt>
      <trkpt lat="45.81086" lon="4.71385">
        <ele>348.1346436</ele>
        <time>2012-11-04T07:46:53Z</time>
      </trkpt>
      <trkpt lat="45.81061" lon="4.71347">
        <ele>347.1732178</ele>
        <time>2012-11-04T07:46:58Z</time>
      </trkpt>
      <trkpt lat="45.81018" lon="4.71292">
        <ele>343.3278809</ele>
        <time>2012-11-04T07:47:06Z</time>
      </trkpt>
      <trkpt lat="45.80996" lon="4.71246">
        <ele>343.3278809</ele>
        <time>2012-11-04T07:47:12Z</time>
      </trkpt>
      <trkpt lat="45.80977" lon="4.71202">
        <ele>343.3278809</ele>
        <time>2012-11-04T07:47:19Z</time>
      </trkpt>
      <trkpt lat="45.8095" lon="4.71138">
        <ele>342.84729</ele>
        <time>2012-11-04T07:47:29Z</time>
      </trkpt>
      <trkpt lat="45.80943" lon="4.71117">
        <ele>341.8859863</ele>
        <time>2012-11-04T07:47:32Z</time>
      </trkpt>
      <trkpt lat="45.80931" lon="4.71104">
        <ele>341.4052734</ele>
        <time>2012-11-04T07:47:35Z</time>
      </trkpt>
      <trkpt lat="45.8092" lon="4.71107">
        <ele>340.4440918</ele>
        <time>2012-11-04T07:47:37Z</time>
      </trkpt>
      <trkpt lat="45.80872" lon="4.71134">
        <ele>338.0407715</ele>
        <time>2012-11-04T07:47:44Z</time>
      </trkpt>
      <trkpt lat="45.80828" lon="4.71159">
        <ele>330.8309326</ele>
        <time>2012-11-04T07:47:49Z</time>
      </trkpt>
      <trkpt lat="45.80767" lon="4.71186">
        <ele>323.1403809</ele>
        <time>2012-11-04T07:47:55Z</time>
      </trkpt>
      <trkpt lat="45.80736" lon="4.71195">
        <ele>319.2950439</ele>
        <time>2012-11-04T07:47:58Z</time>
      </trkpt>
      <trkpt lat="45.80705" lon="4.71189">
        <ele>314.9691162</ele>
        <time>2012-11-04T07:48:01Z</time>
      </trkpt>
      <trkpt lat="45.80661" lon="4.7116">
        <ele>308.720459</ele>
        <time>2012-11-04T07:48:05Z</time>
      </trkpt>
      <trkpt lat="45.80591" lon="4.71129">
        <ele>302.9525146</ele>
        <time>2012-11-04T07:48:11Z</time>
      </trkpt>
      <trkpt lat="45.80514" lon="4.71096">
        <ele>296.2235107</ele>
        <time>2012-11-04T07:48:18Z</time>
      </trkpt>
      <trkpt lat="45.80468" lon="4.71062">
        <ele>289.0135498</ele>
        <time>2012-11-04T07:48:23Z</time>
      </trkpt>
      <trkpt lat="45.80445" lon="4.71052">
        <ele>285.1682129</ele>
        <time>2012-11-04T07:48:26Z</time>
      </trkpt>
      <trkpt lat="45.80433" lon="4.71049">
        <ele>283.2456055</ele>
        <time>2012-11-04T07:48:28Z</time>
      </trkpt>
      <trkpt lat="45.80418" lon="4.71032">
        <ele>279.8808594</ele>
        <time>2012-11-04T07:48:32Z</time>
      </trkpt>
      <trkpt lat="45.80425" lon="4.71013">
        <ele>277.4776611</ele>
        <time>2012-11-04T07:48:34Z</time>
      </trkpt>
      <trkpt lat="45.80442" lon="4.70992">
        <ele>276.5163574</ele>
        <time>2012-11-04T07:48:37Z</time>
      </trkpt>
      <trkpt lat="45.80463" lon="4.70958">
        <ele>271.7097168</ele>
        <time>2012-11-04T07:48:42Z</time>
      </trkpt>
      <trkpt lat="45.8046" lon="4.70942">
        <ele>272.1904297</ele>
        <time>2012-11-04T07:48:44Z</time>
      </trkpt>
      <trkpt lat="45.80455" lon="4.70895">
        <ele>270.2677002</ele>
        <time>2012-11-04T07:48:49Z</time>
      </trkpt>
      <trkpt lat="45.80453" lon="4.70875">
        <ele>269.7871094</ele>
        <time>2012-11-04T07:48:51Z</time>
      </trkpt>
      <trkpt lat="45.80438" lon="4.70838">
        <ele>270.7484131</ele>
        <time>2012-11-04T07:48:55Z</time>
      </trkpt>
      <trkpt lat="45.80418" lon="4.70817">
        <ele>273.6324463</ele>
        <time>2012-11-04T07:48:59Z</time>
      </trkpt>
      <trkpt lat="45.80402" lon="4.70821">
        <ele>278.9196777</ele>
        <time>2012-11-04T07:49:02Z</time>
      </trkpt>
      <trkpt lat="45.80399" lon="4.7083">
        <ele>279.4002686</ele>
        <time>2012-11-04T07:49:04Z</time>
      </trkpt>
      <trkpt lat="45.80386" lon="4.70847">
        <ele>283.2456055</ele>
        <time>2012-11-04T07:49:09Z</time>
      </trkpt>
      <trkpt lat="45.80371" lon="4.70862">
        <ele>285.1682129</ele>
        <time>2012-11-04T07:49:14Z</time>
      </trkpt>
      <trkpt lat="45.8036" lon="4.70876">
        <ele>289.4941406</ele>
        <time>2012-11-04T07:49:18Z</time>
      </trkpt>
      <trkpt lat="45.80354" lon="4.70892">
        <ele>289.9748535</ele>
        <time>2012-11-04T07:49:22Z</time>
      </trkpt>
      <trkpt lat="45.80344" lon="4.70905">
        <ele>293.3393555</ele>
        <time>2012-11-04T07:49:26Z</time>
      </trkpt>
      <trkpt lat="45.80326" lon="4.70918">
        <ele>298.626709</ele>
        <time>2012-11-04T07:49:31Z</time>
      </trkpt>
      <trkpt lat="45.80315" lon="4.7093">
        <ele>298.626709</ele>
        <time>2012-11-04T07:49:36Z</time>
      </trkpt>
      <trkpt lat="45.80305" lon="4.70941">
        <ele>300.0687256</ele>
        <time>2012-11-04T07:49:41Z</time>
      </trkpt>
      <trkpt lat="45.8029" lon="4.70954">
        <ele>299.1072998</ele>
        <time>2012-11-04T07:49:47Z</time>
      </trkpt>
      <trkpt lat="45.80276" lon="4.70958">
        <ele>299.1072998</ele>
        <time>2012-11-04T07:49:52Z</time>
      </trkpt>
      <trkpt lat="45.80263" lon="4.70956">
        <ele>301.0299072</ele>
        <time>2012-11-04T07:49:58Z</time>
      </trkpt>
      <trkpt lat="45.80246" lon="4.70952">
        <ele>303.9139404</ele>
        <time>2012-11-04T07:50:04Z</time>
      </trkpt>
      <trkpt lat="45.80233" lon="4.70947">
        <ele>304.8752441</ele>
        <time>2012-11-04T07:50:09Z</time>
      </trkpt>
      <trkpt lat="45.80209" lon="4.70941">
        <ele>306.3172607</ele>
        <time>2012-11-04T07:50:17Z</time>
      </trkpt>
      <trkpt lat="45.80195" lon="4.70939">
        <ele>309.2011719</ele>
        <time>2012-11-04T07:50:22Z</time>
      </trkpt>
      <trkpt lat="45.80182" lon="4.70937">
        <ele>308.720459</ele>
        <time>2012-11-04T07:50:27Z</time>
      </trkpt>
      <trkpt lat="45.80162" lon="4.70935">
        <ele>308.720459</ele>
        <time>2012-11-04T07:50:34Z</time>
      </trkpt>
      <trkpt lat="45.80141" lon="4.7093">
        <ele>308.2398682</ele>
        <time>2012-11-04T07:50:42Z</time>
      </trkpt>
      <trkpt lat="45.80116" lon="4.70928">
        <ele>307.7592773</ele>
        <time>2012-11-04T07:50:51Z</time>
      </trkpt>
      <trkpt lat="45.801" lon="4.70927">
        <ele>307.2785645</ele>
        <time>2012-11-04T07:50:57Z</time>
      </trkpt>
      <trkpt lat="45.80083" lon="4.70928">
        <ele>308.2398682</ele>
        <time>2012-11-04T07:51:04Z</time>
      </trkpt>
      <trkpt lat="45.80068" lon="4.70926">
        <ele>311.1237793</ele>
        <time>2012-11-04T07:51:11Z</time>
      </trkpt>
      <trkpt lat="45.80054" lon="4.70923">
        <ele>312.0852051</ele>
        <time>2012-11-04T07:51:18Z</time>
      </trkpt>
      <trkpt lat="45.8005" lon="4.70921">
        <ele>309.6818848</ele>
        <time>2012-11-04T07:51:23Z</time>
      </trkpt>
      <trkpt lat="45.80049" lon="4.70921">
        <ele>306.7978516</ele>
        <time>2012-11-04T07:51:30Z</time>
      </trkpt>
      <trkpt lat="45.80046" lon="4.7092">
        <ele>308.2398682</ele>
        <time>2012-11-04T07:52:20Z</time>
      </trkpt>
      <trkpt lat="45.80045" lon="4.7092">
        <ele>307.7592773</ele>
        <time>2012-11-04T07:52:40Z</time>
      </trkpt>
      <trkpt lat="45.80075" lon="4.70889">
        <ele>297.5117188</ele>
      </trkpt>
      <trkpt lat="45.80094" lon="4.708">
        <ele>300.03125</ele>
      </trkpt>
      <trkpt lat="45.80103" lon="4.70732">
        <ele>299.8125</ele>
      </trkpt>
      <trkpt lat="45.80075" lon="4.7064">
        <ele>300.8320313</ele>
      </trkpt>
      <trkpt lat="45.8004" lon="4.70579">
        <ele>302.8359375</ele>
      </trkpt>
      <trkpt lat="45.80033" lon="4.70575">
        <ele>302.9960938</ele>
      </trkpt>
      <trkpt lat="45.80029" lon="4.70565">
        <ele>303</ele>
      </trkpt>
      <trkpt lat="45.80025" lon="4.70556">
        <ele>303</ele>
      </trkpt>
      <trkpt lat="45.80021" lon="4.70547">
        <ele>303.0039063</ele>
      </trkpt>
      <trkpt lat="45.80019" lon="4.70537">
        <ele>303.359375</ele>
      </trkpt>
      <trkpt lat="45.80017" lon="4.7053">
        <ele>303.5976563</ele>
      </trkpt>
      <trkpt lat="45.8002" lon="4.70468">
        <ele>304</ele>
      </trkpt>
      <trkpt lat="45.80044" lon="4.70359">
        <ele>305.0390625</ele>
      </trkpt>
      <trkpt lat="45.80081" lon="4.70287">
        <ele>307.359375</ele>
      </trkpt>
      <trkpt lat="45.80106" lon="4.70232">
        <ele>308</ele>
      </trkpt>
      <trkpt lat="45.80062" lon="4.70125">
        <ele>308</ele>
      </trkpt>
      <trkpt lat="45.79951" lon="4.70134">
        <ele>307.9648438</ele>
      </trkpt>
      <trkpt lat="45.7988" lon="4.70007">
        <ele>307.5664063</ele>
      </trkpt>
      <trkpt lat="45.79885" lon="4.69928">
        <ele>309.3242188</ele>
      </trkpt>
      <trkpt lat="45.79922" lon="4.69792">
        <ele>313.8359375</ele>
      </trkpt>
      <trkpt lat="45.79924" lon="4.69653">
        <ele>316.5078125</ele>
      </trkpt>
      <trkpt lat="45.79935" lon="4.69575">
        <ele>314.4884033</ele>
        <time>2012-11-04T07:58:13Z</time>
      </trkpt>
      <trkpt lat="45.79943" lon="4.69503">
        <ele>316.4110107</ele>
        <time>2012-11-04T07:58:25Z</time>
      </trkpt>
      <trkpt lat="45.79945" lon="4.69449">
        <ele>317.8530273</ele>
        <time>2012-11-04T07:58:35Z</time>
      </trkpt>
      <trkpt lat="45.79945" lon="4.69435">
        <ele>318.3336182</ele>
        <time>2012-11-04T07:58:38Z</time>
      </trkpt>
      <trkpt lat="45.79936" lon="4.69419">
        <ele>319.7756348</ele>
        <time>2012-11-04T07:58:42Z</time>
      </trkpt>
      <trkpt lat="45.79915" lon="4.69401">
        <ele>321.2177734</ele>
        <time>2012-11-04T07:58:48Z</time>
      </trkpt>
      <trkpt lat="45.7988" lon="4.69361">
        <ele>324.5822754</ele>
        <time>2012-11-04T07:58:59Z</time>
      </trkpt>
      <trkpt lat="45.79859" lon="4.69331">
        <ele>326.0241699</ele>
        <time>2012-11-04T07:59:07Z</time>
      </trkpt>
      <trkpt lat="45.79847" lon="4.69308">
        <ele>327.4661865</ele>
        <time>2012-11-04T07:59:13Z</time>
      </trkpt>
      <trkpt lat="45.79831" lon="4.6928">
        <ele>329.388916</ele>
        <time>2012-11-04T07:59:20Z</time>
      </trkpt>
      <trkpt lat="45.79813" lon="4.69247">
        <ele>331.3115234</ele>
        <time>2012-11-04T07:59:28Z</time>
      </trkpt>
      <trkpt lat="45.79787" lon="4.69199">
        <ele>333.7147217</ele>
        <time>2012-11-04T07:59:40Z</time>
      </trkpt>
      <trkpt lat="45.79768" lon="4.69179">
        <ele>334.6761475</ele>
        <time>2012-11-04T07:59:47Z</time>
      </trkpt>
      <trkpt lat="45.79741" lon="4.69161">
        <ele>335.1567383</ele>
        <time>2012-11-04T07:59:55Z</time>
      </trkpt>
      <trkpt lat="45.79708" lon="4.6914">
        <ele>335.1567383</ele>
        <time>2012-11-04T08:00:04Z</time>
      </trkpt>
      <trkpt lat="45.7966" lon="4.6911">
        <ele>334.6761475</ele>
        <time>2012-11-04T08:00:15Z</time>
      </trkpt>
      <trkpt lat="45.79634" lon="4.69085">
        <ele>333.7147217</ele>
        <time>2012-11-04T08:00:21Z</time>
      </trkpt>
      <trkpt lat="45.79613" lon="4.69052">
        <ele>333.2341309</ele>
        <time>2012-11-04T08:00:27Z</time>
      </trkpt>
      <trkpt lat="45.79598" lon="4.69032">
        <ele>333.7147217</ele>
        <time>2012-11-04T08:00:31Z</time>
      </trkpt>
      <trkpt lat="45.79574" lon="4.69017">
        <ele>334.6761475</ele>
        <time>2012-11-04T08:00:38Z</time>
      </trkpt>
      <trkpt lat="45.79548" lon="4.69014">
        <ele>336.598877</ele>
        <time>2012-11-04T08:00:46Z</time>
      </trkpt>
      <trkpt lat="45.79504" lon="4.69011">
        <ele>339.0020752</ele>
        <time>2012-11-04T08:00:59Z</time>
      </trkpt>
      <trkpt lat="45.79476" lon="4.69002">
        <ele>339.9633789</ele>
        <time>2012-11-04T08:01:08Z</time>
      </trkpt>
      <trkpt lat="45.7947" lon="4.68985">
        <ele>340.9246826</ele>
        <time>2012-11-04T08:01:12Z</time>
      </trkpt>
      <trkpt lat="45.79469" lon="4.68952">
        <ele>341.8859863</ele>
        <time>2012-11-04T08:01:19Z</time>
      </trkpt>
      <trkpt lat="45.79471" lon="4.68914">
        <ele>342.3666992</ele>
        <time>2012-11-04T08:01:27Z</time>
      </trkpt>
      <trkpt lat="45.79474" lon="4.68884">
        <ele>343.3278809</ele>
        <time>2012-11-04T08:01:33Z</time>
      </trkpt>
      <trkpt lat="45.79479" lon="4.68855">
        <ele>343.8085938</ele>
        <time>2012-11-04T08:01:38Z</time>
      </trkpt>
      <trkpt lat="45.79482" lon="4.68797">
        <ele>344.2894287</ele>
        <time>2012-11-04T08:01:48Z</time>
      </trkpt>
      <trkpt lat="45.79487" lon="4.68761">
        <ele>344.7700195</ele>
        <time>2012-11-04T08:01:55Z</time>
      </trkpt>
      <trkpt lat="45.79504" lon="4.68718">
        <ele>345.2506104</ele>
        <time>2012-11-04T08:02:05Z</time>
      </trkpt>
      <trkpt lat="45.79513" lon="4.68698">
        <ele>345.7313232</ele>
        <time>2012-11-04T08:02:11Z</time>
      </trkpt>
      <trkpt lat="45.79525" lon="4.68671">
        <ele>346.692627</ele>
        <time>2012-11-04T08:02:18Z</time>
      </trkpt>
      <trkpt lat="45.79542" lon="4.68635">
        <ele>347.6539307</ele>
        <time>2012-11-04T08:02:27Z</time>
      </trkpt>
      <trkpt lat="45.79533" lon="4.6862">
        <ele>348.6152344</ele>
        <time>2012-11-04T08:02:32Z</time>
      </trkpt>
      <trkpt lat="45.79505" lon="4.68605">
        <ele>349.0958252</ele>
        <time>2012-11-04T08:02:41Z</time>
      </trkpt>
      <trkpt lat="45.79469" lon="4.68586">
        <ele>348.1346436</ele>
        <time>2012-11-04T08:02:50Z</time>
      </trkpt>
      <trkpt lat="45.79437" lon="4.68571">
        <ele>346.692627</ele>
        <time>2012-11-04T08:02:56Z</time>
      </trkpt>
      <trkpt lat="45.79405" lon="4.68549">
        <ele>345.2506104</ele>
        <time>2012-11-04T08:03:02Z</time>
      </trkpt>
      <trkpt lat="45.79381" lon="4.68529">
        <ele>344.2894287</ele>
        <time>2012-11-04T08:03:07Z</time>
      </trkpt>
      <trkpt lat="45.79353" lon="4.68503">
        <ele>343.8085938</ele>
        <time>2012-11-04T08:03:13Z</time>
      </trkpt>
      <trkpt lat="45.79347" lon="4.68496">
        <ele>343.3278809</ele>
        <time>2012-11-04T08:03:14Z</time>
      </trkpt>
      <trkpt lat="45.79317" lon="4.68452">
        <ele>339.9633789</ele>
        <time>2012-11-04T08:03:20Z</time>
      </trkpt>
      <trkpt lat="45.79312" lon="4.68445">
        <ele>338.5214844</ele>
        <time>2012-11-04T08:03:21Z</time>
      </trkpt>
      <trkpt lat="45.79297" lon="4.68407">
        <ele>334.6761475</ele>
        <time>2012-11-04T08:03:26Z</time>
      </trkpt>
      <trkpt lat="45.79297" lon="4.68384">
        <ele>331.7921143</ele>
        <time>2012-11-04T08:03:30Z</time>
      </trkpt>
      <trkpt lat="45.79283" lon="4.68364">
        <ele>327.9467773</ele>
        <time>2012-11-04T08:03:34Z</time>
      </trkpt>
      <trkpt lat="45.79273" lon="4.68358">
        <ele>326.0241699</ele>
        <time>2012-11-04T08:03:36Z</time>
      </trkpt>
      <trkpt lat="45.7925" lon="4.68352">
        <ele>324.5822754</ele>
        <time>2012-11-04T08:03:42Z</time>
      </trkpt>
      <trkpt lat="45.79237" lon="4.68348">
        <ele>326.9855957</ele>
        <time>2012-11-04T08:03:49Z</time>
      </trkpt>
      <trkpt lat="45.79229" lon="4.68343">
        <ele>328.9083252</ele>
        <time>2012-11-04T08:03:55Z</time>
      </trkpt>
      <trkpt lat="45.79218" lon="4.68334">
        <ele>332.75354</ele>
        <time>2012-11-04T08:04:04Z</time>
      </trkpt>
      <trkpt lat="45.79209" lon="4.68323">
        <ele>335.1567383</ele>
        <time>2012-11-04T08:04:12Z</time>
      </trkpt>
      <trkpt lat="45.79202" lon="4.68312">
        <ele>335.6373291</ele>
        <time>2012-11-04T08:04:19Z</time>
      </trkpt>
      <trkpt lat="45.792" lon="4.68309">
        <ele>336.1181641</ele>
        <time>2012-11-04T08:04:24Z</time>
      </trkpt>
      <trkpt lat="45.79198" lon="4.68306">
        <ele>336.598877</ele>
        <time>2012-11-04T08:04:31Z</time>
      </trkpt>
      <trkpt lat="45.79193" lon="4.68304">
        <ele>338.5214844</ele>
        <time>2012-11-04T08:04:41Z</time>
      </trkpt>
      <trkpt lat="45.79192" lon="4.68297">
        <ele>340.9246826</ele>
        <time>2012-11-04T08:04:49Z</time>
      </trkpt>
      <trkpt lat="45.7919" lon="4.68288">
        <ele>343.8085938</ele>
        <time>2012-11-04T08:04:57Z</time>
      </trkpt>
      <trkpt lat="45.79189" lon="4.68278">
        <ele>345.2506104</ele>
        <time>2012-11-04T08:05:06Z</time>
      </trkpt>
      <trkpt lat="45.79186" lon="4.68263">
        <ele>346.2120361</ele>
        <time>2012-11-04T08:05:17Z</time>
      </trkpt>
      <trkpt lat="45.79185" lon="4.68255">
        <ele>347.6539307</ele>
        <time>2012-11-04T08:05:25Z</time>
      </trkpt>
      <trkpt lat="45.79189" lon="4.68248">
        <ele>347.6539307</ele>
        <time>2012-11-04T08:05:33Z</time>
      </trkpt>
      <trkpt lat="45.7919" lon="4.68246">
        <ele>351.0184326</ele>
        <time>2012-11-04T08:05:40Z</time>
      </trkpt>
      <trkpt lat="45.79189" lon="4.68246">
        <ele>353.421875</ele>
        <time>2012-11-04T08:05:54Z</time>
      </trkpt>
      <trkpt lat="45.79189" lon="4.68245">
        <ele>353.9025879</ele>
        <time>2012-11-04T08:06:05Z</time>
      </trkpt>
      <trkpt lat="45.7919" lon="4.68244">
        <ele>351.9798584</ele>
        <time>2012-11-04T08:06:18Z</time>
      </trkpt>
      <trkpt lat="45.792" lon="4.68252">
        <ele>354.3831787</ele>
        <time>2012-11-04T08:06:26Z</time>
      </trkpt>
      <trkpt lat="45.79205" lon="4.68253">
        <ele>356.3057861</ele>
        <time>2012-11-04T08:06:32Z</time>
      </trkpt>
      <trkpt lat="45.79206" lon="4.68253">
        <ele>356.3057861</ele>
        <time>2012-11-04T08:06:33Z</time>
      </trkpt>
      <trkpt lat="45.79212" lon="4.68244">
        <ele>357.2670898</ele>
        <time>2012-11-04T08:06:40Z</time>
      </trkpt>
      <trkpt lat="45.79207" lon="4.68231">
        <ele>359.1896973</ele>
        <time>2012-11-04T08:06:47Z</time>
      </trkpt>
      <trkpt lat="45.79204" lon="4.68216">
        <ele>360.151123</ele>
        <time>2012-11-04T08:06:55Z</time>
      </trkpt>
      <trkpt lat="45.792" lon="4.68202">
        <ele>363.0350342</ele>
        <time>2012-11-04T08:07:03Z</time>
      </trkpt>
      <trkpt lat="45.79193" lon="4.6819">
        <ele>362.0737305</ele>
        <time>2012-11-04T08:07:11Z</time>
      </trkpt>
      <trkpt lat="45.79193" lon="4.68189">
        <ele>362.0737305</ele>
        <time>2012-11-04T08:07:12Z</time>
      </trkpt>
      <trkpt lat="45.79181" lon="4.68176">
        <ele>360.6317139</ele>
        <time>2012-11-04T08:07:23Z</time>
      </trkpt>
      <trkpt lat="45.79173" lon="4.68169">
        <ele>359.6704102</ele>
        <time>2012-11-04T08:07:28Z</time>
      </trkpt>
      <trkpt lat="45.79166" lon="4.68162">
        <ele>359.6704102</ele>
        <time>2012-11-04T08:07:32Z</time>
      </trkpt>
      <trkpt lat="45.79153" lon="4.6815">
        <ele>360.151123</ele>
        <time>2012-11-04T08:07:38Z</time>
      </trkpt>
      <trkpt lat="45.79137" lon="4.6814">
        <ele>360.6317139</ele>
        <time>2012-11-04T08:07:43Z</time>
      </trkpt>
      <trkpt lat="45.79123" lon="4.68126">
        <ele>360.6317139</ele>
        <time>2012-11-04T08:07:49Z</time>
      </trkpt>
      <trkpt lat="45.7911" lon="4.6812">
        <ele>361.5931396</ele>
        <time>2012-11-04T08:07:55Z</time>
      </trkpt>
      <trkpt lat="45.79096" lon="4.68117">
        <ele>363.9963379</ele>
        <time>2012-11-04T08:08:03Z</time>
      </trkpt>
      <trkpt lat="45.79083" lon="4.68108">
        <ele>365.9189453</ele>
        <time>2012-11-04T08:08:11Z</time>
      </trkpt>
      <trkpt lat="45.79073" lon="4.68098">
        <ele>368.8029785</ele>
        <time>2012-11-04T08:08:18Z</time>
      </trkpt>
      <trkpt lat="45.79064" lon="4.68093">
        <ele>372.1674805</ele>
        <time>2012-11-04T08:08:24Z</time>
      </trkpt>
      <trkpt lat="45.79061" lon="4.68095">
        <ele>371.6868896</ele>
        <time>2012-11-04T08:08:27Z</time>
      </trkpt>
      <trkpt lat="45.79056" lon="4.68104">
        <ele>372.6481934</ele>
        <time>2012-11-04T08:08:33Z</time>
      </trkpt>
      <trkpt lat="45.7905" lon="4.68113">
        <ele>375.0515137</ele>
        <time>2012-11-04T08:08:40Z</time>
      </trkpt>
      <trkpt lat="45.79043" lon="4.68126">
        <ele>376.0128174</ele>
        <time>2012-11-04T08:08:47Z</time>
      </trkpt>
      <trkpt lat="45.79034" lon="4.68143">
        <ele>376.4935303</ele>
        <time>2012-11-04T08:08:56Z</time>
      </trkpt>
      <trkpt lat="45.79027" lon="4.68157">
        <ele>373.6094971</ele>
        <time>2012-11-04T08:09:05Z</time>
      </trkpt>
      <trkpt lat="45.79016" lon="4.68164">
        <ele>373.1289063</ele>
        <time>2012-11-04T08:09:12Z</time>
      </trkpt>
      <trkpt lat="45.79002" lon="4.68161">
        <ele>375.0515137</ele>
        <time>2012-11-04T08:09:21Z</time>
      </trkpt>
      <trkpt lat="45.7899" lon="4.68157">
        <ele>376.0128174</ele>
        <time>2012-11-04T08:09:29Z</time>
      </trkpt>
      <trkpt lat="45.78981" lon="4.68155">
        <ele>376.4935303</ele>
        <time>2012-11-04T08:09:35Z</time>
      </trkpt>
      <trkpt lat="45.78965" lon="4.68149">
        <ele>377.454834</ele>
        <time>2012-11-04T08:09:45Z</time>
      </trkpt>
      <trkpt lat="45.7895" lon="4.68146">
        <ele>377.9354248</ele>
        <time>2012-11-04T08:09:53Z</time>
      </trkpt>
      <trkpt lat="45.78931" lon="4.6814">
        <ele>377.9354248</ele>
        <time>2012-11-04T08:10:01Z</time>
      </trkpt>
      <trkpt lat="45.78916" lon="4.68138">
        <ele>377.9354248</ele>
        <time>2012-11-04T08:10:07Z</time>
      </trkpt>
      <trkpt lat="45.78898" lon="4.68129">
        <ele>377.9354248</ele>
        <time>2012-11-04T08:10:14Z</time>
      </trkpt>
      <trkpt lat="45.78878" lon="4.68116">
        <ele>377.454834</ele>
        <time>2012-11-04T08:10:19Z</time>
      </trkpt>
      <trkpt lat="45.78855" lon="4.68096">
        <ele>379.3774414</ele>
        <time>2012-11-04T08:10:24Z</time>
      </trkpt>
      <trkpt lat="45.78825" lon="4.68061">
        <ele>379.3774414</ele>
        <time>2012-11-04T08:10:31Z</time>
      </trkpt>
      <trkpt lat="45.78796" lon="4.68032">
        <ele>376.0128174</ele>
        <time>2012-11-04T08:10:36Z</time>
      </trkpt>
      <trkpt lat="45.78772" lon="4.68004">
        <ele>373.1289063</ele>
        <time>2012-11-04T08:10:40Z</time>
      </trkpt>
      <trkpt lat="45.78738" lon="4.67968">
        <ele>370.244873</ele>
        <time>2012-11-04T08:10:46Z</time>
      </trkpt>
      <trkpt lat="45.78708" lon="4.6793">
        <ele>364.4769287</ele>
        <time>2012-11-04T08:10:52Z</time>
      </trkpt>
      <trkpt lat="45.78683" lon="4.67888">
        <ele>359.1896973</ele>
        <time>2012-11-04T08:10:58Z</time>
      </trkpt>
      <trkpt lat="45.78664" lon="4.67863">
        <ele>355.3444824</ele>
        <time>2012-11-04T08:11:02Z</time>
      </trkpt>
      <trkpt lat="45.78648" lon="4.67831">
        <ele>350.057251</ele>
        <time>2012-11-04T08:11:07Z</time>
      </trkpt>
      <trkpt lat="45.78652" lon="4.67814">
        <ele>345.7313232</ele>
        <time>2012-11-04T08:11:10Z</time>
      </trkpt>
      <trkpt lat="45.78659" lon="4.67798">
        <ele>341.4052734</ele>
        <time>2012-11-04T08:11:13Z</time>
      </trkpt>
      <trkpt lat="45.78649" lon="4.6778">
        <ele>339.0020752</ele>
        <time>2012-11-04T08:11:18Z</time>
      </trkpt>
      <trkpt lat="45.78632" lon="4.67781">
        <ele>338.5214844</ele>
        <time>2012-11-04T08:11:22Z</time>
      </trkpt>
      <trkpt lat="45.78615" lon="4.67785">
        <ele>336.598877</ele>
        <time>2012-11-04T08:11:25Z</time>
      </trkpt>
      <trkpt lat="45.78603" lon="4.67791">
        <ele>336.1181641</ele>
        <time>2012-11-04T08:11:27Z</time>
      </trkpt>
      <trkpt lat="45.78584" lon="4.67793">
        <ele>337.0794678</ele>
        <time>2012-11-04T08:11:31Z</time>
      </trkpt>
      <trkpt lat="45.78579" lon="4.67791">
        <ele>338.5214844</ele>
        <time>2012-11-04T08:11:33Z</time>
      </trkpt>
      <trkpt lat="45.78569" lon="4.6778">
        <ele>340.9246826</ele>
        <time>2012-11-04T08:11:40Z</time>
      </trkpt>
      <trkpt lat="45.7856" lon="4.67768">
        <ele>343.8085938</ele>
        <time>2012-11-04T08:11:48Z</time>
      </trkpt>
      <trkpt lat="45.78552" lon="4.67764">
        <ele>345.7313232</ele>
        <time>2012-11-04T08:11:55Z</time>
      </trkpt>
      <trkpt lat="45.78541" lon="4.67761">
        <ele>349.0958252</ele>
        <time>2012-11-04T08:12:03Z</time>
      </trkpt>
      <trkpt lat="45.78532" lon="4.67765">
        <ele>351.9798584</ele>
        <time>2012-11-04T08:12:10Z</time>
      </trkpt>
      <trkpt lat="45.78531" lon="4.67767">
        <ele>351.9798584</ele>
        <time>2012-11-04T08:12:11Z</time>
      </trkpt>
      <trkpt lat="45.78525" lon="4.67776">
        <ele>354.8637695</ele>
        <time>2012-11-04T08:12:19Z</time>
      </trkpt>
      <trkpt lat="45.78518" lon="4.67785">
        <ele>356.786377</ele>
        <time>2012-11-04T08:12:26Z</time>
      </trkpt>
      <trkpt lat="45.7851" lon="4.67794">
        <ele>357.7478027</ele>
        <time>2012-11-04T08:12:34Z</time>
      </trkpt>
      <trkpt lat="45.785" lon="4.67805">
        <ele>358.2283936</ele>
        <time>2012-11-04T08:12:43Z</time>
      </trkpt>
      <trkpt lat="45.78489" lon="4.67818">
        <ele>359.6704102</ele>
        <time>2012-11-04T08:12:53Z</time>
      </trkpt>
      <trkpt lat="45.7848" lon="4.67832">
        <ele>360.151123</ele>
        <time>2012-11-04T08:13:03Z</time>
      </trkpt>
      <trkpt lat="45.78474" lon="4.67841">
        <ele>361.5931396</ele>
        <time>2012-11-04T08:13:10Z</time>
      </trkpt>
      <trkpt lat="45.78467" lon="4.67853">
        <ele>364.9576416</ele>
        <time>2012-11-04T08:13:20Z</time>
      </trkpt>
      <trkpt lat="45.78461" lon="4.67863">
        <ele>367.8415527</ele>
        <time>2012-11-04T08:13:29Z</time>
      </trkpt>
      <trkpt lat="45.78455" lon="4.67873">
        <ele>368.8029785</ele>
        <time>2012-11-04T08:13:37Z</time>
      </trkpt>
      <trkpt lat="45.78448" lon="4.67884">
        <ele>372.1674805</ele>
        <time>2012-11-04T08:13:46Z</time>
      </trkpt>
      <trkpt lat="45.78441" lon="4.67893">
        <ele>374.5708008</ele>
        <time>2012-11-04T08:13:54Z</time>
      </trkpt>
      <trkpt lat="45.78438" lon="4.67899">
        <ele>374.5708008</ele>
        <time>2012-11-04T08:13:58Z</time>
      </trkpt>
      <trkpt lat="45.78428" lon="4.67915">
        <ele>372.1674805</ele>
        <time>2012-11-04T08:14:08Z</time>
      </trkpt>
      <trkpt lat="45.78419" lon="4.67928">
        <ele>371.2062988</ele>
        <time>2012-11-04T08:14:17Z</time>
      </trkpt>
      <trkpt lat="45.78409" lon="4.67943">
        <ele>371.6868896</ele>
        <time>2012-11-04T08:14:27Z</time>
      </trkpt>
      <trkpt lat="45.78402" lon="4.67957">
        <ele>374.0900879</ele>
        <time>2012-11-04T08:14:36Z</time>
      </trkpt>
      <trkpt lat="45.78394" lon="4.67972">
        <ele>376.9742432</ele>
        <time>2012-11-04T08:14:46Z</time>
      </trkpt>
      <trkpt lat="45.78385" lon="4.67987">
        <ele>379.3774414</ele>
        <time>2012-11-04T08:14:56Z</time>
      </trkpt>
      <trkpt lat="45.78376" lon="4.68">
        <ele>381.3000488</ele>
        <time>2012-11-04T08:15:06Z</time>
      </trkpt>
      <trkpt lat="45.78368" lon="4.68008">
        <ele>382.2613525</ele>
        <time>2012-11-04T08:15:14Z</time>
      </trkpt>
      <trkpt lat="45.7836" lon="4.68017">
        <ele>382.7420654</ele>
        <time>2012-11-04T08:15:22Z</time>
      </trkpt>
      <trkpt lat="45.78351" lon="4.68028">
        <ele>384.6647949</ele>
        <time>2012-11-04T08:15:31Z</time>
      </trkpt>
      <trkpt lat="45.78341" lon="4.68038">
        <ele>386.1066895</ele>
        <time>2012-11-04T08:15:39Z</time>
      </trkpt>
      <trkpt lat="45.7833" lon="4.68046">
        <ele>387.0679932</ele>
        <time>2012-11-04T08:15:47Z</time>
      </trkpt>
      <trkpt lat="45.78316" lon="4.68058">
        <ele>389.4711914</ele>
        <time>2012-11-04T08:15:58Z</time>
      </trkpt>
      <trkpt lat="45.78302" lon="4.68067">
        <ele>393.7972412</ele>
        <time>2012-11-04T08:16:08Z</time>
      </trkpt>
      <trkpt lat="45.78287" lon="4.68076">
        <ele>394.7585449</ele>
        <time>2012-11-04T08:16:19Z</time>
      </trkpt>
      <trkpt lat="45.78272" lon="4.68085">
        <ele>395.2391357</ele>
        <time>2012-11-04T08:16:29Z</time>
      </trkpt>
      <trkpt lat="45.78258" lon="4.68093">
        <ele>395.2391357</ele>
        <time>2012-11-04T08:16:38Z</time>
      </trkpt>
      <trkpt lat="45.78243" lon="4.681">
        <ele>395.2391357</ele>
        <time>2012-11-04T08:16:46Z</time>
      </trkpt>
      <trkpt lat="45.78225" lon="4.68108">
        <ele>395.7198486</ele>
        <time>2012-11-04T08:16:57Z</time>
      </trkpt>
      <trkpt lat="45.78213" lon="4.68111">
        <ele>396.2005615</ele>
        <time>2012-11-04T08:17:04Z</time>
      </trkpt>
      <trkpt lat="45.78211" lon="4.68107">
        <ele>396.2005615</ele>
        <time>2012-11-04T08:17:06Z</time>
      </trkpt>
      <trkpt lat="45.78216" lon="4.68093">
        <ele>397.6424561</ele>
        <time>2012-11-04T08:17:13Z</time>
      </trkpt>
      <trkpt lat="45.78225" lon="4.68076">
        <ele>399.0843506</ele>
        <time>2012-11-04T08:17:22Z</time>
      </trkpt>
      <trkpt lat="45.78233" lon="4.68059">
        <ele>402.9296875</ele>
        <time>2012-11-04T08:17:30Z</time>
      </trkpt>
      <trkpt lat="45.78239" lon="4.68044">
        <ele>404.3717041</ele>
        <time>2012-11-04T08:17:37Z</time>
      </trkpt>
      <trkpt lat="45.78244" lon="4.68018">
        <ele>406.7749023</ele>
        <time>2012-11-04T08:17:47Z</time>
      </trkpt>
      <trkpt lat="45.78246" lon="4.68004">
        <ele>407.2556152</ele>
        <time>2012-11-04T08:17:52Z</time>
      </trkpt>
      <trkpt lat="45.78248" lon="4.67977">
        <ele>409.1783447</ele>
        <time>2012-11-04T08:18:01Z</time>
      </trkpt>
      <trkpt lat="45.78248" lon="4.67957">
        <ele>410.1396484</ele>
        <time>2012-11-04T08:18:08Z</time>
      </trkpt>
      <trkpt lat="45.78246" lon="4.67942">
        <ele>410.6202393</ele>
        <time>2012-11-04T08:18:15Z</time>
      </trkpt>
      <trkpt lat="45.78242" lon="4.67915">
        <ele>411.1009521</ele>
        <time>2012-11-04T08:18:21Z</time>
      </trkpt>
      <trkpt lat="45.78235" lon="4.67871">
        <ele>409.6590576</ele>
        <time>2012-11-04T08:18:28Z</time>
      </trkpt>
      <trkpt lat="45.78231" lon="4.67848">
        <ele>408.217041</ele>
        <time>2012-11-04T08:18:31Z</time>
      </trkpt>
      <trkpt lat="45.78218" lon="4.67816">
        <ele>406.2943115</ele>
        <time>2012-11-04T08:18:37Z</time>
      </trkpt>
      <trkpt lat="45.7821" lon="4.67805">
        <ele>404.8522949</ele>
        <time>2012-11-04T08:18:40Z</time>
      </trkpt>
      <trkpt lat="45.78198" lon="4.6778">
        <ele>404.3717041</ele>
        <time>2012-11-04T08:18:45Z</time>
      </trkpt>
      <trkpt lat="45.78192" lon="4.67759">
        <ele>403.8911133</ele>
        <time>2012-11-04T08:18:49Z</time>
      </trkpt>
      <trkpt lat="45.78194" lon="4.67735">
        <ele>402.4490967</ele>
        <time>2012-11-04T08:18:53Z</time>
      </trkpt>
      <trkpt lat="45.78198" lon="4.67719">
        <ele>402.9296875</ele>
        <time>2012-11-04T08:18:57Z</time>
      </trkpt>
      <trkpt lat="45.78201" lon="4.67709">
        <ele>405.3330078</ele>
        <time>2012-11-04T08:19:02Z</time>
      </trkpt>
      <trkpt lat="45.78207" lon="4.677">
        <ele>404.3717041</ele>
        <time>2012-11-04T08:19:05Z</time>
      </trkpt>
      <trkpt lat="45.78217" lon="4.67692">
        <ele>405.8137207</ele>
        <time>2012-11-04T08:19:11Z</time>
      </trkpt>
      <trkpt lat="45.78228" lon="4.67677">
        <ele>404.8522949</ele>
        <time>2012-11-04T08:19:16Z</time>
      </trkpt>
      <trkpt lat="45.78238" lon="4.67653">
        <ele>403.4104004</ele>
        <time>2012-11-04T08:19:22Z</time>
      </trkpt>
      <trkpt lat="45.78248" lon="4.6763">
        <ele>402.4490967</ele>
        <time>2012-11-04T08:19:29Z</time>
      </trkpt>
      <trkpt lat="45.78258" lon="4.67612">
        <ele>402.9296875</ele>
        <time>2012-11-04T08:19:35Z</time>
      </trkpt>
      <trkpt lat="45.78267" lon="4.67598">
        <ele>403.4104004</ele>
        <time>2012-11-04T08:19:40Z</time>
      </trkpt>
      <trkpt lat="45.78268" lon="4.67579">
        <ele>404.3717041</ele>
        <time>2012-11-04T08:19:46Z</time>
      </trkpt>
      <trkpt lat="45.78263" lon="4.67554">
        <ele>405.8137207</ele>
        <time>2012-11-04T08:19:57Z</time>
      </trkpt>
      <trkpt lat="45.78255" lon="4.67526">
        <ele>407.7363281</ele>
        <time>2012-11-04T08:20:11Z</time>
      </trkpt>
      <trkpt lat="45.78249" lon="4.67508">
        <ele>409.1783447</ele>
        <time>2012-11-04T08:20:21Z</time>
      </trkpt>
      <trkpt lat="45.78239" lon="4.67489">
        <ele>411.1009521</ele>
        <time>2012-11-04T08:20:32Z</time>
      </trkpt>
      <trkpt lat="45.78231" lon="4.67476">
        <ele>413.5042725</ele>
        <time>2012-11-04T08:20:40Z</time>
      </trkpt>
      <trkpt lat="45.78224" lon="4.67466">
        <ele>416.3881836</ele>
        <time>2012-11-04T08:20:47Z</time>
      </trkpt>
      <trkpt lat="45.78217" lon="4.67458">
        <ele>417.8302002</ele>
        <time>2012-11-04T08:20:54Z</time>
      </trkpt>
      <trkpt lat="45.78213" lon="4.67453">
        <ele>418.7915039</ele>
        <time>2012-11-04T08:20:57Z</time>
      </trkpt>
      <trkpt lat="45.78208" lon="4.67439">
        <ele>419.7528076</ele>
        <time>2012-11-04T08:21:04Z</time>
      </trkpt>
      <trkpt lat="45.78198" lon="4.67425">
        <ele>419.2722168</ele>
        <time>2012-11-04T08:21:12Z</time>
      </trkpt>
      <trkpt lat="45.78187" lon="4.67409">
        <ele>418.310791</ele>
        <time>2012-11-04T08:21:21Z</time>
      </trkpt>
      <trkpt lat="45.78175" lon="4.67396">
        <ele>418.7915039</ele>
        <time>2012-11-04T08:21:29Z</time>
      </trkpt>
      <trkpt lat="45.78166" lon="4.67386">
        <ele>419.7528076</ele>
        <time>2012-11-04T08:21:35Z</time>
      </trkpt>
      <trkpt lat="45.78156" lon="4.6738">
        <ele>420.7141113</ele>
        <time>2012-11-04T08:21:41Z</time>
      </trkpt>
      <trkpt lat="45.78143" lon="4.67371">
        <ele>421.1948242</ele>
        <time>2012-11-04T08:21:48Z</time>
      </trkpt>
      <trkpt lat="45.78128" lon="4.67359">
        <ele>421.675415</ele>
        <time>2012-11-04T08:21:56Z</time>
      </trkpt>
      <trkpt lat="45.78113" lon="4.67347">
        <ele>423.5980225</ele>
        <time>2012-11-04T08:22:04Z</time>
      </trkpt>
      <trkpt lat="45.78098" lon="4.67336">
        <ele>425.0401611</ele>
        <time>2012-11-04T08:22:12Z</time>
      </trkpt>
      <trkpt lat="45.78083" lon="4.67323">
        <ele>429.3659668</ele>
        <time>2012-11-04T08:22:21Z</time>
      </trkpt>
      <trkpt lat="45.78076" lon="4.67318">
        <ele>429.8465576</ele>
        <time>2012-11-04T08:22:28Z</time>
      </trkpt>
      <trkpt lat="45.78055" lon="4.67296">
        <ele>422.3945313</ele>
      </trkpt>
      <trkpt lat="45.78016" lon="4.67267">
        <ele>421.7617188</ele>
      </trkpt>
      <trkpt lat="45.77991" lon="4.67249">
        <ele>421.3242188</ele>
      </trkpt>
      <trkpt lat="45.77933" lon="4.67222">
        <ele>422.5</ele>
      </trkpt>
      <trkpt lat="45.77842" lon="4.6718">
        <ele>423.2578125</ele>
      </trkpt>
      <trkpt lat="45.7783" lon="4.6707">
        <ele>424.1328125</ele>
      </trkpt>
      <trkpt lat="45.77814" lon="4.66938">
        <ele>427.2773438</ele>
      </trkpt>
      <trkpt lat="45.77807" lon="4.66848">
        <ele>429.2148438</ele>
      </trkpt>
      <trkpt lat="45.77806" lon="4.66848">
        <ele>429.2148438</ele>
      </trkpt>
      <trkpt lat="45.77807" lon="4.66807">
        <ele>431.0351563</ele>
      </trkpt>
      <trkpt lat="45.77805" lon="4.66757">
        <ele>442.8244629</ele>
        <time>2012-11-04T08:28:57Z</time>
      </trkpt>
      <trkpt lat="45.77802" lon="4.66738">
        <ele>444.7470703</ele>
        <time>2012-11-04T08:29:06Z</time>
      </trkpt>
      <trkpt lat="45.77799" lon="4.66725">
        <ele>444.2664795</ele>
        <time>2012-11-04T08:29:13Z</time>
      </trkpt>
      <trkpt lat="45.77794" lon="4.66704">
        <ele>443.3050537</ele>
        <time>2012-11-04T08:29:23Z</time>
      </trkpt>
      <trkpt lat="45.7779" lon="4.66688">
        <ele>447.1502686</ele>
        <time>2012-11-04T08:29:32Z</time>
      </trkpt>
      <trkpt lat="45.77788" lon="4.66671">
        <ele>447.6309814</ele>
        <time>2012-11-04T08:29:41Z</time>
      </trkpt>
      <trkpt lat="45.77785" lon="4.6665">
        <ele>448.5924072</ele>
        <time>2012-11-04T08:29:51Z</time>
      </trkpt>
      <trkpt lat="45.77779" lon="4.66629">
        <ele>445.2276611</ele>
        <time>2012-11-04T08:30:01Z</time>
      </trkpt>
      <trkpt lat="45.77773" lon="4.6661">
        <ele>442.8244629</ele>
        <time>2012-11-04T08:30:09Z</time>
      </trkpt>
      <trkpt lat="45.77778" lon="4.66598">
        <ele>447.6309814</ele>
        <time>2012-11-04T08:30:16Z</time>
      </trkpt>
      <trkpt lat="45.77787" lon="4.666">
        <ele>450.0344238</ele>
        <time>2012-11-04T08:30:22Z</time>
      </trkpt>
      <trkpt lat="45.77796" lon="4.66612">
        <ele>449.5537109</ele>
        <time>2012-11-04T08:30:30Z</time>
      </trkpt>
      <trkpt lat="45.77808" lon="4.66619">
        <ele>453.8796387</ele>
        <time>2012-11-04T08:30:38Z</time>
      </trkpt>
      <trkpt lat="45.77818" lon="4.66616">
        <ele>457.2442627</ele>
        <time>2012-11-04T08:30:45Z</time>
      </trkpt>
      <trkpt lat="45.77828" lon="4.66612">
        <ele>461.0894775</ele>
        <time>2012-11-04T08:30:52Z</time>
      </trkpt>
      <trkpt lat="45.77839" lon="4.66612">
        <ele>466.8574219</ele>
        <time>2012-11-04T08:31:00Z</time>
      </trkpt>
      <trkpt lat="45.77851" lon="4.66618">
        <ele>473.1060791</ele>
        <time>2012-11-04T08:31:09Z</time>
      </trkpt>
      <trkpt lat="45.77863" lon="4.66621">
        <ele>480.7966309</ele>
        <time>2012-11-04T08:31:19Z</time>
      </trkpt>
      <trkpt lat="45.77875" lon="4.66623">
        <ele>488.9677734</ele>
        <time>2012-11-04T08:31:28Z</time>
      </trkpt>
      <trkpt lat="45.77886" lon="4.66623">
        <ele>488.0064697</ele>
        <time>2012-11-04T08:31:35Z</time>
      </trkpt>
      <trkpt lat="45.77897" lon="4.66622">
        <ele>487.5256348</ele>
        <time>2012-11-04T08:31:44Z</time>
      </trkpt>
      <trkpt lat="45.77903" lon="4.66614">
        <ele>480.315918</ele>
        <time>2012-11-04T08:31:51Z</time>
      </trkpt>
      <trkpt lat="45.77911" lon="4.66607">
        <ele>478.8739014</ele>
        <time>2012-11-04T08:31:59Z</time>
      </trkpt>
      <trkpt lat="45.77917" lon="4.66597">
        <ele>480.7966309</ele>
        <time>2012-11-04T08:32:07Z</time>
      </trkpt>
      <trkpt lat="45.77919" lon="4.66593">
        <ele>479.835083</ele>
        <time>2012-11-04T08:32:14Z</time>
      </trkpt>
      <trkpt lat="45.77922" lon="4.66588">
        <ele>476.4705811</ele>
        <time>2012-11-04T08:32:21Z</time>
      </trkpt>
      <trkpt lat="45.77924" lon="4.66585">
        <ele>475.0286865</ele>
        <time>2012-11-04T08:32:26Z</time>
      </trkpt>
      <trkpt lat="45.77927" lon="4.66581">
        <ele>475.5092773</ele>
        <time>2012-11-04T08:32:31Z</time>
      </trkpt>
      <trkpt lat="45.77929" lon="4.66579">
        <ele>471.1833496</ele>
        <time>2012-11-04T08:32:36Z</time>
      </trkpt>
      <trkpt lat="45.77935" lon="4.66575">
        <ele>472.6253662</ele>
        <time>2012-11-04T08:32:43Z</time>
      </trkpt>
      <trkpt lat="45.77938" lon="4.66571">
        <ele>472.6253662</ele>
        <time>2012-11-04T08:32:49Z</time>
      </trkpt>
      <trkpt lat="45.77945" lon="4.66564">
        <ele>472.1446533</ele>
        <time>2012-11-04T08:32:55Z</time>
      </trkpt>
      <trkpt lat="45.77951" lon="4.66548">
        <ele>473.5866699</ele>
        <time>2012-11-04T08:33:03Z</time>
      </trkpt>
      <trkpt lat="45.77955" lon="4.66538">
        <ele>471.6639404</ele>
        <time>2012-11-04T08:33:08Z</time>
      </trkpt>
      <trkpt lat="45.7796" lon="4.66517">
        <ele>475.9898682</ele>
        <time>2012-11-04T08:33:18Z</time>
      </trkpt>
      <trkpt lat="45.77963" lon="4.66503">
        <ele>476.4705811</ele>
        <time>2012-11-04T08:33:24Z</time>
      </trkpt>
      <trkpt lat="45.77963" lon="4.66494">
        <ele>475.9898682</ele>
        <time>2012-11-04T08:33:29Z</time>
      </trkpt>
      <trkpt lat="45.77961" lon="4.66472">
        <ele>474.5479736</ele>
        <time>2012-11-04T08:33:40Z</time>
      </trkpt>
      <trkpt lat="45.7796" lon="4.66459">
        <ele>482.2385254</ele>
        <time>2012-11-04T08:33:46Z</time>
      </trkpt>
      <trkpt lat="45.7796" lon="4.66451">
        <ele>489.9290771</ele>
        <time>2012-11-04T08:33:51Z</time>
      </trkpt>
      <trkpt lat="45.77958" lon="4.66441">
        <ele>491.3709717</ele>
        <time>2012-11-04T08:33:57Z</time>
      </trkpt>
      <trkpt lat="45.77957" lon="4.66437">
        <ele>489.9290771</ele>
        <time>2012-11-04T08:33:59Z</time>
      </trkpt>
      <trkpt lat="45.77956" lon="4.66433">
        <ele>488.4871826</ele>
        <time>2012-11-04T08:34:01Z</time>
      </trkpt>
      <trkpt lat="45.77951" lon="4.66411">
        <ele>497.6196289</ele>
        <time>2012-11-04T08:34:09Z</time>
      </trkpt>
      <trkpt lat="45.7795" lon="4.66399">
        <ele>502.4261475</ele>
        <time>2012-11-04T08:34:15Z</time>
      </trkpt>
      <trkpt lat="45.77942" lon="4.66378">
        <ele>505.3101807</ele>
        <time>2012-11-04T08:34:22Z</time>
      </trkpt>
      <trkpt lat="45.77942" lon="4.66356">
        <ele>504.8294678</ele>
        <time>2012-11-04T08:34:29Z</time>
      </trkpt>
      <trkpt lat="45.77942" lon="4.66335">
        <ele>507.2327881</ele>
        <time>2012-11-04T08:34:36Z</time>
      </trkpt>
      <trkpt lat="45.77938" lon="4.66311">
        <ele>505.7908936</ele>
        <time>2012-11-04T08:34:42Z</time>
      </trkpt>
      <trkpt lat="45.77938" lon="4.66287">
        <ele>501.9455566</ele>
        <time>2012-11-04T08:34:49Z</time>
      </trkpt>
      <trkpt lat="45.77938" lon="4.66266">
        <ele>498.1003418</ele>
        <time>2012-11-04T08:34:56Z</time>
      </trkpt>
      <trkpt lat="45.77942" lon="4.66249">
        <ele>494.2550049</ele>
        <time>2012-11-04T08:35:01Z</time>
      </trkpt>
      <trkpt lat="45.77947" lon="4.66229">
        <ele>494.2550049</ele>
        <time>2012-11-04T08:35:06Z</time>
      </trkpt>
      <trkpt lat="45.77956" lon="4.66204">
        <ele>491.3709717</ele>
        <time>2012-11-04T08:35:13Z</time>
      </trkpt>
      <trkpt lat="45.77958" lon="4.6619">
        <ele>491.8516846</ele>
        <time>2012-11-04T08:35:18Z</time>
      </trkpt>
      <trkpt lat="45.77959" lon="4.66179">
        <ele>491.8516846</ele>
        <time>2012-11-04T08:35:24Z</time>
      </trkpt>
      <trkpt lat="45.77957" lon="4.66165">
        <ele>494.7355957</ele>
        <time>2012-11-04T08:35:31Z</time>
      </trkpt>
      <trkpt lat="45.77952" lon="4.6615">
        <ele>493.2935791</ele>
        <time>2012-11-04T08:35:38Z</time>
      </trkpt>
      <trkpt lat="45.7795" lon="4.66152">
        <ele>496.1777344</ele>
        <time>2012-11-04T08:35:43Z</time>
      </trkpt>
      <trkpt lat="45.7795" lon="4.66154">
        <ele>498.5809326</ele>
        <time>2012-11-04T08:35:44Z</time>
      </trkpt>
      <trkpt lat="45.77955" lon="4.66156">
        <ele>511.0780029</ele>
        <time>2012-11-04T08:35:50Z</time>
      </trkpt>
      <trkpt lat="45.77952" lon="4.66153">
        <ele>510.1166992</ele>
        <time>2012-11-04T08:35:58Z</time>
      </trkpt>
      <trkpt lat="45.77951" lon="4.66146">
        <ele>507.2327881</ele>
        <time>2012-11-04T08:36:03Z</time>
      </trkpt>
      <trkpt lat="45.77949" lon="4.66135">
        <ele>505.7908936</ele>
        <time>2012-11-04T08:36:12Z</time>
      </trkpt>
      <trkpt lat="45.77951" lon="4.6613">
        <ele>508.1940918</ele>
        <time>2012-11-04T08:36:19Z</time>
      </trkpt>
      <trkpt lat="45.7795" lon="4.66122">
        <ele>505.7908936</ele>
        <time>2012-11-04T08:36:25Z</time>
      </trkpt>
      <trkpt lat="45.7795" lon="4.66117">
        <ele>508.1940918</ele>
        <time>2012-11-04T08:36:31Z</time>
      </trkpt>
      <trkpt lat="45.7795" lon="4.66113">
        <ele>510.1166992</ele>
        <time>2012-11-04T08:36:36Z</time>
      </trkpt>
      <trkpt lat="45.77946" lon="4.66106">
        <ele>508.6746826</ele>
        <time>2012-11-04T08:36:42Z</time>
      </trkpt>
      <trkpt lat="45.77944" lon="4.66099">
        <ele>507.2327881</ele>
        <time>2012-11-04T08:36:49Z</time>
      </trkpt>
      <trkpt lat="45.77943" lon="4.66093">
        <ele>505.3101807</ele>
        <time>2012-11-04T08:36:54Z</time>
      </trkpt>
      <trkpt lat="45.77941" lon="4.66086">
        <ele>504.348877</ele>
        <time>2012-11-04T08:37:00Z</time>
      </trkpt>
      <trkpt lat="45.77941" lon="4.66081">
        <ele>506.2714844</ele>
        <time>2012-11-04T08:37:05Z</time>
      </trkpt>
      <trkpt lat="45.77939" lon="4.66072">
        <ele>507.713501</ele>
        <time>2012-11-04T08:37:13Z</time>
      </trkpt>
      <trkpt lat="45.77936" lon="4.66062">
        <ele>510.59729</ele>
        <time>2012-11-04T08:37:21Z</time>
      </trkpt>
      <trkpt lat="45.77932" lon="4.66057">
        <ele>508.6746826</ele>
        <time>2012-11-04T08:37:28Z</time>
      </trkpt>
      <trkpt lat="45.7793" lon="4.6605">
        <ele>511.5587158</ele>
        <time>2012-11-04T08:37:34Z</time>
      </trkpt>
      <trkpt lat="45.77927" lon="4.66045">
        <ele>512.0394287</ele>
        <time>2012-11-04T08:37:40Z</time>
      </trkpt>
      <trkpt lat="45.77927" lon="4.66039">
        <ele>511.5587158</ele>
        <time>2012-11-04T08:37:46Z</time>
      </trkpt>
      <trkpt lat="45.77925" lon="4.66035">
        <ele>512.0394287</ele>
        <time>2012-11-04T08:37:49Z</time>
      </trkpt>
      <trkpt lat="45.77922" lon="4.66027">
        <ele>515.8846436</ele>
        <time>2012-11-04T08:37:53Z</time>
      </trkpt>
      <trkpt lat="45.77912" lon="4.66008">
        <ele>521.6525879</ele>
        <time>2012-11-04T08:37:59Z</time>
      </trkpt>
      <trkpt lat="45.77899" lon="4.65989">
        <ele>522.1331787</ele>
        <time>2012-11-04T08:38:06Z</time>
      </trkpt>
      <trkpt lat="45.7789" lon="4.65973">
        <ele>525.9783936</ele>
        <time>2012-11-04T08:38:12Z</time>
      </trkpt>
      <trkpt lat="45.7788" lon="4.65956">
        <ele>522.1331787</ele>
        <time>2012-11-04T08:38:17Z</time>
      </trkpt>
      <trkpt lat="45.77873" lon="4.6594">
        <ele>523.5751953</ele>
        <time>2012-11-04T08:38:22Z</time>
      </trkpt>
      <trkpt lat="45.77871" lon="4.65934">
        <ele>521.6525879</ele>
        <time>2012-11-04T08:38:24Z</time>
      </trkpt>
      <trkpt lat="45.77875" lon="4.65915">
        <ele>519.2492676</ele>
        <time>2012-11-04T08:38:29Z</time>
      </trkpt>
      <trkpt lat="45.7788" lon="4.65895">
        <ele>519.7298584</ele>
        <time>2012-11-04T08:38:35Z</time>
      </trkpt>
      <trkpt lat="45.77886" lon="4.65879">
        <ele>513.4814453</ele>
        <time>2012-11-04T08:38:41Z</time>
      </trkpt>
      <trkpt lat="45.77889" lon="4.65857">
        <ele>512.0394287</ele>
        <time>2012-11-04T08:38:49Z</time>
      </trkpt>
      <trkpt lat="45.7789" lon="4.65843">
        <ele>508.6746826</ele>
        <time>2012-11-04T08:38:55Z</time>
      </trkpt>
      <trkpt lat="45.77889" lon="4.65818">
        <ele>507.2327881</ele>
        <time>2012-11-04T08:39:02Z</time>
      </trkpt>
      <trkpt lat="45.77886" lon="4.65805">
        <ele>501.4648438</ele>
        <time>2012-11-04T08:39:07Z</time>
      </trkpt>
      <trkpt lat="45.77884" lon="4.65797">
        <ele>498.1003418</ele>
        <time>2012-11-04T08:39:13Z</time>
      </trkpt>
      <trkpt lat="45.77878" lon="4.65788">
        <ele>494.2550049</ele>
        <time>2012-11-04T08:39:17Z</time>
      </trkpt>
      <trkpt lat="45.77868" lon="4.65768">
        <ele>493.774292</ele>
        <time>2012-11-04T08:39:26Z</time>
      </trkpt>
      <trkpt lat="45.77861" lon="4.65756">
        <ele>504.8294678</ele>
        <time>2012-11-04T08:39:32Z</time>
      </trkpt>
      <trkpt lat="45.77861" lon="4.65753">
        <ele>505.3101807</ele>
        <time>2012-11-04T08:39:35Z</time>
      </trkpt>
      <trkpt lat="45.77858" lon="4.65739">
        <ele>502.9067383</ele>
        <time>2012-11-04T08:39:41Z</time>
      </trkpt>
      <trkpt lat="45.77854" lon="4.65732">
        <ele>500.9841309</ele>
        <time>2012-11-04T08:39:44Z</time>
      </trkpt>
      <trkpt lat="45.77858" lon="4.65718">
        <ele>508.1940918</ele>
        <time>2012-11-04T08:39:51Z</time>
      </trkpt>
      <trkpt lat="45.77861" lon="4.65708">
        <ele>511.0780029</ele>
        <time>2012-11-04T08:39:57Z</time>
      </trkpt>
      <trkpt lat="45.77868" lon="4.657">
        <ele>518.2878418</ele>
        <time>2012-11-04T08:40:03Z</time>
      </trkpt>
      <trkpt lat="45.7787" lon="4.657">
        <ele>528.8625488</ele>
        <time>2012-11-04T08:40:05Z</time>
      </trkpt>
      <trkpt lat="45.77878" lon="4.65691">
        <ele>533.1883545</ele>
        <time>2012-11-04T08:40:10Z</time>
      </trkpt>
      <trkpt lat="45.77891" lon="4.65672">
        <ele>539.4368896</ele>
        <time>2012-11-04T08:40:18Z</time>
      </trkpt>
      <trkpt lat="45.77894" lon="4.65663">
        <ele>537.0336914</ele>
        <time>2012-11-04T08:40:23Z</time>
      </trkpt>
      <trkpt lat="45.77895" lon="4.65662">
        <ele>539.4368896</ele>
        <time>2012-11-04T08:40:25Z</time>
      </trkpt>
      <trkpt lat="45.77897" lon="4.65656">
        <ele>540.8789063</ele>
        <time>2012-11-04T08:40:29Z</time>
      </trkpt>
      <trkpt lat="45.77903" lon="4.65639">
        <ele>538.475708</ele>
        <time>2012-11-04T08:40:36Z</time>
      </trkpt>
      <trkpt lat="45.77907" lon="4.65634">
        <ele>539.4368896</ele>
        <time>2012-11-04T08:40:40Z</time>
      </trkpt>
      <trkpt lat="45.77911" lon="4.6562">
        <ele>543.7628174</ele>
        <time>2012-11-04T08:40:47Z</time>
      </trkpt>
      <trkpt lat="45.77914" lon="4.65611">
        <ele>542.3209229</ele>
        <time>2012-11-04T08:40:52Z</time>
      </trkpt>
      <trkpt lat="45.77919" lon="4.65593">
        <ele>540.3983154</ele>
        <time>2012-11-04T08:40:59Z</time>
      </trkpt>
      <trkpt lat="45.77921" lon="4.65588">
        <ele>540.8789063</ele>
        <time>2012-11-04T08:41:01Z</time>
      </trkpt>
      <trkpt lat="45.77928" lon="4.65566">
        <ele>537.9949951</ele>
        <time>2012-11-04T08:41:09Z</time>
      </trkpt>
      <trkpt lat="45.77932" lon="4.65555">
        <ele>538.475708</ele>
        <time>2012-11-04T08:41:13Z</time>
      </trkpt>
      <trkpt lat="45.77932" lon="4.65535">
        <ele>534.1496582</ele>
        <time>2012-11-04T08:41:21Z</time>
      </trkpt>
      <trkpt lat="45.77932" lon="4.65517">
        <ele>532.7077637</ele>
        <time>2012-11-04T08:41:26Z</time>
      </trkpt>
      <trkpt lat="45.77932" lon="4.655">
        <ele>531.7463379</ele>
        <time>2012-11-04T08:41:32Z</time>
      </trkpt>
      <trkpt lat="45.7793" lon="4.6548">
        <ele>536.5531006</ele>
        <time>2012-11-04T08:41:40Z</time>
      </trkpt>
      <trkpt lat="45.77929" lon="4.65467">
        <ele>537.5142822</ele>
        <time>2012-11-04T08:41:46Z</time>
      </trkpt>
      <trkpt lat="45.77931" lon="4.6546">
        <ele>542.8015137</ele>
        <time>2012-11-04T08:41:48Z</time>
      </trkpt>
      <trkpt lat="45.77933" lon="4.65447">
        <ele>547.6081543</ele>
        <time>2012-11-04T08:41:55Z</time>
      </trkpt>
      <trkpt lat="45.77935" lon="4.65432">
        <ele>555.298584</ele>
        <time>2012-11-04T08:42:02Z</time>
      </trkpt>
      <trkpt lat="45.77935" lon="4.65427">
        <ele>552.4145508</ele>
        <time>2012-11-04T08:42:04Z</time>
      </trkpt>
      <trkpt lat="45.77939" lon="4.65412">
        <ele>559.6247559</ele>
        <time>2012-11-04T08:42:11Z</time>
      </trkpt>
      <trkpt lat="45.77939" lon="4.65408">
        <ele>561.0666504</ele>
        <time>2012-11-04T08:42:13Z</time>
      </trkpt>
      <trkpt lat="45.77938" lon="4.65401">
        <ele>571.1604004</ele>
        <time>2012-11-04T08:42:19Z</time>
      </trkpt>
      <trkpt lat="45.77936" lon="4.654">
        <ele>569.7185059</ele>
        <time>2012-11-04T08:42:20Z</time>
      </trkpt>
      <trkpt lat="45.77932" lon="4.65395">
        <ele>561.0666504</ele>
        <time>2012-11-04T08:42:28Z</time>
      </trkpt>
      <trkpt lat="45.77932" lon="4.65387">
        <ele>556.2600098</ele>
        <time>2012-11-04T08:42:39Z</time>
      </trkpt>
      <trkpt lat="45.77936" lon="4.6538">
        <ele>552.4145508</ele>
        <time>2012-11-04T08:42:45Z</time>
      </trkpt>
      <trkpt lat="45.77937" lon="4.65377">
        <ele>547.6081543</ele>
        <time>2012-11-04T08:42:50Z</time>
      </trkpt>
      <trkpt lat="45.77937" lon="4.65373">
        <ele>548.0888672</ele>
        <time>2012-11-04T08:42:55Z</time>
      </trkpt>
      <trkpt lat="45.77937" lon="4.65363">
        <ele>547.1274414</ele>
        <time>2012-11-04T08:43:05Z</time>
      </trkpt>
      <trkpt lat="45.77938" lon="4.65359">
        <ele>546.1662598</ele>
        <time>2012-11-04T08:43:11Z</time>
      </trkpt>
      <trkpt lat="45.77944" lon="4.6535">
        <ele>552.8952637</ele>
        <time>2012-11-04T08:43:17Z</time>
      </trkpt>
      <trkpt lat="45.77951" lon="4.65346">
        <ele>559.6247559</ele>
        <time>2012-11-04T08:43:23Z</time>
      </trkpt>
      <trkpt lat="45.77953" lon="4.65345">
        <ele>564.4311523</ele>
        <time>2012-11-04T08:43:29Z</time>
      </trkpt>
      <trkpt lat="45.77957" lon="4.65348">
        <ele>566.3537598</ele>
        <time>2012-11-04T08:43:36Z</time>
      </trkpt>
      <trkpt lat="45.77963" lon="4.65351">
        <ele>567.3151855</ele>
        <time>2012-11-04T08:43:44Z</time>
      </trkpt>
      <trkpt lat="45.77967" lon="4.65352">
        <ele>562.0280762</ele>
        <time>2012-11-04T08:43:51Z</time>
      </trkpt>
      <trkpt lat="45.77969" lon="4.65353">
        <ele>565.3925781</ele>
        <time>2012-11-04T08:43:57Z</time>
      </trkpt>
      <trkpt lat="45.77969" lon="4.6535">
        <ele>566.3537598</ele>
        <time>2012-11-04T08:44:02Z</time>
      </trkpt>
      <trkpt lat="45.77975" lon="4.65339">
        <ele>565.873291</ele>
        <time>2012-11-04T08:44:12Z</time>
      </trkpt>
      <trkpt lat="45.77977" lon="4.65334">
        <ele>559.144043</ele>
        <time>2012-11-04T08:44:17Z</time>
      </trkpt>
      <trkpt lat="45.77979" lon="4.65329">
        <ele>563.4699707</ele>
        <time>2012-11-04T08:44:24Z</time>
      </trkpt>
      <trkpt lat="45.77985" lon="4.65318">
        <ele>562.9892578</ele>
        <time>2012-11-04T08:44:33Z</time>
      </trkpt>
      <trkpt lat="45.77986" lon="4.65321">
        <ele>565.3925781</ele>
        <time>2012-11-04T08:44:39Z</time>
      </trkpt>
      <trkpt lat="45.77986" lon="4.65319">
        <ele>555.7792969</ele>
        <time>2012-11-04T08:44:50Z</time>
      </trkpt>
      <trkpt lat="45.77989" lon="4.65316">
        <ele>556.2600098</ele>
        <time>2012-11-04T08:45:01Z</time>
      </trkpt>
      <trkpt lat="45.77991" lon="4.65316">
        <ele>556.7407227</ele>
        <time>2012-11-04T08:45:07Z</time>
      </trkpt>
      <trkpt lat="45.77993" lon="4.65316">
        <ele>553.3759766</ele>
        <time>2012-11-04T08:45:29Z</time>
      </trkpt>
      <trkpt lat="45.77996" lon="4.6531">
        <ele>557.2214355</ele>
        <time>2012-11-04T08:45:35Z</time>
      </trkpt>
      <trkpt lat="45.77997" lon="4.65306">
        <ele>560.1052246</ele>
        <time>2012-11-04T08:45:39Z</time>
      </trkpt>
      <trkpt lat="45.78001" lon="4.65293">
        <ele>558.1828613</ele>
        <time>2012-11-04T08:45:46Z</time>
      </trkpt>
      <trkpt lat="45.78001" lon="4.65283">
        <ele>553.8566895</ele>
        <time>2012-11-04T08:45:52Z</time>
      </trkpt>
      <trkpt lat="45.78005" lon="4.6527">
        <ele>555.298584</ele>
        <time>2012-11-04T08:45:58Z</time>
      </trkpt>
      <trkpt lat="45.78011" lon="4.65256">
        <ele>555.7792969</ele>
        <time>2012-11-04T08:46:06Z</time>
      </trkpt>
      <trkpt lat="45.78016" lon="4.6525">
        <ele>565.873291</ele>
        <time>2012-11-04T08:46:12Z</time>
      </trkpt>
      <trkpt lat="45.78024" lon="4.65242">
        <ele>567.3151855</ele>
        <time>2012-11-04T08:46:19Z</time>
      </trkpt>
      <trkpt lat="45.78031" lon="4.65234">
        <ele>570.1989746</ele>
        <time>2012-11-04T08:46:26Z</time>
      </trkpt>
      <trkpt lat="45.78041" lon="4.65221">
        <ele>574.5251465</ele>
        <time>2012-11-04T08:46:33Z</time>
      </trkpt>
      <trkpt lat="45.78044" lon="4.6521">
        <ele>573.5639648</ele>
        <time>2012-11-04T08:46:40Z</time>
      </trkpt>
      <trkpt lat="45.78045" lon="4.65207">
        <ele>572.1218262</ele>
        <time>2012-11-04T08:46:43Z</time>
      </trkpt>
      <trkpt lat="45.78057" lon="4.65196">
        <ele>572.6025391</ele>
        <time>2012-11-04T08:46:51Z</time>
      </trkpt>
      <trkpt lat="45.78063" lon="4.65188">
        <ele>573.083252</ele>
        <time>2012-11-04T08:46:58Z</time>
      </trkpt>
      <trkpt lat="45.7807" lon="4.65182">
        <ele>575.4863281</ele>
        <time>2012-11-04T08:47:05Z</time>
      </trkpt>
      <trkpt lat="45.78079" lon="4.65174">
        <ele>575.967041</ele>
        <time>2012-11-04T08:47:12Z</time>
      </trkpt>
      <trkpt lat="45.7809" lon="4.65162">
        <ele>574.5251465</ele>
        <time>2012-11-04T08:47:19Z</time>
      </trkpt>
      <trkpt lat="45.78096" lon="4.65157">
        <ele>572.6025391</ele>
        <time>2012-11-04T08:47:24Z</time>
      </trkpt>
      <trkpt lat="45.78107" lon="4.65147">
        <ele>571.1604004</ele>
        <time>2012-11-04T08:47:31Z</time>
      </trkpt>
      <trkpt lat="45.78116" lon="4.65138">
        <ele>572.6025391</ele>
        <time>2012-11-04T08:47:36Z</time>
      </trkpt>
      <trkpt lat="45.78118" lon="4.65134">
        <ele>574.0444336</ele>
        <time>2012-11-04T08:47:39Z</time>
      </trkpt>
      <trkpt lat="45.78115" lon="4.65119">
        <ele>572.6025391</ele>
        <time>2012-11-04T08:47:45Z</time>
      </trkpt>
      <trkpt lat="45.78109" lon="4.65107">
        <ele>579.331543</ele>
        <time>2012-11-04T08:47:53Z</time>
      </trkpt>
      <trkpt lat="45.78108" lon="4.65099">
        <ele>584.6188965</ele>
        <time>2012-11-04T08:47:59Z</time>
      </trkpt>
      <trkpt lat="45.78106" lon="4.65087">
        <ele>587.0219727</ele>
        <time>2012-11-04T08:48:05Z</time>
      </trkpt>
      <trkpt lat="45.78102" lon="4.65082">
        <ele>586.5415039</ele>
        <time>2012-11-04T08:48:09Z</time>
      </trkpt>
      <trkpt lat="45.78094" lon="4.65078">
        <ele>585.0996094</ele>
        <time>2012-11-04T08:48:15Z</time>
      </trkpt>
      <trkpt lat="45.78093" lon="4.65076">
        <ele>585.0996094</ele>
        <time>2012-11-04T08:48:16Z</time>
      </trkpt>
      <trkpt lat="45.78094" lon="4.65062">
        <ele>590.8674316</ele>
        <time>2012-11-04T08:48:23Z</time>
      </trkpt>
      <trkpt lat="45.78094" lon="4.65057">
        <ele>588.9450684</ele>
        <time>2012-11-04T08:48:26Z</time>
      </trkpt>
      <trkpt lat="45.78097" lon="4.65052">
        <ele>587.5026855</ele>
        <time>2012-11-04T08:48:29Z</time>
      </trkpt>
      <trkpt lat="45.78098" lon="4.65041">
        <ele>583.6574707</ele>
        <time>2012-11-04T08:48:36Z</time>
      </trkpt>
      <trkpt lat="45.78105" lon="4.65031">
        <ele>586.060791</ele>
        <time>2012-11-04T08:48:42Z</time>
      </trkpt>
      <trkpt lat="45.78108" lon="4.65024">
        <ele>587.0219727</ele>
        <time>2012-11-04T08:48:49Z</time>
      </trkpt>
      <trkpt lat="45.78105" lon="4.6502">
        <ele>588.4643555</ele>
        <time>2012-11-04T08:48:54Z</time>
      </trkpt>
      <trkpt lat="45.78108" lon="4.65017">
        <ele>593.270752</ele>
        <time>2012-11-04T08:49:04Z</time>
      </trkpt>
      <trkpt lat="45.78113" lon="4.65012">
        <ele>597.5966797</ele>
        <time>2012-11-04T08:49:13Z</time>
      </trkpt>
      <trkpt lat="45.78115" lon="4.65008">
        <ele>595.1933594</ele>
        <time>2012-11-04T08:49:17Z</time>
      </trkpt>
      <trkpt lat="45.78116" lon="4.65003">
        <ele>594.2321777</ele>
        <time>2012-11-04T08:49:23Z</time>
      </trkpt>
      <trkpt lat="45.78118" lon="4.64998">
        <ele>594.7126465</ele>
        <time>2012-11-04T08:49:28Z</time>
      </trkpt>
      <trkpt lat="45.78121" lon="4.6499">
        <ele>585.0996094</ele>
        <time>2012-11-04T08:49:34Z</time>
      </trkpt>
      <trkpt lat="45.78124" lon="4.64982">
        <ele>579.8122559</ele>
        <time>2012-11-04T08:49:42Z</time>
      </trkpt>
      <trkpt lat="45.78129" lon="4.64974">
        <ele>584.1381836</ele>
        <time>2012-11-04T08:49:50Z</time>
      </trkpt>
      <trkpt lat="45.78131" lon="4.64964">
        <ele>587.0219727</ele>
        <time>2012-11-04T08:49:57Z</time>
      </trkpt>
      <trkpt lat="45.7813" lon="4.64961">
        <ele>588.4643555</ele>
        <time>2012-11-04T08:50:04Z</time>
      </trkpt>
      <trkpt lat="45.78134" lon="4.64961">
        <ele>587.0219727</ele>
        <time>2012-11-04T08:50:31Z</time>
      </trkpt>
      <trkpt lat="45.78135" lon="4.64956">
        <ele>585.0996094</ele>
        <time>2012-11-04T08:50:43Z</time>
      </trkpt>
      <trkpt lat="45.78134" lon="4.64957">
        <ele>584.6188965</ele>
        <time>2012-11-04T08:50:53Z</time>
      </trkpt>
      <trkpt lat="45.78133" lon="4.64959">
        <ele>585.0996094</ele>
        <time>2012-11-04T08:51:29Z</time>
      </trkpt>
      <trkpt lat="45.78134" lon="4.64957">
        <ele>585.5800781</ele>
        <time>2012-11-04T08:51:40Z</time>
      </trkpt>
      <trkpt lat="45.78138" lon="4.64953">
        <ele>585.5800781</ele>
        <time>2012-11-04T08:51:44Z</time>
      </trkpt>
      <trkpt lat="45.78144" lon="4.64938">
        <ele>587.9833984</ele>
        <time>2012-11-04T08:51:52Z</time>
      </trkpt>
      <trkpt lat="45.78151" lon="4.64923">
        <ele>586.060791</ele>
        <time>2012-11-04T08:52:00Z</time>
      </trkpt>
      <trkpt lat="45.78152" lon="4.64921">
        <ele>586.5415039</ele>
        <time>2012-11-04T08:52:01Z</time>
      </trkpt>
      <trkpt lat="45.78157" lon="4.64907">
        <ele>588.4643555</ele>
        <time>2012-11-04T08:52:10Z</time>
      </trkpt>
      <trkpt lat="45.78157" lon="4.64903">
        <ele>589.90625</ele>
        <time>2012-11-04T08:52:12Z</time>
      </trkpt>
      <trkpt lat="45.78162" lon="4.64892">
        <ele>594.2321777</ele>
        <time>2012-11-04T08:52:19Z</time>
      </trkpt>
      <trkpt lat="45.78168" lon="4.64878">
        <ele>601.9226074</ele>
        <time>2012-11-04T08:52:26Z</time>
      </trkpt>
      <trkpt lat="45.78171" lon="4.64865">
        <ele>597.1159668</ele>
        <time>2012-11-04T08:52:32Z</time>
      </trkpt>
      <trkpt lat="45.78173" lon="4.64851">
        <ele>601.4418945</ele>
        <time>2012-11-04T08:52:39Z</time>
      </trkpt>
      <trkpt lat="45.7817" lon="4.64836">
        <ele>604.8066406</ele>
        <time>2012-11-04T08:52:47Z</time>
      </trkpt>
      <trkpt lat="45.78171" lon="4.64824">
        <ele>608.6518555</ele>
        <time>2012-11-04T08:52:53Z</time>
      </trkpt>
      <trkpt lat="45.78171" lon="4.64807">
        <ele>616.822998</ele>
        <time>2012-11-04T08:53:02Z</time>
      </trkpt>
      <trkpt lat="45.78171" lon="4.64805">
        <ele>617.7841797</ele>
        <time>2012-11-04T08:53:03Z</time>
      </trkpt>
      <trkpt lat="45.78173" lon="4.64794">
        <ele>622.5910645</ele>
        <time>2012-11-04T08:53:10Z</time>
      </trkpt>
      <trkpt lat="45.78171" lon="4.64781">
        <ele>623.5524902</ele>
        <time>2012-11-04T08:53:17Z</time>
      </trkpt>
      <trkpt lat="45.78171" lon="4.64776">
        <ele>623.0717773</ele>
        <time>2012-11-04T08:53:20Z</time>
      </trkpt>
      <trkpt lat="45.7817" lon="4.64769">
        <ele>623.0717773</ele>
        <time>2012-11-04T08:53:23Z</time>
      </trkpt>
      <trkpt lat="45.78168" lon="4.64753">
        <ele>619.2263184</ele>
        <time>2012-11-04T08:53:31Z</time>
      </trkpt>
      <trkpt lat="45.78168" lon="4.6474">
        <ele>613.4584961</ele>
        <time>2012-11-04T08:53:37Z</time>
      </trkpt>
      <trkpt lat="45.78167" lon="4.64727">
        <ele>612.0166016</ele>
        <time>2012-11-04T08:53:43Z</time>
      </trkpt>
      <trkpt lat="45.78166" lon="4.64721">
        <ele>612.4970703</ele>
        <time>2012-11-04T08:53:46Z</time>
      </trkpt>
      <trkpt lat="45.78162" lon="4.64709">
        <ele>612.9777832</ele>
        <time>2012-11-04T08:53:53Z</time>
      </trkpt>
      <trkpt lat="45.78161" lon="4.64695">
        <ele>614.4196777</ele>
        <time>2012-11-04T08:54:00Z</time>
      </trkpt>
      <trkpt lat="45.78159" lon="4.64685">
        <ele>618.7456055</ele>
        <time>2012-11-04T08:54:06Z</time>
      </trkpt>
      <trkpt lat="45.78159" lon="4.64681">
        <ele>623.5524902</ele>
        <time>2012-11-04T08:54:08Z</time>
      </trkpt>
      <trkpt lat="45.78159" lon="4.64673">
        <ele>627.8781738</ele>
        <time>2012-11-04T08:54:12Z</time>
      </trkpt>
      <trkpt lat="45.78156" lon="4.64656">
        <ele>632.6848145</ele>
        <time>2012-11-04T08:54:20Z</time>
      </trkpt>
      <trkpt lat="45.78159" lon="4.64647">
        <ele>637.4914551</ele>
        <time>2012-11-04T08:54:27Z</time>
      </trkpt>
      <trkpt lat="45.78159" lon="4.64636">
        <ele>638.4528809</ele>
        <time>2012-11-04T08:54:32Z</time>
      </trkpt>
      <trkpt lat="45.78158" lon="4.64623">
        <ele>638.4528809</ele>
        <time>2012-11-04T08:54:39Z</time>
      </trkpt>
      <trkpt lat="45.78157" lon="4.64611">
        <ele>640.855957</ele>
        <time>2012-11-04T08:54:46Z</time>
      </trkpt>
      <trkpt lat="45.78157" lon="4.64595">
        <ele>637.4914551</ele>
        <time>2012-11-04T08:54:54Z</time>
      </trkpt>
      <trkpt lat="45.78155" lon="4.64572">
        <ele>630.762207</ele>
        <time>2012-11-04T08:55:02Z</time>
      </trkpt>
      <trkpt lat="45.78154" lon="4.64569">
        <ele>633.6459961</ele>
        <time>2012-11-04T08:55:06Z</time>
      </trkpt>
      <trkpt lat="45.78154" lon="4.64566">
        <ele>635.0881348</ele>
        <time>2012-11-04T08:55:11Z</time>
      </trkpt>
      <trkpt lat="45.78154" lon="4.64565">
        <ele>634.126709</ele>
        <time>2012-11-04T08:55:12Z</time>
      </trkpt>
      <trkpt lat="45.78166" lon="4.64563">
        <ele>630.762207</ele>
        <time>2012-11-04T08:55:19Z</time>
      </trkpt>
      <trkpt lat="45.78171" lon="4.64565">
        <ele>629.8007813</ele>
        <time>2012-11-04T08:55:24Z</time>
      </trkpt>
      <trkpt lat="45.78189" lon="4.64583">
        <ele>624.5136719</ele>
        <time>2012-11-04T08:55:30Z</time>
      </trkpt>
      <trkpt lat="45.78199" lon="4.64598">
        <ele>616.3422852</ele>
        <time>2012-11-04T08:55:34Z</time>
      </trkpt>
      <trkpt lat="45.78209" lon="4.64614">
        <ele>610.5744629</ele>
        <time>2012-11-04T08:55:40Z</time>
      </trkpt>
      <trkpt lat="45.78211" lon="4.64616">
        <ele>610.5744629</ele>
        <time>2012-11-04T08:55:42Z</time>
      </trkpt>
      <trkpt lat="45.78228" lon="4.64624">
        <ele>610.5744629</ele>
        <time>2012-11-04T08:55:48Z</time>
      </trkpt>
      <trkpt lat="45.78243" lon="4.64636">
        <ele>611.5358887</ele>
        <time>2012-11-04T08:55:54Z</time>
      </trkpt>
      <trkpt lat="45.78259" lon="4.6465">
        <ele>613.4584961</ele>
        <time>2012-11-04T08:56:00Z</time>
      </trkpt>
      <trkpt lat="45.78277" lon="4.64665">
        <ele>618.7456055</ele>
        <time>2012-11-04T08:56:06Z</time>
      </trkpt>
      <trkpt lat="45.78292" lon="4.64682">
        <ele>620.668457</ele>
        <time>2012-11-04T08:56:12Z</time>
      </trkpt>
      <trkpt lat="45.78308" lon="4.64707">
        <ele>627.3977051</ele>
        <time>2012-11-04T08:56:18Z</time>
      </trkpt>
      <trkpt lat="45.78322" lon="4.64722">
        <ele>632.6848145</ele>
        <time>2012-11-04T08:56:22Z</time>
      </trkpt>
      <trkpt lat="45.78331" lon="4.64742">
        <ele>627.8781738</ele>
        <time>2012-11-04T08:56:26Z</time>
      </trkpt>
      <trkpt lat="45.78346" lon="4.64759">
        <ele>621.1491699</ele>
        <time>2012-11-04T08:56:31Z</time>
      </trkpt>
      <trkpt lat="45.78357" lon="4.64774">
        <ele>615.3811035</ele>
        <time>2012-11-04T08:56:35Z</time>
      </trkpt>
      <trkpt lat="45.78369" lon="4.64799">
        <ele>614.4196777</ele>
        <time>2012-11-04T08:56:38Z</time>
      </trkpt>
      <trkpt lat="45.78378" lon="4.64833">
        <ele>611.5358887</ele>
        <time>2012-11-04T08:56:44Z</time>
      </trkpt>
      <trkpt lat="45.78382" lon="4.64864">
        <ele>616.3422852</ele>
        <time>2012-11-04T08:56:49Z</time>
      </trkpt>
      <trkpt lat="45.78384" lon="4.64889">
        <ele>620.1877441</ele>
        <time>2012-11-04T08:56:54Z</time>
      </trkpt>
      <trkpt lat="45.78386" lon="4.64902">
        <ele>620.668457</ele>
        <time>2012-11-04T08:56:56Z</time>
      </trkpt>
      <trkpt lat="45.78391" lon="4.64917">
        <ele>614.9003906</ele>
        <time>2012-11-04T08:57:02Z</time>
      </trkpt>
      <trkpt lat="45.7839" lon="4.64926">
        <ele>612.9777832</ele>
        <time>2012-11-04T08:57:05Z</time>
      </trkpt>
      <trkpt lat="45.78388" lon="4.64938">
        <ele>612.9777832</ele>
        <time>2012-11-04T08:57:10Z</time>
      </trkpt>
      <trkpt lat="45.78391" lon="4.64958">
        <ele>610.5744629</ele>
        <time>2012-11-04T08:57:16Z</time>
      </trkpt>
      <trkpt lat="45.78391" lon="4.6496">
        <ele>609.1325684</ele>
        <time>2012-11-04T08:57:17Z</time>
      </trkpt>
      <trkpt lat="45.78395" lon="4.64968">
        <ele>604.3261719</ele>
        <time>2012-11-04T08:57:21Z</time>
      </trkpt>
      <trkpt lat="45.78403" lon="4.64984">
        <ele>600</ele>
        <time>2012-11-04T08:57:27Z</time>
      </trkpt>
      <trkpt lat="45.78404" lon="4.64987">
        <ele>600.4807129</ele>
        <time>2012-11-04T08:57:28Z</time>
      </trkpt>
      <trkpt lat="45.78416" lon="4.64987">
        <ele>595.6740723</ele>
        <time>2012-11-04T08:57:34Z</time>
      </trkpt>
      <trkpt lat="45.78429" lon="4.64986">
        <ele>593.7514648</ele>
        <time>2012-11-04T08:57:38Z</time>
      </trkpt>
      <trkpt lat="45.78443" lon="4.64991">
        <ele>592.3095703</ele>
        <time>2012-11-04T08:57:42Z</time>
      </trkpt>
      <trkpt lat="45.78459" lon="4.64989">
        <ele>587.0219727</ele>
        <time>2012-11-04T08:57:48Z</time>
      </trkpt>
      <trkpt lat="45.78469" lon="4.64987">
        <ele>586.060791</ele>
        <time>2012-11-04T08:57:52Z</time>
      </trkpt>
      <trkpt lat="45.7849" lon="4.64991">
        <ele>587.5026855</ele>
        <time>2012-11-04T08:57:58Z</time>
      </trkpt>
      <trkpt lat="45.78508" lon="4.64986">
        <ele>590.8674316</ele>
        <time>2012-11-04T08:58:03Z</time>
      </trkpt>
      <trkpt lat="45.78524" lon="4.64977">
        <ele>593.7514648</ele>
        <time>2012-11-04T08:58:09Z</time>
      </trkpt>
      <trkpt lat="45.78543" lon="4.64976">
        <ele>596.1547852</ele>
        <time>2012-11-04T08:58:15Z</time>
      </trkpt>
      <trkpt lat="45.78561" lon="4.64989">
        <ele>601.4418945</ele>
        <time>2012-11-04T08:58:21Z</time>
      </trkpt>
      <trkpt lat="45.78572" lon="4.64991">
        <ele>600</ele>
        <time>2012-11-04T08:58:25Z</time>
      </trkpt>
      <trkpt lat="45.78589" lon="4.65">
        <ele>597.1159668</ele>
        <time>2012-11-04T08:58:31Z</time>
      </trkpt>
      <trkpt lat="45.78605" lon="4.65018">
        <ele>595.1933594</ele>
        <time>2012-11-04T08:58:37Z</time>
      </trkpt>
      <trkpt lat="45.78634" lon="4.65028">
        <ele>596.1547852</ele>
        <time>2012-11-04T08:58:44Z</time>
      </trkpt>
      <trkpt lat="45.78664" lon="4.65026">
        <ele>588.9450684</ele>
        <time>2012-11-04T08:58:51Z</time>
      </trkpt>
      <trkpt lat="45.78685" lon="4.65032">
        <ele>585.5800781</ele>
        <time>2012-11-04T08:58:55Z</time>
      </trkpt>
      <trkpt lat="45.78709" lon="4.65026">
        <ele>581.2543945</ele>
        <time>2012-11-04T08:59:00Z</time>
      </trkpt>
      <trkpt lat="45.78723" lon="4.65018">
        <ele>576.4477539</ele>
        <time>2012-11-04T08:59:04Z</time>
      </trkpt>
      <trkpt lat="45.78732" lon="4.65025">
        <ele>573.083252</ele>
        <time>2012-11-04T08:59:10Z</time>
      </trkpt>
      <trkpt lat="45.78737" lon="4.65027">
        <ele>563.4699707</ele>
        <time>2012-11-04T08:59:14Z</time>
      </trkpt>
      <trkpt lat="45.78745" lon="4.65033">
        <ele>557.7021484</ele>
        <time>2012-11-04T08:59:18Z</time>
      </trkpt>
      <trkpt lat="45.78769" lon="4.65061">
        <ele>560.5859375</ele>
        <time>2012-11-04T08:59:27Z</time>
      </trkpt>
      <trkpt lat="45.78785" lon="4.6508">
        <ele>564.9118652</ele>
        <time>2012-11-04T08:59:32Z</time>
      </trkpt>
      <trkpt lat="45.78791" lon="4.65097">
        <ele>568.2763672</ele>
        <time>2012-11-04T08:59:37Z</time>
      </trkpt>
      <trkpt lat="45.788" lon="4.65111">
        <ele>568.7570801</ele>
        <time>2012-11-04T08:59:42Z</time>
      </trkpt>
      <trkpt lat="45.78805" lon="4.65124">
        <ele>569.237793</ele>
        <time>2012-11-04T08:59:48Z</time>
      </trkpt>
      <trkpt lat="45.78813" lon="4.65135">
        <ele>564.4311523</ele>
        <time>2012-11-04T08:59:52Z</time>
      </trkpt>
      <trkpt lat="45.78825" lon="4.65159">
        <ele>557.7021484</ele>
        <time>2012-11-04T08:59:59Z</time>
      </trkpt>
      <trkpt lat="45.78832" lon="4.65166">
        <ele>553.8566895</ele>
        <time>2012-11-04T09:00:02Z</time>
      </trkpt>
      <trkpt lat="45.78847" lon="4.65171">
        <ele>547.6081543</ele>
        <time>2012-11-04T09:00:10Z</time>
      </trkpt>
      <trkpt lat="45.78863" lon="4.65183">
        <ele>544.7242432</ele>
        <time>2012-11-04T09:00:17Z</time>
      </trkpt>
      <trkpt lat="45.78879" lon="4.65197">
        <ele>542.3209229</ele>
        <time>2012-11-04T09:00:23Z</time>
      </trkpt>
      <trkpt lat="45.78899" lon="4.65217">
        <ele>544.2436523</ele>
        <time>2012-11-04T09:00:29Z</time>
      </trkpt>
      <trkpt lat="45.78913" lon="4.65232">
        <ele>542.3209229</ele>
        <time>2012-11-04T09:00:33Z</time>
      </trkpt>
      <trkpt lat="45.78933" lon="4.65275">
        <ele>539.4368896</ele>
        <time>2012-11-04T09:00:39Z</time>
      </trkpt>
      <trkpt lat="45.78939" lon="4.65286">
        <ele>537.0336914</ele>
        <time>2012-11-04T09:00:41Z</time>
      </trkpt>
      <trkpt lat="45.78953" lon="4.65323">
        <ele>533.1883545</ele>
        <time>2012-11-04T09:00:48Z</time>
      </trkpt>
      <trkpt lat="45.78964" lon="4.65347">
        <ele>529.8237305</ele>
        <time>2012-11-04T09:00:53Z</time>
      </trkpt>
      <trkpt lat="45.78975" lon="4.65373">
        <ele>528.8625488</ele>
        <time>2012-11-04T09:00:59Z</time>
      </trkpt>
      <trkpt lat="45.78977" lon="4.65382">
        <ele>526.4591064</ele>
        <time>2012-11-04T09:01:03Z</time>
      </trkpt>
      <trkpt lat="45.78983" lon="4.65397">
        <ele>528.3818359</ele>
        <time>2012-11-04T09:01:08Z</time>
      </trkpt>
      <trkpt lat="45.78983" lon="4.65405">
        <ele>530.3044434</ele>
        <time>2012-11-04T09:01:17Z</time>
      </trkpt>
      <trkpt lat="45.78986" lon="4.65405">
        <ele>531.7463379</ele>
        <time>2012-11-04T09:01:19Z</time>
      </trkpt>
      <trkpt lat="45.78985" lon="4.654">
        <ele>531.2657471</ele>
        <time>2012-11-04T09:01:22Z</time>
      </trkpt>
      <trkpt lat="45.78984" lon="4.65392">
        <ele>532.7077637</ele>
        <time>2012-11-04T09:01:28Z</time>
      </trkpt>
      <trkpt lat="45.78985" lon="4.65392">
        <ele>533.6689453</ele>
        <time>2012-11-04T09:01:38Z</time>
      </trkpt>
      <trkpt lat="45.78986" lon="4.65394">
        <ele>538.9562988</ele>
        <time>2012-11-04T09:01:43Z</time>
      </trkpt>
      <trkpt lat="45.78985" lon="4.65393">
        <ele>539.4368896</ele>
        <time>2012-11-04T09:01:50Z</time>
      </trkpt>
      <trkpt lat="45.78985" lon="4.65384">
        <ele>537.0336914</ele>
        <time>2012-11-04T09:01:56Z</time>
      </trkpt>
      <trkpt lat="45.78989" lon="4.65375">
        <ele>533.1883545</ele>
        <time>2012-11-04T09:02:01Z</time>
      </trkpt>
      <trkpt lat="45.78992" lon="4.65358">
        <ele>531.2657471</ele>
        <time>2012-11-04T09:02:09Z</time>
      </trkpt>
      <trkpt lat="45.78998" lon="4.65345">
        <ele>536.0723877</ele>
        <time>2012-11-04T09:02:15Z</time>
      </trkpt>
      <trkpt lat="45.79003" lon="4.65325">
        <ele>537.9949951</ele>
        <time>2012-11-04T09:02:22Z</time>
      </trkpt>
      <trkpt lat="45.79004" lon="4.65307">
        <ele>540.3983154</ele>
        <time>2012-11-04T09:02:29Z</time>
      </trkpt>
      <trkpt lat="45.79005" lon="4.65291">
        <ele>537.9949951</ele>
        <time>2012-11-04T09:02:34Z</time>
      </trkpt>
      <trkpt lat="45.79002" lon="4.6527">
        <ele>539.9176025</ele>
        <time>2012-11-04T09:02:41Z</time>
      </trkpt>
      <trkpt lat="45.79002" lon="4.65253">
        <ele>541.84021</ele>
        <time>2012-11-04T09:02:48Z</time>
      </trkpt>
      <trkpt lat="45.79006" lon="4.65239">
        <ele>541.3594971</ele>
        <time>2012-11-04T09:02:53Z</time>
      </trkpt>
      <trkpt lat="45.79014" lon="4.65208">
        <ele>537.5142822</ele>
        <time>2012-11-04T09:02:59Z</time>
      </trkpt>
      <trkpt lat="45.79018" lon="4.6518">
        <ele>529.3431396</ele>
        <time>2012-11-04T09:03:04Z</time>
      </trkpt>
      <trkpt lat="45.79018" lon="4.65139">
        <ele>525.0172119</ele>
        <time>2012-11-04T09:03:12Z</time>
      </trkpt>
      <trkpt lat="45.79023" lon="4.65099">
        <ele>529.8237305</ele>
        <time>2012-11-04T09:03:18Z</time>
      </trkpt>
      <trkpt lat="45.79029" lon="4.65068">
        <ele>535.1109619</ele>
        <time>2012-11-04T09:03:23Z</time>
      </trkpt>
      <trkpt lat="45.79031" lon="4.65039">
        <ele>538.9562988</ele>
        <time>2012-11-04T09:03:28Z</time>
      </trkpt>
      <trkpt lat="45.79035" lon="4.65009">
        <ele>541.3594971</ele>
        <time>2012-11-04T09:03:34Z</time>
      </trkpt>
      <trkpt lat="45.79039" lon="4.64981">
        <ele>543.2821045</ele>
        <time>2012-11-04T09:03:40Z</time>
      </trkpt>
      <trkpt lat="45.79042" lon="4.64961">
        <ele>539.9176025</ele>
        <time>2012-11-04T09:03:44Z</time>
      </trkpt>
      <trkpt lat="45.79042" lon="4.64922">
        <ele>537.0336914</ele>
        <time>2012-11-04T09:03:51Z</time>
      </trkpt>
      <trkpt lat="45.79032" lon="4.64908">
        <ele>531.2657471</ele>
        <time>2012-11-04T09:03:55Z</time>
      </trkpt>
      <trkpt lat="45.79024" lon="4.649">
        <ele>528.3818359</ele>
        <time>2012-11-04T09:03:57Z</time>
      </trkpt>
      <trkpt lat="45.78998" lon="4.64876">
        <ele>519.2492676</ele>
        <time>2012-11-04T09:04:03Z</time>
      </trkpt>
      <trkpt lat="45.78984" lon="4.6486">
        <ele>515.8846436</ele>
        <time>2012-11-04T09:04:08Z</time>
      </trkpt>
      <trkpt lat="45.7897" lon="4.64842">
        <ele>510.59729</ele>
        <time>2012-11-04T09:04:13Z</time>
      </trkpt>
      <trkpt lat="45.78968" lon="4.64829">
        <ele>505.7908936</ele>
        <time>2012-11-04T09:04:16Z</time>
      </trkpt>
      <trkpt lat="45.78968" lon="4.6482">
        <ele>507.2327881</ele>
        <time>2012-11-04T09:04:20Z</time>
      </trkpt>
      <trkpt lat="45.78963" lon="4.64817">
        <ele>515.8846436</ele>
        <time>2012-11-04T09:04:42Z</time>
      </trkpt>
      <trkpt lat="45.78952" lon="4.64809">
        <ele>516.3652344</ele>
        <time>2012-11-04T09:04:48Z</time>
      </trkpt>
      <trkpt lat="45.7895" lon="4.64807">
        <ele>516.3652344</ele>
        <time>2012-11-04T09:04:49Z</time>
      </trkpt>
      <trkpt lat="45.78943" lon="4.64779">
        <ele>523.5751953</ele>
        <time>2012-11-04T09:04:55Z</time>
      </trkpt>
      <trkpt lat="45.78933" lon="4.6476">
        <ele>525.0172119</ele>
        <time>2012-11-04T09:05:00Z</time>
      </trkpt>
      <trkpt lat="45.78913" lon="4.64741">
        <ele>527.901001</ele>
        <time>2012-11-04T09:05:07Z</time>
      </trkpt>
      <trkpt lat="45.78901" lon="4.64722">
        <ele>533.6689453</ele>
        <time>2012-11-04T09:05:12Z</time>
      </trkpt>
      <trkpt lat="45.78887" lon="4.64708">
        <ele>540.3983154</ele>
        <time>2012-11-04T09:05:18Z</time>
      </trkpt>
      <trkpt lat="45.78881" lon="4.64697">
        <ele>543.2821045</ele>
        <time>2012-11-04T09:05:23Z</time>
      </trkpt>
      <trkpt lat="45.78879" lon="4.64692">
        <ele>547.1274414</ele>
        <time>2012-11-04T09:05:26Z</time>
      </trkpt>
      <trkpt lat="45.78874" lon="4.64682">
        <ele>546.6468506</ele>
        <time>2012-11-04T09:05:32Z</time>
      </trkpt>
      <trkpt lat="45.78871" lon="4.64668">
        <ele>551.4533691</ele>
        <time>2012-11-04T09:05:38Z</time>
      </trkpt>
      <trkpt lat="45.78872" lon="4.64666">
        <ele>553.3759766</ele>
        <time>2012-11-04T09:05:39Z</time>
      </trkpt>
      <trkpt lat="45.78861" lon="4.64646">
        <ele>542.8015137</ele>
        <time>2012-11-04T09:05:48Z</time>
      </trkpt>
      <trkpt lat="45.78855" lon="4.64621">
        <ele>542.3209229</ele>
        <time>2012-11-04T09:05:56Z</time>
      </trkpt>
      <trkpt lat="45.78857" lon="4.64602">
        <ele>540.3983154</ele>
        <time>2012-11-04T09:06:01Z</time>
      </trkpt>
      <trkpt lat="45.78861" lon="4.64578">
        <ele>551.4533691</ele>
        <time>2012-11-04T09:06:09Z</time>
      </trkpt>
      <trkpt lat="45.78863" lon="4.64553">
        <ele>551.4533691</ele>
        <time>2012-11-04T09:06:15Z</time>
      </trkpt>
      <trkpt lat="45.78865" lon="4.64523">
        <ele>552.4145508</ele>
        <time>2012-11-04T09:06:22Z</time>
      </trkpt>
      <trkpt lat="45.78864" lon="4.64501">
        <ele>552.8952637</ele>
        <time>2012-11-04T09:06:27Z</time>
      </trkpt>
      <trkpt lat="45.7886" lon="4.64463">
        <ele>552.4145508</ele>
        <time>2012-11-04T09:06:35Z</time>
      </trkpt>
      <trkpt lat="45.78854" lon="4.64433">
        <ele>549.5307617</ele>
        <time>2012-11-04T09:06:41Z</time>
      </trkpt>
      <trkpt lat="45.78845" lon="4.64406">
        <ele>548.5693359</ele>
        <time>2012-11-04T09:06:47Z</time>
      </trkpt>
      <trkpt lat="45.78836" lon="4.64388">
        <ele>552.4145508</ele>
        <time>2012-11-04T09:06:53Z</time>
      </trkpt>
      <trkpt lat="45.78832" lon="4.6437">
        <ele>553.8566895</ele>
        <time>2012-11-04T09:06:59Z</time>
      </trkpt>
      <trkpt lat="45.78826" lon="4.6436">
        <ele>554.3374023</ele>
        <time>2012-11-04T09:07:04Z</time>
      </trkpt>
      <trkpt lat="45.78822" lon="4.64343">
        <ele>553.3759766</ele>
        <time>2012-11-04T09:07:08Z</time>
      </trkpt>
      <trkpt lat="45.7881" lon="4.64326">
        <ele>550.9726563</ele>
        <time>2012-11-04T09:07:15Z</time>
      </trkpt>
      <trkpt lat="45.788" lon="4.64309">
        <ele>551.934082</ele>
        <time>2012-11-04T09:07:21Z</time>
      </trkpt>
      <trkpt lat="45.78792" lon="4.64288">
        <ele>537.9949951</ele>
        <time>2012-11-04T09:07:25Z</time>
      </trkpt>
      <trkpt lat="45.7879" lon="4.6426">
        <ele>536.0723877</ele>
        <time>2012-11-04T09:07:29Z</time>
      </trkpt>
      <trkpt lat="45.7879" lon="4.64231">
        <ele>536.0723877</ele>
        <time>2012-11-04T09:07:34Z</time>
      </trkpt>
      <trkpt lat="45.78794" lon="4.64225">
        <ele>536.5531006</ele>
        <time>2012-11-04T09:07:36Z</time>
      </trkpt>
      <trkpt lat="45.78818" lon="4.64224">
        <ele>535.5915527</ele>
        <time>2012-11-04T09:07:42Z</time>
      </trkpt>
      <trkpt lat="45.7884" lon="4.6421">
        <ele>538.475708</ele>
        <time>2012-11-04T09:07:49Z</time>
      </trkpt>
      <trkpt lat="45.78858" lon="4.64195">
        <ele>544.2436523</ele>
        <time>2012-11-04T09:07:54Z</time>
      </trkpt>
      <trkpt lat="45.78872" lon="4.64173">
        <ele>551.934082</ele>
        <time>2012-11-04T09:08:00Z</time>
      </trkpt>
      <trkpt lat="45.78884" lon="4.64152">
        <ele>546.6468506</ele>
        <time>2012-11-04T09:08:06Z</time>
      </trkpt>
      <trkpt lat="45.78888" lon="4.64147">
        <ele>544.2436523</ele>
        <time>2012-11-04T09:08:11Z</time>
      </trkpt>
      <trkpt lat="45.78899" lon="4.64147">
        <ele>540.3983154</ele>
        <time>2012-11-04T09:08:17Z</time>
      </trkpt>
      <trkpt lat="45.78915" lon="4.6415">
        <ele>537.5142822</ele>
        <time>2012-11-04T09:08:23Z</time>
      </trkpt>
      <trkpt lat="45.78933" lon="4.64156">
        <ele>538.9562988</ele>
        <time>2012-11-04T09:08:29Z</time>
      </trkpt>
      <trkpt lat="45.78956" lon="4.64175">
        <ele>542.3209229</ele>
        <time>2012-11-04T09:08:36Z</time>
      </trkpt>
      <trkpt lat="45.78976" lon="4.64194">
        <ele>545.204834</ele>
        <time>2012-11-04T09:08:43Z</time>
      </trkpt>
      <trkpt lat="45.78993" lon="4.64206">
        <ele>542.3209229</ele>
        <time>2012-11-04T09:08:49Z</time>
      </trkpt>
      <trkpt lat="45.7901" lon="4.64221">
        <ele>540.8789063</ele>
        <time>2012-11-04T09:08:54Z</time>
      </trkpt>
      <trkpt lat="45.79027" lon="4.64237">
        <ele>535.1109619</ele>
        <time>2012-11-04T09:09:00Z</time>
      </trkpt>
      <trkpt lat="45.79047" lon="4.64252">
        <ele>532.2270508</ele>
        <time>2012-11-04T09:09:06Z</time>
      </trkpt>
      <trkpt lat="45.79054" lon="4.64251">
        <ele>532.2270508</ele>
        <time>2012-11-04T09:09:08Z</time>
      </trkpt>
      <trkpt lat="45.79061" lon="4.64233">
        <ele>533.6689453</ele>
        <time>2012-11-04T09:09:12Z</time>
      </trkpt>
      <trkpt lat="45.79062" lon="4.64228">
        <ele>533.6689453</ele>
        <time>2012-11-04T09:09:13Z</time>
      </trkpt>
      <trkpt lat="45.79072" lon="4.64195">
        <ele>531.2657471</ele>
        <time>2012-11-04T09:09:18Z</time>
      </trkpt>
      <trkpt lat="45.7907" lon="4.64167">
        <ele>529.3431396</ele>
        <time>2012-11-04T09:09:22Z</time>
      </trkpt>
      <trkpt lat="45.79058" lon="4.64153">
        <ele>528.8625488</ele>
        <time>2012-11-04T09:09:25Z</time>
      </trkpt>
      <trkpt lat="45.79054" lon="4.6415">
        <ele>528.3818359</ele>
        <time>2012-11-04T09:09:26Z</time>
      </trkpt>
      <trkpt lat="45.79035" lon="4.64135">
        <ele>527.4204102</ele>
        <time>2012-11-04T09:09:31Z</time>
      </trkpt>
      <trkpt lat="45.79017" lon="4.6411">
        <ele>527.4204102</ele>
        <time>2012-11-04T09:09:37Z</time>
      </trkpt>
      <trkpt lat="45.79021" lon="4.64077">
        <ele>526.4591064</ele>
        <time>2012-11-04T09:09:42Z</time>
      </trkpt>
      <trkpt lat="45.79017" lon="4.64063">
        <ele>525.4978027</ele>
        <time>2012-11-04T09:09:44Z</time>
      </trkpt>
      <trkpt lat="45.79011" lon="4.64052">
        <ele>525.0172119</ele>
        <time>2012-11-04T09:09:46Z</time>
      </trkpt>
      <trkpt lat="45.78997" lon="4.64032">
        <ele>523.0946045</ele>
        <time>2012-11-04T09:09:51Z</time>
      </trkpt>
      <trkpt lat="45.79003" lon="4.64014">
        <ele>524.0557861</ele>
        <time>2012-11-04T09:09:54Z</time>
      </trkpt>
      <trkpt lat="45.79019" lon="4.63987">
        <ele>518.2878418</ele>
        <time>2012-11-04T09:09:58Z</time>
      </trkpt>
      <trkpt lat="45.79033" lon="4.63965">
        <ele>517.807251</ele>
        <time>2012-11-04T09:10:01Z</time>
      </trkpt>
      <trkpt lat="45.79037" lon="4.63919">
        <ele>512.0394287</ele>
        <time>2012-11-04T09:10:06Z</time>
      </trkpt>
      <trkpt lat="45.79036" lon="4.6391">
        <ele>511.5587158</ele>
        <time>2012-11-04T09:10:07Z</time>
      </trkpt>
      <trkpt lat="45.79017" lon="4.63843">
        <ele>506.7520752</ele>
        <time>2012-11-04T09:10:14Z</time>
      </trkpt>
      <trkpt lat="45.79009" lon="4.63805">
        <ele>502.4261475</ele>
        <time>2012-11-04T09:10:18Z</time>
      </trkpt>
      <trkpt lat="45.78994" lon="4.63779">
        <ele>502.4261475</ele>
        <time>2012-11-04T09:10:22Z</time>
      </trkpt>
      <trkpt lat="45.78969" lon="4.63747">
        <ele>502.9067383</ele>
        <time>2012-11-04T09:10:30Z</time>
      </trkpt>
      <trkpt lat="45.78965" lon="4.63742">
        <ele>502.9067383</ele>
        <time>2012-11-04T09:10:31Z</time>
      </trkpt>
      <trkpt lat="45.78939" lon="4.63722">
        <ele>500.9841309</ele>
        <time>2012-11-04T09:10:36Z</time>
      </trkpt>
      <trkpt lat="45.7892" lon="4.63698">
        <ele>498.5809326</ele>
        <time>2012-11-04T09:10:41Z</time>
      </trkpt>
      <trkpt lat="45.78917" lon="4.63691">
        <ele>498.1003418</ele>
        <time>2012-11-04T09:10:42Z</time>
      </trkpt>
      <trkpt lat="45.78908" lon="4.6364">
        <ele>494.2550049</ele>
        <time>2012-11-04T09:10:47Z</time>
      </trkpt>
      <trkpt lat="45.78893" lon="4.63573">
        <ele>488.0064697</ele>
        <time>2012-11-04T09:10:52Z</time>
      </trkpt>
      <trkpt lat="45.78894" lon="4.63519">
        <ele>484.6418457</ele>
        <time>2012-11-04T09:10:56Z</time>
      </trkpt>
      <trkpt lat="45.78897" lon="4.63507">
        <ele>483.6804199</ele>
        <time>2012-11-04T09:10:57Z</time>
      </trkpt>
      <trkpt lat="45.78927" lon="4.63431">
        <ele>477.9124756</ele>
        <time>2012-11-04T09:11:04Z</time>
      </trkpt>
      <trkpt lat="45.78925" lon="4.63389">
        <ele>472.6253662</ele>
        <time>2012-11-04T09:11:08Z</time>
      </trkpt>
      <trkpt lat="45.78922" lon="4.63377">
        <ele>471.1833496</ele>
        <time>2012-11-04T09:11:09Z</time>
      </trkpt>
      <trkpt lat="45.78914" lon="4.63343">
        <ele>466.376709</ele>
        <time>2012-11-04T09:11:12Z</time>
      </trkpt>
      <trkpt lat="45.78908" lon="4.6327">
        <ele>461.5701904</ele>
        <time>2012-11-04T09:11:18Z</time>
      </trkpt>
      <trkpt lat="45.78903" lon="4.63213">
        <ele>452.9182129</ele>
        <time>2012-11-04T09:11:24Z</time>
      </trkpt>
      <trkpt lat="45.78902" lon="4.63207">
        <ele>453.3989258</ele>
        <time>2012-11-04T09:11:25Z</time>
      </trkpt>
      <trkpt lat="45.78898" lon="4.63203">
        <ele>451.4763184</ele>
        <time>2012-11-04T09:11:29Z</time>
      </trkpt>
      <trkpt lat="45.78894" lon="4.63213">
        <ele>451.9570313</ele>
        <time>2012-11-04T09:11:32Z</time>
      </trkpt>
      <trkpt lat="45.78885" lon="4.63224">
        <ele>456.7635498</ele>
        <time>2012-11-04T09:11:40Z</time>
      </trkpt>
      <trkpt lat="45.78874" lon="4.63225">
        <ele>457.2442627</ele>
        <time>2012-11-04T09:11:48Z</time>
      </trkpt>
      <trkpt lat="45.78866" lon="4.63232">
        <ele>458.2055664</ele>
        <time>2012-11-04T09:11:54Z</time>
      </trkpt>
      <trkpt lat="45.78858" lon="4.6324">
        <ele>460.1281738</ele>
        <time>2012-11-04T09:12:02Z</time>
      </trkpt>
      <trkpt lat="45.78851" lon="4.63248">
        <ele>462.5313721</ele>
        <time>2012-11-04T09:12:10Z</time>
      </trkpt>
      <trkpt lat="45.78843" lon="4.63256">
        <ele>464.4541016</ele>
        <time>2012-11-04T09:12:18Z</time>
      </trkpt>
      <trkpt lat="45.78837" lon="4.63264">
        <ele>465.8961182</ele>
        <time>2012-11-04T09:12:25Z</time>
      </trkpt>
      <trkpt lat="45.78828" lon="4.63274">
        <ele>467.3381348</ele>
        <time>2012-11-04T09:12:34Z</time>
      </trkpt>
      <trkpt lat="45.78818" lon="4.63284">
        <ele>469.741333</ele>
        <time>2012-11-04T09:12:43Z</time>
      </trkpt>
      <trkpt lat="45.7881" lon="4.63292">
        <ele>470.7026367</ele>
        <time>2012-11-04T09:12:51Z</time>
      </trkpt>
      <trkpt lat="45.78802" lon="4.63299">
        <ele>471.1833496</ele>
        <time>2012-11-04T09:12:59Z</time>
      </trkpt>
      <trkpt lat="45.78795" lon="4.63307">
        <ele>472.6253662</ele>
        <time>2012-11-04T09:13:07Z</time>
      </trkpt>
      <trkpt lat="45.78786" lon="4.63317">
        <ele>471.1833496</ele>
        <time>2012-11-04T09:13:15Z</time>
      </trkpt>
      <trkpt lat="45.78778" lon="4.63324">
        <ele>475.0286865</ele>
        <time>2012-11-04T09:13:22Z</time>
      </trkpt>
      <trkpt lat="45.78773" lon="4.63333">
        <ele>478.3931885</ele>
        <time>2012-11-04T09:13:29Z</time>
      </trkpt>
      <trkpt lat="45.78769" lon="4.63341">
        <ele>480.7966309</ele>
        <time>2012-11-04T09:13:36Z</time>
      </trkpt>
      <trkpt lat="45.78766" lon="4.63353">
        <ele>485.1224365</ele>
        <time>2012-11-04T09:13:43Z</time>
      </trkpt>
      <trkpt lat="45.78759" lon="4.63364">
        <ele>484.1611328</ele>
        <time>2012-11-04T09:13:50Z</time>
      </trkpt>
      <trkpt lat="45.78757" lon="4.63367">
        <ele>485.1224365</ele>
        <time>2012-11-04T09:13:53Z</time>
      </trkpt>
      <trkpt lat="45.78747" lon="4.6336">
        <ele>486.5644531</ele>
        <time>2012-11-04T09:14:01Z</time>
      </trkpt>
      <trkpt lat="45.78732" lon="4.63353">
        <ele>486.0837402</ele>
        <time>2012-11-04T09:14:08Z</time>
      </trkpt>
      <trkpt lat="45.78713" lon="4.63344">
        <ele>485.6030273</ele>
        <time>2012-11-04T09:14:16Z</time>
      </trkpt>
      <trkpt lat="45.78706" lon="4.63341">
        <ele>485.1224365</ele>
        <time>2012-11-04T09:14:19Z</time>
      </trkpt>
      <trkpt lat="45.78699" lon="4.6333">
        <ele>483.6804199</ele>
        <time>2012-11-04T09:14:24Z</time>
      </trkpt>
      <trkpt lat="45.7868" lon="4.63312">
        <ele>484.6418457</ele>
        <time>2012-11-04T09:14:31Z</time>
      </trkpt>
      <trkpt lat="45.78672" lon="4.63304">
        <ele>483.6804199</ele>
        <time>2012-11-04T09:14:33Z</time>
      </trkpt>
      <trkpt lat="45.78651" lon="4.63278">
        <ele>486.5644531</ele>
        <time>2012-11-04T09:14:39Z</time>
      </trkpt>
      <trkpt lat="45.78644" lon="4.6327">
        <ele>487.5256348</ele>
        <time>2012-11-04T09:14:42Z</time>
      </trkpt>
      <trkpt lat="45.78629" lon="4.63283">
        <ele>487.5256348</ele>
        <time>2012-11-04T09:14:51Z</time>
      </trkpt>
      <trkpt lat="45.78619" lon="4.63295">
        <ele>488.0064697</ele>
        <time>2012-11-04T09:15:00Z</time>
      </trkpt>
      <trkpt lat="45.78611" lon="4.63303">
        <ele>488.0064697</ele>
        <time>2012-11-04T09:15:08Z</time>
      </trkpt>
      <trkpt lat="45.78604" lon="4.63313">
        <ele>490.8903809</ele>
        <time>2012-11-04T09:15:14Z</time>
      </trkpt>
      <trkpt lat="45.78596" lon="4.63328">
        <ele>492.3323975</ele>
        <time>2012-11-04T09:15:23Z</time>
      </trkpt>
      <trkpt lat="45.78589" lon="4.63335">
        <ele>490.8903809</ele>
        <time>2012-11-04T09:15:29Z</time>
      </trkpt>
      <trkpt lat="45.78583" lon="4.63344">
        <ele>493.2935791</ele>
        <time>2012-11-04T09:15:35Z</time>
      </trkpt>
      <trkpt lat="45.78576" lon="4.63351">
        <ele>495.6968994</ele>
        <time>2012-11-04T09:15:41Z</time>
      </trkpt>
      <trkpt lat="45.78573" lon="4.6336">
        <ele>495.6968994</ele>
        <time>2012-11-04T09:15:46Z</time>
      </trkpt>
      <trkpt lat="45.78567" lon="4.63366">
        <ele>496.6583252</ele>
        <time>2012-11-04T09:15:52Z</time>
      </trkpt>
      <trkpt lat="45.78564" lon="4.63373">
        <ele>498.5809326</ele>
        <time>2012-11-04T09:15:57Z</time>
      </trkpt>
      <trkpt lat="45.78556" lon="4.63381">
        <ele>500.9841309</ele>
        <time>2012-11-04T09:16:04Z</time>
      </trkpt>
      <trkpt lat="45.78552" lon="4.6339">
        <ele>502.9067383</ele>
        <time>2012-11-04T09:16:09Z</time>
      </trkpt>
      <trkpt lat="45.7855" lon="4.63391">
        <ele>503.3874512</ele>
        <time>2012-11-04T09:16:10Z</time>
      </trkpt>
      <trkpt lat="45.78545" lon="4.63403">
        <ele>505.3101807</ele>
        <time>2012-11-04T09:16:17Z</time>
      </trkpt>
      <trkpt lat="45.78539" lon="4.63415">
        <ele>506.7520752</ele>
        <time>2012-11-04T09:16:25Z</time>
      </trkpt>
      <trkpt lat="45.78538" lon="4.63418">
        <ele>506.7520752</ele>
        <time>2012-11-04T09:16:28Z</time>
      </trkpt>
      <trkpt lat="45.78535" lon="4.6343">
        <ele>506.7520752</ele>
        <time>2012-11-04T09:16:33Z</time>
      </trkpt>
      <trkpt lat="45.78532" lon="4.63443">
        <ele>507.2327881</ele>
        <time>2012-11-04T09:16:40Z</time>
      </trkpt>
      <trkpt lat="45.78529" lon="4.63457">
        <ele>509.6361084</ele>
        <time>2012-11-04T09:16:45Z</time>
      </trkpt>
      <trkpt lat="45.78529" lon="4.63464">
        <ele>512.0394287</ele>
        <time>2012-11-04T09:16:48Z</time>
      </trkpt>
      <trkpt lat="45.78528" lon="4.63486">
        <ele>514.442627</ele>
        <time>2012-11-04T09:16:55Z</time>
      </trkpt>
      <trkpt lat="45.78526" lon="4.63498">
        <ele>515.8846436</ele>
        <time>2012-11-04T09:17:01Z</time>
      </trkpt>
      <trkpt lat="45.78524" lon="4.63509">
        <ele>514.9233398</ele>
        <time>2012-11-04T09:17:06Z</time>
      </trkpt>
      <trkpt lat="45.78522" lon="4.63516">
        <ele>515.4040527</ele>
        <time>2012-11-04T09:17:10Z</time>
      </trkpt>
      <trkpt lat="45.78521" lon="4.63525">
        <ele>514.442627</ele>
        <time>2012-11-04T09:17:14Z</time>
      </trkpt>
      <trkpt lat="45.78521" lon="4.63535">
        <ele>512.0394287</ele>
        <time>2012-11-04T09:17:18Z</time>
      </trkpt>
      <trkpt lat="45.78517" lon="4.63547">
        <ele>512.5200195</ele>
        <time>2012-11-04T09:17:24Z</time>
      </trkpt>
      <trkpt lat="45.78524" lon="4.63557">
        <ele>516.3652344</ele>
        <time>2012-11-04T09:17:30Z</time>
      </trkpt>
      <trkpt lat="45.78525" lon="4.63565">
        <ele>519.7298584</ele>
        <time>2012-11-04T09:17:35Z</time>
      </trkpt>
      <trkpt lat="45.78524" lon="4.63573">
        <ele>518.7685547</ele>
        <time>2012-11-04T09:17:42Z</time>
      </trkpt>
      <trkpt lat="45.78525" lon="4.63577">
        <ele>522.6138916</ele>
        <time>2012-11-04T09:17:46Z</time>
      </trkpt>
      <trkpt lat="45.78527" lon="4.63592">
        <ele>535.5915527</ele>
        <time>2012-11-04T09:17:54Z</time>
      </trkpt>
      <trkpt lat="45.78533" lon="4.63603">
        <ele>536.0723877</ele>
        <time>2012-11-04T09:17:59Z</time>
      </trkpt>
      <trkpt lat="45.78528" lon="4.63616">
        <ele>537.5142822</ele>
        <time>2012-11-04T09:18:06Z</time>
      </trkpt>
      <trkpt lat="45.78528" lon="4.63617">
        <ele>537.5142822</ele>
        <time>2012-11-04T09:18:07Z</time>
      </trkpt>
      <trkpt lat="45.78531" lon="4.63636">
        <ele>532.2270508</ele>
        <time>2012-11-04T09:18:14Z</time>
      </trkpt>
      <trkpt lat="45.7853" lon="4.6364">
        <ele>526.4591064</ele>
        <time>2012-11-04T09:18:16Z</time>
      </trkpt>
      <trkpt lat="45.78528" lon="4.63646">
        <ele>521.6525879</ele>
        <time>2012-11-04T09:18:24Z</time>
      </trkpt>
      <trkpt lat="45.78536" lon="4.63649">
        <ele>529.3431396</ele>
        <time>2012-11-04T09:18:35Z</time>
      </trkpt>
      <trkpt lat="45.78536" lon="4.63645">
        <ele>522.6138916</ele>
        <time>2012-11-04T09:18:50Z</time>
      </trkpt>
      <trkpt lat="45.78535" lon="4.63644">
        <ele>524.536499</ele>
        <time>2012-11-04T09:18:58Z</time>
      </trkpt>
      <trkpt lat="45.78535" lon="4.63645">
        <ele>524.0557861</ele>
        <time>2012-11-04T09:19:05Z</time>
      </trkpt>
      <trkpt lat="45.78533" lon="4.63646">
        <ele>521.6525879</ele>
        <time>2012-11-04T09:19:13Z</time>
      </trkpt>
      <trkpt lat="45.7853" lon="4.63645">
        <ele>517.807251</ele>
        <time>2012-11-04T09:19:19Z</time>
      </trkpt>
      <trkpt lat="45.78528" lon="4.63644">
        <ele>520.6912842</ele>
        <time>2012-11-04T09:19:23Z</time>
      </trkpt>
      <trkpt lat="45.78527" lon="4.63645">
        <ele>528.8625488</ele>
        <time>2012-11-04T09:19:29Z</time>
      </trkpt>
      <trkpt lat="45.78521" lon="4.63646">
        <ele>531.2657471</ele>
        <time>2012-11-04T09:19:37Z</time>
      </trkpt>
      <trkpt lat="45.78518" lon="4.63646">
        <ele>532.2270508</ele>
        <time>2012-11-04T09:19:44Z</time>
      </trkpt>
      <trkpt lat="45.78516" lon="4.63643">
        <ele>533.1883545</ele>
        <time>2012-11-04T09:19:49Z</time>
      </trkpt>
      <trkpt lat="45.78514" lon="4.63643">
        <ele>534.1496582</ele>
        <time>2012-11-04T09:19:55Z</time>
      </trkpt>
      <trkpt lat="45.7851" lon="4.63644">
        <ele>535.1109619</ele>
        <time>2012-11-04T09:20:00Z</time>
      </trkpt>
      <trkpt lat="45.78506" lon="4.63645">
        <ele>535.5915527</ele>
        <time>2012-11-04T09:20:07Z</time>
      </trkpt>
      <trkpt lat="45.78505" lon="4.63642">
        <ele>542.8015137</ele>
        <time>2012-11-04T09:20:15Z</time>
      </trkpt>
      <trkpt lat="45.78502" lon="4.63639">
        <ele>541.3594971</ele>
        <time>2012-11-04T09:20:22Z</time>
      </trkpt>
      <trkpt lat="45.78495" lon="4.63639">
        <ele>548.0888672</ele>
        <time>2012-11-04T09:20:28Z</time>
      </trkpt>
      <trkpt lat="45.78496" lon="4.6364">
        <ele>551.4533691</ele>
        <time>2012-11-04T09:20:34Z</time>
      </trkpt>
      <trkpt lat="45.7849" lon="4.63643">
        <ele>546.1662598</ele>
        <time>2012-11-04T09:20:47Z</time>
      </trkpt>
      <trkpt lat="45.78485" lon="4.63644">
        <ele>543.7628174</ele>
        <time>2012-11-04T09:20:53Z</time>
      </trkpt>
      <trkpt lat="45.7848" lon="4.63647">
        <ele>543.7628174</ele>
        <time>2012-11-04T09:21:00Z</time>
      </trkpt>
      <trkpt lat="45.78472" lon="4.63648">
        <ele>538.475708</ele>
        <time>2012-11-04T09:21:07Z</time>
      </trkpt>
      <trkpt lat="45.78469" lon="4.63648">
        <ele>538.9562988</ele>
        <time>2012-11-04T09:21:13Z</time>
      </trkpt>
      <trkpt lat="45.78466" lon="4.63646">
        <ele>540.3983154</ele>
        <time>2012-11-04T09:21:19Z</time>
      </trkpt>
      <trkpt lat="45.78463" lon="4.63646">
        <ele>540.3983154</ele>
        <time>2012-11-04T09:21:22Z</time>
      </trkpt>
      <trkpt lat="45.7846" lon="4.63644">
        <ele>542.3209229</ele>
        <time>2012-11-04T09:21:28Z</time>
      </trkpt>
      <trkpt lat="45.78456" lon="4.63641">
        <ele>545.6855469</ele>
        <time>2012-11-04T09:21:34Z</time>
      </trkpt>
      <trkpt lat="45.78453" lon="4.63643">
        <ele>550.0114746</ele>
        <time>2012-11-04T09:21:43Z</time>
      </trkpt>
      <trkpt lat="45.7845" lon="4.63642">
        <ele>552.4145508</ele>
        <time>2012-11-04T09:21:52Z</time>
      </trkpt>
      <trkpt lat="45.78446" lon="4.63642">
        <ele>548.0888672</ele>
        <time>2012-11-04T09:21:56Z</time>
      </trkpt>
      <trkpt lat="45.78441" lon="4.63636">
        <ele>548.0888672</ele>
        <time>2012-11-04T09:22:03Z</time>
      </trkpt>
      <trkpt lat="45.78438" lon="4.63629">
        <ele>554.8178711</ele>
        <time>2012-11-04T09:22:10Z</time>
      </trkpt>
      <trkpt lat="45.78437" lon="4.63628">
        <ele>558.1828613</ele>
        <time>2012-11-04T09:22:20Z</time>
      </trkpt>
      <trkpt lat="45.78434" lon="4.63625">
        <ele>561.0666504</ele>
        <time>2012-11-04T09:22:30Z</time>
      </trkpt>
      <trkpt lat="45.78428" lon="4.63625">
        <ele>567.7956543</ele>
        <time>2012-11-04T09:22:39Z</time>
      </trkpt>
      <trkpt lat="45.78432" lon="4.63623">
        <ele>571.1604004</ele>
        <time>2012-11-04T09:22:46Z</time>
      </trkpt>
      <trkpt lat="45.78433" lon="4.63622">
        <ele>567.7956543</ele>
        <time>2012-11-04T09:22:55Z</time>
      </trkpt>
      <trkpt lat="45.78429" lon="4.63623">
        <ele>561.5473633</ele>
        <time>2012-11-04T09:23:07Z</time>
      </trkpt>
      <trkpt lat="45.78428" lon="4.63621">
        <ele>559.6247559</ele>
        <time>2012-11-04T09:23:09Z</time>
      </trkpt>
      <trkpt lat="45.78427" lon="4.63613">
        <ele>565.3925781</ele>
        <time>2012-11-04T09:23:17Z</time>
      </trkpt>
      <trkpt lat="45.78426" lon="4.63606">
        <ele>568.2763672</ele>
        <time>2012-11-04T09:23:25Z</time>
      </trkpt>
      <trkpt lat="45.78423" lon="4.63599">
        <ele>568.2763672</ele>
        <time>2012-11-04T09:23:30Z</time>
      </trkpt>
      <trkpt lat="45.7842" lon="4.6359">
        <ele>570.1989746</ele>
        <time>2012-11-04T09:23:37Z</time>
      </trkpt>
      <trkpt lat="45.78419" lon="4.63582">
        <ele>568.2763672</ele>
        <time>2012-11-04T09:23:43Z</time>
      </trkpt>
      <trkpt lat="45.78419" lon="4.63576">
        <ele>568.2763672</ele>
        <time>2012-11-04T09:23:48Z</time>
      </trkpt>
      <trkpt lat="45.78418" lon="4.63571">
        <ele>566.3537598</ele>
        <time>2012-11-04T09:23:53Z</time>
      </trkpt>
      <trkpt lat="45.7842" lon="4.63561">
        <ele>572.1218262</ele>
        <time>2012-11-04T09:24:00Z</time>
      </trkpt>
      <trkpt lat="45.78419" lon="4.63557">
        <ele>572.1218262</ele>
        <time>2012-11-04T09:24:05Z</time>
      </trkpt>
      <trkpt lat="45.78417" lon="4.6355">
        <ele>573.083252</ele>
        <time>2012-11-04T09:24:10Z</time>
      </trkpt>
      <trkpt lat="45.78413" lon="4.63546">
        <ele>584.1381836</ele>
        <time>2012-11-04T09:24:22Z</time>
      </trkpt>
      <trkpt lat="45.78412" lon="4.63533">
        <ele>584.6188965</ele>
        <time>2012-11-04T09:24:29Z</time>
      </trkpt>
      <trkpt lat="45.78407" lon="4.63525">
        <ele>579.331543</ele>
        <time>2012-11-04T09:24:37Z</time>
      </trkpt>
      <trkpt lat="45.78405" lon="4.63525">
        <ele>578.3703613</ele>
        <time>2012-11-04T09:24:38Z</time>
      </trkpt>
      <trkpt lat="45.78395" lon="4.63519">
        <ele>575.0058594</ele>
        <time>2012-11-04T09:24:45Z</time>
      </trkpt>
      <trkpt lat="45.78394" lon="4.63513">
        <ele>573.083252</ele>
        <time>2012-11-04T09:24:50Z</time>
      </trkpt>
      <trkpt lat="45.78389" lon="4.63505">
        <ele>573.083252</ele>
        <time>2012-11-04T09:25:04Z</time>
      </trkpt>
      <trkpt lat="45.78385" lon="4.63495">
        <ele>571.6408691</ele>
        <time>2012-11-04T09:25:11Z</time>
      </trkpt>
      <trkpt lat="45.78379" lon="4.63491">
        <ele>568.7570801</ele>
        <time>2012-11-04T09:25:17Z</time>
      </trkpt>
      <trkpt lat="45.78375" lon="4.63496">
        <ele>571.6408691</ele>
        <time>2012-11-04T09:25:22Z</time>
      </trkpt>
      <trkpt lat="45.78368" lon="4.63501">
        <ele>575.0058594</ele>
        <time>2012-11-04T09:25:29Z</time>
      </trkpt>
      <trkpt lat="45.78365" lon="4.63511">
        <ele>582.2155762</ele>
        <time>2012-11-04T09:25:36Z</time>
      </trkpt>
      <trkpt lat="45.78365" lon="4.63518">
        <ele>581.7348633</ele>
        <time>2012-11-04T09:25:41Z</time>
      </trkpt>
      <trkpt lat="45.78366" lon="4.63535">
        <ele>583.1767578</ele>
        <time>2012-11-04T09:25:49Z</time>
      </trkpt>
      <trkpt lat="45.78368" lon="4.63552">
        <ele>586.5415039</ele>
        <time>2012-11-04T09:25:56Z</time>
      </trkpt>
      <trkpt lat="45.78368" lon="4.63569">
        <ele>592.7902832</ele>
        <time>2012-11-04T09:26:02Z</time>
      </trkpt>
      <trkpt lat="45.78366" lon="4.63588">
        <ele>594.7126465</ele>
        <time>2012-11-04T09:26:07Z</time>
      </trkpt>
      <trkpt lat="45.78362" lon="4.63609">
        <ele>592.7902832</ele>
        <time>2012-11-04T09:26:13Z</time>
      </trkpt>
      <trkpt lat="45.78356" lon="4.63627">
        <ele>588.9450684</ele>
        <time>2012-11-04T09:26:19Z</time>
      </trkpt>
      <trkpt lat="45.78357" lon="4.63647">
        <ele>587.9833984</ele>
        <time>2012-11-04T09:26:25Z</time>
      </trkpt>
      <trkpt lat="45.78356" lon="4.63666">
        <ele>587.9833984</ele>
        <time>2012-11-04T09:26:31Z</time>
      </trkpt>
      <trkpt lat="45.78356" lon="4.63684">
        <ele>590.3869629</ele>
        <time>2012-11-04T09:26:38Z</time>
      </trkpt>
      <trkpt lat="45.78354" lon="4.63698">
        <ele>592.3095703</ele>
        <time>2012-11-04T09:26:45Z</time>
      </trkpt>
      <trkpt lat="45.78355" lon="4.63702">
        <ele>593.270752</ele>
        <time>2012-11-04T09:26:47Z</time>
      </trkpt>
      <trkpt lat="45.78357" lon="4.63721">
        <ele>590.3869629</ele>
        <time>2012-11-04T09:26:53Z</time>
      </trkpt>
      <trkpt lat="45.78362" lon="4.63747">
        <ele>592.7902832</ele>
        <time>2012-11-04T09:27:01Z</time>
      </trkpt>
      <trkpt lat="45.78363" lon="4.63749">
        <ele>593.270752</ele>
        <time>2012-11-04T09:27:02Z</time>
      </trkpt>
      <trkpt lat="45.78369" lon="4.63766">
        <ele>593.270752</ele>
        <time>2012-11-04T09:27:10Z</time>
      </trkpt>
      <trkpt lat="45.78372" lon="4.63777">
        <ele>596.635498</ele>
        <time>2012-11-04T09:27:17Z</time>
      </trkpt>
      <trkpt lat="45.78375" lon="4.63787">
        <ele>597.1159668</ele>
        <time>2012-11-04T09:27:23Z</time>
      </trkpt>
      <trkpt lat="45.78377" lon="4.63795">
        <ele>601.9226074</ele>
        <time>2012-11-04T09:27:29Z</time>
      </trkpt>
      <trkpt lat="45.78377" lon="4.63801">
        <ele>602.4030762</ele>
        <time>2012-11-04T09:27:33Z</time>
      </trkpt>
      <trkpt lat="45.78377" lon="4.63803">
        <ele>604.8066406</ele>
        <time>2012-11-04T09:27:35Z</time>
      </trkpt>
      <trkpt lat="45.78377" lon="4.63818">
        <ele>605.2873535</ele>
        <time>2012-11-04T09:27:42Z</time>
      </trkpt>
      <trkpt lat="45.78383" lon="4.6384">
        <ele>602.4030762</ele>
        <time>2012-11-04T09:27:48Z</time>
      </trkpt>
      <trkpt lat="45.78391" lon="4.63846">
        <ele>600.9611816</ele>
        <time>2012-11-04T09:27:50Z</time>
      </trkpt>
      <trkpt lat="45.78411" lon="4.63859">
        <ele>598.0773926</ele>
        <time>2012-11-04T09:27:55Z</time>
      </trkpt>
      <trkpt lat="45.78416" lon="4.63889">
        <ele>597.1159668</ele>
        <time>2012-11-04T09:28:00Z</time>
      </trkpt>
      <trkpt lat="45.78413" lon="4.63909">
        <ele>596.635498</ele>
        <time>2012-11-04T09:28:03Z</time>
      </trkpt>
      <trkpt lat="45.78403" lon="4.63942">
        <ele>579.331543</ele>
        <time>2012-11-04T09:28:09Z</time>
      </trkpt>
      <trkpt lat="45.78392" lon="4.63954">
        <ele>575.0058594</ele>
        <time>2012-11-04T09:28:15Z</time>
      </trkpt>
      <trkpt lat="45.78397" lon="4.63952">
        <ele>577.4091797</ele>
        <time>2012-11-04T09:28:17Z</time>
      </trkpt>
      <trkpt lat="45.78425" lon="4.63953">
        <ele>584.6188965</ele>
        <time>2012-11-04T09:28:24Z</time>
      </trkpt>
      <trkpt lat="45.78444" lon="4.63965">
        <ele>590.3869629</ele>
        <time>2012-11-04T09:28:27Z</time>
      </trkpt>
      <trkpt lat="45.78466" lon="4.63993">
        <ele>591.8288574</ele>
        <time>2012-11-04T09:28:32Z</time>
      </trkpt>
      <trkpt lat="45.78473" lon="4.64002">
        <ele>587.0219727</ele>
        <time>2012-11-04T09:28:37Z</time>
      </trkpt>
      <trkpt lat="45.7847" lon="4.64001">
        <ele>591.3481445</ele>
        <time>2012-11-04T09:28:40Z</time>
      </trkpt>
      <trkpt lat="45.78468" lon="4.64003">
        <ele>591.3481445</ele>
        <time>2012-11-04T09:28:42Z</time>
      </trkpt>
      <trkpt lat="45.7847" lon="4.64008">
        <ele>596.1547852</ele>
        <time>2012-11-04T09:28:48Z</time>
      </trkpt>
      <trkpt lat="45.78465" lon="4.64013">
        <ele>601.9226074</ele>
        <time>2012-11-04T09:29:03Z</time>
      </trkpt>
      <trkpt lat="45.78467" lon="4.6401">
        <ele>606.2485352</ele>
        <time>2012-11-04T09:29:09Z</time>
      </trkpt>
      <trkpt lat="45.78469" lon="4.6401">
        <ele>598.0773926</ele>
        <time>2012-11-04T09:29:19Z</time>
      </trkpt>
      <trkpt lat="45.78474" lon="4.64016">
        <ele>597.1159668</ele>
        <time>2012-11-04T09:29:28Z</time>
      </trkpt>
      <trkpt lat="45.7847" lon="4.64013">
        <ele>602.4030762</ele>
        <time>2012-11-04T09:29:36Z</time>
      </trkpt>
      <trkpt lat="45.78468" lon="4.64016">
        <ele>604.8066406</ele>
        <time>2012-11-04T09:29:42Z</time>
      </trkpt>
      <trkpt lat="45.78459" lon="4.64022">
        <ele>603.364502</ele>
        <time>2012-11-04T09:29:48Z</time>
      </trkpt>
      <trkpt lat="45.78459" lon="4.64028">
        <ele>602.4030762</ele>
        <time>2012-11-04T09:29:54Z</time>
      </trkpt>
      <trkpt lat="45.78455" lon="4.64033">
        <ele>599.0385742</ele>
        <time>2012-11-04T09:30:01Z</time>
      </trkpt>
      <trkpt lat="45.78452" lon="4.64037">
        <ele>599.0385742</ele>
        <time>2012-11-04T09:30:07Z</time>
      </trkpt>
      <trkpt lat="45.78449" lon="4.64039">
        <ele>601.9226074</ele>
        <time>2012-11-04T09:30:13Z</time>
      </trkpt>
      <trkpt lat="45.78447" lon="4.64038">
        <ele>600.9611816</ele>
        <time>2012-11-04T09:30:15Z</time>
      </trkpt>
      <trkpt lat="45.78442" lon="4.64038">
        <ele>605.7680664</ele>
        <time>2012-11-04T09:30:22Z</time>
      </trkpt>
      <trkpt lat="45.78446" lon="4.64046">
        <ele>603.8452148</ele>
        <time>2012-11-04T09:30:32Z</time>
      </trkpt>
      <trkpt lat="45.78448" lon="4.6405">
        <ele>598.5578613</ele>
        <time>2012-11-04T09:30:39Z</time>
      </trkpt>
      <trkpt lat="45.78452" lon="4.64055">
        <ele>600</ele>
        <time>2012-11-04T09:30:45Z</time>
      </trkpt>
      <trkpt lat="45.7845" lon="4.64054">
        <ele>603.8452148</ele>
        <time>2012-11-04T09:30:48Z</time>
      </trkpt>
      <trkpt lat="45.78443" lon="4.64055">
        <ele>606.2485352</ele>
        <time>2012-11-04T09:30:54Z</time>
      </trkpt>
      <trkpt lat="45.7843" lon="4.64053">
        <ele>608.6518555</ele>
        <time>2012-11-04T09:31:13Z</time>
      </trkpt>
      <trkpt lat="45.78418" lon="4.6405">
        <ele>611.0551758</ele>
        <time>2012-11-04T09:31:20Z</time>
      </trkpt>
      <trkpt lat="45.78413" lon="4.64048">
        <ele>609.6132813</ele>
        <time>2012-11-04T09:31:24Z</time>
      </trkpt>
      <trkpt lat="45.78416" lon="4.64048">
        <ele>604.3261719</ele>
        <time>2012-11-04T09:31:33Z</time>
      </trkpt>
      <trkpt lat="45.78415" lon="4.64048">
        <ele>598.0773926</ele>
        <time>2012-11-04T09:31:44Z</time>
      </trkpt>
      <trkpt lat="45.78413" lon="4.64042">
        <ele>596.1547852</ele>
        <time>2012-11-04T09:31:50Z</time>
      </trkpt>
      <trkpt lat="45.78408" lon="4.64041">
        <ele>594.2321777</ele>
        <time>2012-11-04T09:31:52Z</time>
      </trkpt>
      <trkpt lat="45.78407" lon="4.64036">
        <ele>598.0773926</ele>
        <time>2012-11-04T09:31:57Z</time>
      </trkpt>
      <trkpt lat="45.78404" lon="4.64028">
        <ele>601.4418945</ele>
        <time>2012-11-04T09:32:03Z</time>
      </trkpt>
      <trkpt lat="45.78404" lon="4.64022">
        <ele>602.8837891</ele>
        <time>2012-11-04T09:32:07Z</time>
      </trkpt>
      <trkpt lat="45.78398" lon="4.6401">
        <ele>603.8452148</ele>
        <time>2012-11-04T09:32:12Z</time>
      </trkpt>
      <trkpt lat="45.78396" lon="4.64007">
        <ele>606.729248</ele>
        <time>2012-11-04T09:32:14Z</time>
      </trkpt>
      <trkpt lat="45.78393" lon="4.64002">
        <ele>607.2099609</ele>
        <time>2012-11-04T09:32:16Z</time>
      </trkpt>
      <trkpt lat="45.78392" lon="4.63985">
        <ele>610.09375</ele>
        <time>2012-11-04T09:32:22Z</time>
      </trkpt>
      <trkpt lat="45.78394" lon="4.63976">
        <ele>610.5744629</ele>
        <time>2012-11-04T09:32:26Z</time>
      </trkpt>
      <trkpt lat="45.78395" lon="4.63953">
        <ele>610.5744629</ele>
        <time>2012-11-04T09:32:35Z</time>
      </trkpt>
      <trkpt lat="45.78392" lon="4.63938">
        <ele>601.9226074</ele>
        <time>2012-11-04T09:32:41Z</time>
      </trkpt>
      <trkpt lat="45.78393" lon="4.63931">
        <ele>601.9226074</ele>
        <time>2012-11-04T09:32:46Z</time>
      </trkpt>
      <trkpt lat="45.78393" lon="4.6393">
        <ele>600.4807129</ele>
        <time>2012-11-04T09:32:51Z</time>
      </trkpt>
      <trkpt lat="45.78394" lon="4.63926">
        <ele>604.8066406</ele>
        <time>2012-11-04T09:32:57Z</time>
      </trkpt>
      <trkpt lat="45.78394" lon="4.63926">
        <ele>607.2099609</ele>
        <time>2012-11-04T09:32:59Z</time>
      </trkpt>
      <trkpt lat="45.78392" lon="4.63927">
        <ele>612.0166016</ele>
        <time>2012-11-04T09:33:05Z</time>
      </trkpt>
      <trkpt lat="45.78391" lon="4.63924">
        <ele>610.5744629</ele>
        <time>2012-11-04T09:33:08Z</time>
      </trkpt>
      <trkpt lat="45.78388" lon="4.63919">
        <ele>605.2873535</ele>
        <time>2012-11-04T09:33:14Z</time>
      </trkpt>
      <trkpt lat="45.78389" lon="4.6392">
        <ele>606.729248</ele>
        <time>2012-11-04T09:33:19Z</time>
      </trkpt>
      <trkpt lat="45.78389" lon="4.6392">
        <ele>606.729248</ele>
        <time>2012-11-04T09:33:20Z</time>
      </trkpt>
      <trkpt lat="45.78374" lon="4.63915">
        <ele>601.4418945</ele>
        <time>2012-11-04T09:33:26Z</time>
      </trkpt>
      <trkpt lat="45.78357" lon="4.63899">
        <ele>597.5966797</ele>
        <time>2012-11-04T09:33:32Z</time>
      </trkpt>
      <trkpt lat="45.78356" lon="4.63896">
        <ele>596.1547852</ele>
        <time>2012-11-04T09:33:33Z</time>
      </trkpt>
      <trkpt lat="45.78359" lon="4.63877">
        <ele>588.4643555</ele>
        <time>2012-11-04T09:33:39Z</time>
      </trkpt>
      <trkpt lat="45.78362" lon="4.63858">
        <ele>593.7514648</ele>
        <time>2012-11-04T09:33:44Z</time>
      </trkpt>
      <trkpt lat="45.78349" lon="4.63822">
        <ele>592.3095703</ele>
        <time>2012-11-04T09:33:51Z</time>
      </trkpt>
      <trkpt lat="45.78335" lon="4.63811">
        <ele>594.2321777</ele>
        <time>2012-11-04T09:33:56Z</time>
      </trkpt>
      <trkpt lat="45.78331" lon="4.63804">
        <ele>600.4807129</ele>
        <time>2012-11-04T09:34:00Z</time>
      </trkpt>
      <trkpt lat="45.78324" lon="4.638">
        <ele>596.1547852</ele>
        <time>2012-11-04T09:34:04Z</time>
      </trkpt>
      <trkpt lat="45.78315" lon="4.63785">
        <ele>601.9226074</ele>
        <time>2012-11-04T09:34:10Z</time>
      </trkpt>
      <trkpt lat="45.78318" lon="4.63775">
        <ele>609.6132813</ele>
        <time>2012-11-04T09:34:15Z</time>
      </trkpt>
      <trkpt lat="45.78315" lon="4.63764">
        <ele>611.0551758</ele>
        <time>2012-11-04T09:34:21Z</time>
      </trkpt>
      <trkpt lat="45.78315" lon="4.63764">
        <ele>613.9389648</ele>
        <time>2012-11-04T09:34:25Z</time>
      </trkpt>
      <trkpt lat="45.78298" lon="4.63762">
        <ele>611.5358887</ele>
        <time>2012-11-04T09:34:34Z</time>
      </trkpt>
      <trkpt lat="45.78295" lon="4.63756">
        <ele>609.6132813</ele>
        <time>2012-11-04T09:34:39Z</time>
      </trkpt>
      <trkpt lat="45.78289" lon="4.63751">
        <ele>611.5358887</ele>
        <time>2012-11-04T09:34:45Z</time>
      </trkpt>
      <trkpt lat="45.78287" lon="4.63754">
        <ele>614.9003906</ele>
        <time>2012-11-04T09:34:50Z</time>
      </trkpt>
      <trkpt lat="45.78283" lon="4.63756">
        <ele>618.7456055</ele>
        <time>2012-11-04T09:34:56Z</time>
      </trkpt>
      <trkpt lat="45.78277" lon="4.63756">
        <ele>617.3037109</ele>
        <time>2012-11-04T09:35:02Z</time>
      </trkpt>
      <trkpt lat="45.78272" lon="4.63753">
        <ele>615.8618164</ele>
        <time>2012-11-04T09:35:08Z</time>
      </trkpt>
      <trkpt lat="45.78262" lon="4.63754">
        <ele>618.7456055</ele>
        <time>2012-11-04T09:35:13Z</time>
      </trkpt>
      <trkpt lat="45.78258" lon="4.63758">
        <ele>618.7456055</ele>
        <time>2012-11-04T09:35:17Z</time>
      </trkpt>
      <trkpt lat="45.7826" lon="4.6376">
        <ele>620.668457</ele>
        <time>2012-11-04T09:35:25Z</time>
      </trkpt>
      <trkpt lat="45.78264" lon="4.6376">
        <ele>623.5524902</ele>
        <time>2012-11-04T09:35:38Z</time>
      </trkpt>
      <trkpt lat="45.78261" lon="4.63761">
        <ele>616.822998</ele>
        <time>2012-11-04T09:35:45Z</time>
      </trkpt>
      <trkpt lat="45.78257" lon="4.63766">
        <ele>615.8618164</ele>
        <time>2012-11-04T09:35:51Z</time>
      </trkpt>
      <trkpt lat="45.78255" lon="4.63773">
        <ele>619.2263184</ele>
        <time>2012-11-04T09:35:57Z</time>
      </trkpt>
      <trkpt lat="45.78257" lon="4.6378">
        <ele>619.7070313</ele>
        <time>2012-11-04T09:36:04Z</time>
      </trkpt>
      <trkpt lat="45.7826" lon="4.63783">
        <ele>618.2648926</ele>
        <time>2012-11-04T09:36:09Z</time>
      </trkpt>
      <trkpt lat="45.78264" lon="4.63792">
        <ele>618.7456055</ele>
        <time>2012-11-04T09:36:16Z</time>
      </trkpt>
      <trkpt lat="45.78264" lon="4.63796">
        <ele>618.7456055</ele>
        <time>2012-11-04T09:36:19Z</time>
      </trkpt>
      <trkpt lat="45.78263" lon="4.63805">
        <ele>621.1491699</ele>
        <time>2012-11-04T09:36:24Z</time>
      </trkpt>
      <trkpt lat="45.78263" lon="4.63825">
        <ele>619.7070313</ele>
        <time>2012-11-04T09:36:30Z</time>
      </trkpt>
      <trkpt lat="45.78267" lon="4.63851">
        <ele>617.3037109</ele>
        <time>2012-11-04T09:36:38Z</time>
      </trkpt>
      <trkpt lat="45.7827" lon="4.63868">
        <ele>614.4196777</ele>
        <time>2012-11-04T09:36:44Z</time>
      </trkpt>
      <trkpt lat="45.78266" lon="4.63881">
        <ele>618.2648926</ele>
        <time>2012-11-04T09:36:49Z</time>
      </trkpt>
      <trkpt lat="45.78264" lon="4.63888">
        <ele>623.0717773</ele>
        <time>2012-11-04T09:36:54Z</time>
      </trkpt>
      <trkpt lat="45.78266" lon="4.63903">
        <ele>624.5136719</ele>
        <time>2012-11-04T09:37:00Z</time>
      </trkpt>
      <trkpt lat="45.78268" lon="4.63915">
        <ele>624.5136719</ele>
        <time>2012-11-04T09:37:05Z</time>
      </trkpt>
      <trkpt lat="45.78264" lon="4.63926">
        <ele>624.5136719</ele>
        <time>2012-11-04T09:37:11Z</time>
      </trkpt>
      <trkpt lat="45.78264" lon="4.63933">
        <ele>626.4362793</ele>
        <time>2012-11-04T09:37:15Z</time>
      </trkpt>
      <trkpt lat="45.78266" lon="4.63945">
        <ele>625.4748535</ele>
        <time>2012-11-04T09:37:20Z</time>
      </trkpt>
      <trkpt lat="45.78265" lon="4.63955">
        <ele>625.4748535</ele>
        <time>2012-11-04T09:37:25Z</time>
      </trkpt>
      <trkpt lat="45.78268" lon="4.63959">
        <ele>626.9169922</ele>
        <time>2012-11-04T09:37:28Z</time>
      </trkpt>
      <trkpt lat="45.78271" lon="4.63974">
        <ele>623.5524902</ele>
        <time>2012-11-04T09:37:34Z</time>
      </trkpt>
      <trkpt lat="45.78275" lon="4.63989">
        <ele>621.6296387</ele>
        <time>2012-11-04T09:37:39Z</time>
      </trkpt>
      <trkpt lat="45.78274" lon="4.63995">
        <ele>620.668457</ele>
        <time>2012-11-04T09:37:41Z</time>
      </trkpt>
      <trkpt lat="45.78278" lon="4.64014">
        <ele>619.7070313</ele>
        <time>2012-11-04T09:37:48Z</time>
      </trkpt>
      <trkpt lat="45.78275" lon="4.6402">
        <ele>624.032959</ele>
        <time>2012-11-04T09:37:53Z</time>
      </trkpt>
      <trkpt lat="45.78271" lon="4.64028">
        <ele>632.2041016</ele>
        <time>2012-11-04T09:37:59Z</time>
      </trkpt>
      <trkpt lat="45.78263" lon="4.64038">
        <ele>642.2980957</ele>
        <time>2012-11-04T09:38:05Z</time>
      </trkpt>
      <trkpt lat="45.78259" lon="4.64042">
        <ele>643.7399902</ele>
        <time>2012-11-04T09:38:09Z</time>
      </trkpt>
      <trkpt lat="45.78252" lon="4.6405">
        <ele>651.9111328</ele>
        <time>2012-11-04T09:38:16Z</time>
      </trkpt>
      <trkpt lat="45.78248" lon="4.64052">
        <ele>655.2758789</ele>
        <time>2012-11-04T09:38:21Z</time>
      </trkpt>
      <trkpt lat="45.78238" lon="4.64051">
        <ele>654.3146973</ele>
        <time>2012-11-04T09:38:27Z</time>
      </trkpt>
      <trkpt lat="45.78232" lon="4.64055">
        <ele>647.5852051</ele>
        <time>2012-11-04T09:38:33Z</time>
      </trkpt>
      <trkpt lat="45.78224" lon="4.64054">
        <ele>640.3754883</ele>
        <time>2012-11-04T09:38:37Z</time>
      </trkpt>
      <trkpt lat="45.78207" lon="4.64051">
        <ele>640.3754883</ele>
        <time>2012-11-04T09:38:43Z</time>
      </trkpt>
      <trkpt lat="45.78193" lon="4.64044">
        <ele>635.5686035</ele>
        <time>2012-11-04T09:38:49Z</time>
      </trkpt>
      <trkpt lat="45.78178" lon="4.64031">
        <ele>630.762207</ele>
        <time>2012-11-04T09:38:54Z</time>
      </trkpt>
      <trkpt lat="45.7816" lon="4.64013">
        <ele>629.8007813</ele>
        <time>2012-11-04T09:39:00Z</time>
      </trkpt>
      <trkpt lat="45.78153" lon="4.64008">
        <ele>631.7233887</ele>
        <time>2012-11-04T09:39:03Z</time>
      </trkpt>
      <trkpt lat="45.78134" lon="4.64007">
        <ele>637.4914551</ele>
        <time>2012-11-04T09:39:09Z</time>
      </trkpt>
      <trkpt lat="45.78127" lon="4.64007">
        <ele>637.972168</ele>
        <time>2012-11-04T09:39:12Z</time>
      </trkpt>
      <trkpt lat="45.78097" lon="4.64011">
        <ele>630.2814941</ele>
        <time>2012-11-04T09:39:19Z</time>
      </trkpt>
      <trkpt lat="45.78075" lon="4.64004">
        <ele>628.3588867</ele>
        <time>2012-11-04T09:39:23Z</time>
      </trkpt>
      <trkpt lat="45.78041" lon="4.63998">
        <ele>628.8395996</ele>
        <time>2012-11-04T09:39:30Z</time>
      </trkpt>
      <trkpt lat="45.78012" lon="4.6399">
        <ele>630.762207</ele>
        <time>2012-11-04T09:39:36Z</time>
      </trkpt>
      <trkpt lat="45.77979" lon="4.63989">
        <ele>637.4914551</ele>
        <time>2012-11-04T09:39:42Z</time>
      </trkpt>
      <trkpt lat="45.77951" lon="4.63992">
        <ele>639.8947754</ele>
        <time>2012-11-04T09:39:48Z</time>
      </trkpt>
      <trkpt lat="45.77924" lon="4.63989">
        <ele>634.126709</ele>
        <time>2012-11-04T09:39:53Z</time>
      </trkpt>
      <trkpt lat="45.77897" lon="4.63981">
        <ele>619.7070313</ele>
        <time>2012-11-04T09:39:57Z</time>
      </trkpt>
      <trkpt lat="45.77877" lon="4.63972">
        <ele>612.4970703</ele>
        <time>2012-11-04T09:40:02Z</time>
      </trkpt>
      <trkpt lat="45.77868" lon="4.63968">
        <ele>612.9777832</ele>
        <time>2012-11-04T09:40:04Z</time>
      </trkpt>
      <trkpt lat="45.77849" lon="4.63962">
        <ele>611.0551758</ele>
        <time>2012-11-04T09:40:08Z</time>
      </trkpt>
      <trkpt lat="45.77825" lon="4.63969">
        <ele>609.6132813</ele>
        <time>2012-11-04T09:40:14Z</time>
      </trkpt>
      <trkpt lat="45.77807" lon="4.63974">
        <ele>610.09375</ele>
        <time>2012-11-04T09:40:19Z</time>
      </trkpt>
      <trkpt lat="45.77801" lon="4.63982">
        <ele>608.6518555</ele>
        <time>2012-11-04T09:40:23Z</time>
      </trkpt>
      <trkpt lat="45.77797" lon="4.63993">
        <ele>607.2099609</ele>
        <time>2012-11-04T09:40:27Z</time>
      </trkpt>
      <trkpt lat="45.77793" lon="4.6401">
        <ele>608.1713867</ele>
        <time>2012-11-04T09:40:33Z</time>
      </trkpt>
      <trkpt lat="45.77793" lon="4.64011">
        <ele>607.2099609</ele>
        <time>2012-11-04T09:40:38Z</time>
      </trkpt>
      <trkpt lat="45.77793" lon="4.64012">
        <ele>604.3261719</ele>
        <time>2012-11-04T09:40:44Z</time>
      </trkpt>
      <trkpt lat="45.77796" lon="4.64012">
        <ele>602.4030762</ele>
        <time>2012-11-04T09:40:50Z</time>
      </trkpt>
      <trkpt lat="45.77796" lon="4.64013">
        <ele>602.4030762</ele>
        <time>2012-11-04T09:40:53Z</time>
      </trkpt>
      <trkpt lat="45.77796" lon="4.64">
        <ele>610.5744629</ele>
        <time>2012-11-04T09:48:07Z</time>
      </trkpt>
      <trkpt lat="45.77796" lon="4.64">
        <ele>610.5744629</ele>
        <time>2012-11-04T09:48:08Z</time>
      </trkpt>
      <trkpt lat="45.77796" lon="4.64">
        <ele>610.5744629</ele>
        <time>2012-11-04T09:48:09Z</time>
      </trkpt>
      <trkpt lat="45.77802" lon="4.64005">
        <ele>611.0551758</ele>
        <time>2012-11-04T09:48:13Z</time>
      </trkpt>
      <trkpt lat="45.77804" lon="4.64011">
        <ele>611.5358887</ele>
        <time>2012-11-04T09:48:17Z</time>
      </trkpt>
      <trkpt lat="45.77807" lon="4.64032">
        <ele>609.6132813</ele>
        <time>2012-11-04T09:48:22Z</time>
      </trkpt>
      <trkpt lat="45.77811" lon="4.64059">
        <ele>606.729248</ele>
        <time>2012-11-04T09:48:28Z</time>
      </trkpt>
      <trkpt lat="45.77811" lon="4.64064">
        <ele>606.2485352</ele>
        <time>2012-11-04T09:48:29Z</time>
      </trkpt>
      <trkpt lat="45.77815" lon="4.64106">
        <ele>604.8066406</ele>
        <time>2012-11-04T09:48:36Z</time>
      </trkpt>
      <trkpt lat="45.77818" lon="4.64122">
        <ele>604.8066406</ele>
        <time>2012-11-04T09:48:39Z</time>
      </trkpt>
      <trkpt lat="45.77823" lon="4.64162">
        <ele>604.8066406</ele>
        <time>2012-11-04T09:48:46Z</time>
      </trkpt>
      <trkpt lat="45.77827" lon="4.64198">
        <ele>603.364502</ele>
        <time>2012-11-04T09:48:51Z</time>
      </trkpt>
      <trkpt lat="45.77841" lon="4.64234">
        <ele>605.2873535</ele>
        <time>2012-11-04T09:48:58Z</time>
      </trkpt>
      <trkpt lat="45.77842" lon="4.64237">
        <ele>606.2485352</ele>
        <time>2012-11-04T09:49:02Z</time>
      </trkpt>
      <trkpt lat="45.77841" lon="4.64238">
        <ele>606.729248</ele>
        <time>2012-11-04T09:49:04Z</time>
      </trkpt>
      <trkpt lat="45.77836" lon="4.64252">
        <ele>604.8066406</ele>
        <time>2012-11-04T09:49:09Z</time>
      </trkpt>
      <trkpt lat="45.77825" lon="4.64259">
        <ele>601.4418945</ele>
        <time>2012-11-04T09:49:13Z</time>
      </trkpt>
      <trkpt lat="45.77812" lon="4.64254">
        <ele>597.5966797</ele>
        <time>2012-11-04T09:49:18Z</time>
      </trkpt>
      <trkpt lat="45.77806" lon="4.64257">
        <ele>594.7126465</ele>
        <time>2012-11-04T09:49:22Z</time>
      </trkpt>
      <trkpt lat="45.77797" lon="4.64267">
        <ele>591.8288574</ele>
        <time>2012-11-04T09:49:26Z</time>
      </trkpt>
      <trkpt lat="45.77788" lon="4.64275">
        <ele>587.9833984</ele>
        <time>2012-11-04T09:49:30Z</time>
      </trkpt>
      <trkpt lat="45.77785" lon="4.64282">
        <ele>586.060791</ele>
        <time>2012-11-04T09:49:32Z</time>
      </trkpt>
      <trkpt lat="45.77782" lon="4.64288">
        <ele>584.6188965</ele>
        <time>2012-11-04T09:49:34Z</time>
      </trkpt>
      <trkpt lat="45.77775" lon="4.643">
        <ele>582.2155762</ele>
        <time>2012-11-04T09:49:39Z</time>
      </trkpt>
      <trkpt lat="45.77767" lon="4.64305">
        <ele>580.2929688</ele>
        <time>2012-11-04T09:49:44Z</time>
      </trkpt>
      <trkpt lat="45.77761" lon="4.64309">
        <ele>578.3703613</ele>
        <time>2012-11-04T09:49:49Z</time>
      </trkpt>
      <trkpt lat="45.77759" lon="4.64312">
        <ele>577.8896484</ele>
        <time>2012-11-04T09:49:55Z</time>
      </trkpt>
      <trkpt lat="45.77758" lon="4.64316">
        <ele>576.9284668</ele>
        <time>2012-11-04T09:49:59Z</time>
      </trkpt>
      <trkpt lat="45.77757" lon="4.64319">
        <ele>576.9284668</ele>
        <time>2012-11-04T09:50:05Z</time>
      </trkpt>
      <trkpt lat="45.77756" lon="4.6432">
        <ele>576.9284668</ele>
        <time>2012-11-04T09:50:07Z</time>
      </trkpt>
      <trkpt lat="45.77751" lon="4.64328">
        <ele>575.0058594</ele>
        <time>2012-11-04T09:50:13Z</time>
      </trkpt>
      <trkpt lat="45.77745" lon="4.64334">
        <ele>573.5639648</ele>
        <time>2012-11-04T09:50:19Z</time>
      </trkpt>
      <trkpt lat="45.77742" lon="4.64338">
        <ele>573.083252</ele>
        <time>2012-11-04T09:50:24Z</time>
      </trkpt>
      <trkpt lat="45.77735" lon="4.64347">
        <ele>571.1604004</ele>
        <time>2012-11-04T09:50:29Z</time>
      </trkpt>
      <trkpt lat="45.77725" lon="4.64362">
        <ele>567.3151855</ele>
        <time>2012-11-04T09:50:35Z</time>
      </trkpt>
      <trkpt lat="45.77714" lon="4.64381">
        <ele>563.4699707</ele>
        <time>2012-11-04T09:50:40Z</time>
      </trkpt>
      <trkpt lat="45.77703" lon="4.64404">
        <ele>560.5859375</ele>
        <time>2012-11-04T09:50:45Z</time>
      </trkpt>
      <trkpt lat="45.77693" lon="4.64419">
        <ele>557.2214355</ele>
        <time>2012-11-04T09:50:49Z</time>
      </trkpt>
      <trkpt lat="45.7769" lon="4.64423">
        <ele>556.2600098</ele>
        <time>2012-11-04T09:50:50Z</time>
      </trkpt>
      <trkpt lat="45.7768" lon="4.64442">
        <ele>553.3759766</ele>
        <time>2012-11-04T09:50:53Z</time>
      </trkpt>
      <trkpt lat="45.77672" lon="4.64464">
        <ele>551.934082</ele>
        <time>2012-11-04T09:50:57Z</time>
      </trkpt>
      <trkpt lat="45.77656" lon="4.64491">
        <ele>550.4921875</ele>
        <time>2012-11-04T09:51:02Z</time>
      </trkpt>
      <trkpt lat="45.77644" lon="4.64508">
        <ele>550.0114746</ele>
        <time>2012-11-04T09:51:06Z</time>
      </trkpt>
      <trkpt lat="45.77635" lon="4.64519">
        <ele>548.5693359</ele>
        <time>2012-11-04T09:51:11Z</time>
      </trkpt>
      <trkpt lat="45.77628" lon="4.64531">
        <ele>545.204834</ele>
        <time>2012-11-04T09:51:16Z</time>
      </trkpt>
      <trkpt lat="45.77625" lon="4.64534">
        <ele>544.2436523</ele>
        <time>2012-11-04T09:51:17Z</time>
      </trkpt>
      <trkpt lat="45.77618" lon="4.64554">
        <ele>537.9949951</ele>
        <time>2012-11-04T09:51:23Z</time>
      </trkpt>
      <trkpt lat="45.77618" lon="4.64568">
        <ele>535.1109619</ele>
        <time>2012-11-04T09:51:27Z</time>
      </trkpt>
      <trkpt lat="45.77606" lon="4.64585">
        <ele>533.6689453</ele>
        <time>2012-11-04T09:51:31Z</time>
      </trkpt>
      <trkpt lat="45.77579" lon="4.64609">
        <ele>530.7851563</ele>
        <time>2012-11-04T09:51:37Z</time>
      </trkpt>
      <trkpt lat="45.77565" lon="4.64618">
        <ele>527.4204102</ele>
        <time>2012-11-04T09:51:41Z</time>
      </trkpt>
      <trkpt lat="45.77554" lon="4.64616">
        <ele>524.536499</ele>
        <time>2012-11-04T09:51:45Z</time>
      </trkpt>
      <trkpt lat="45.77541" lon="4.64614">
        <ele>521.1719971</ele>
        <time>2012-11-04T09:51:50Z</time>
      </trkpt>
      <trkpt lat="45.77536" lon="4.64626">
        <ele>517.3266602</ele>
        <time>2012-11-04T09:51:55Z</time>
      </trkpt>
      <trkpt lat="45.77538" lon="4.64649">
        <ele>515.8846436</ele>
        <time>2012-11-04T09:51:59Z</time>
      </trkpt>
      <trkpt lat="45.7754" lon="4.64665">
        <ele>513.9620361</ele>
        <time>2012-11-04T09:52:03Z</time>
      </trkpt>
      <trkpt lat="45.77549" lon="4.64681">
        <ele>510.59729</ele>
        <time>2012-11-04T09:52:07Z</time>
      </trkpt>
      <trkpt lat="45.77559" lon="4.64686">
        <ele>508.6746826</ele>
        <time>2012-11-04T09:52:10Z</time>
      </trkpt>
      <trkpt lat="45.77578" lon="4.64691">
        <ele>505.3101807</ele>
        <time>2012-11-04T09:52:15Z</time>
      </trkpt>
      <trkpt lat="45.77594" lon="4.64696">
        <ele>504.348877</ele>
        <time>2012-11-04T09:52:19Z</time>
      </trkpt>
      <trkpt lat="45.77611" lon="4.64722">
        <ele>503.3874512</ele>
        <time>2012-11-04T09:52:25Z</time>
      </trkpt>
      <trkpt lat="45.77611" lon="4.64744">
        <ele>504.8294678</ele>
        <time>2012-11-04T09:52:29Z</time>
      </trkpt>
      <trkpt lat="45.77599" lon="4.64771">
        <ele>505.7908936</ele>
        <time>2012-11-04T09:52:34Z</time>
      </trkpt>
      <trkpt lat="45.77586" lon="4.64795">
        <ele>504.348877</ele>
        <time>2012-11-04T09:52:38Z</time>
      </trkpt>
      <trkpt lat="45.77577" lon="4.64813">
        <ele>501.4648438</ele>
        <time>2012-11-04T09:52:42Z</time>
      </trkpt>
      <trkpt lat="45.77574" lon="4.6484">
        <ele>498.5809326</ele>
        <time>2012-11-04T09:52:47Z</time>
      </trkpt>
      <trkpt lat="45.77572" lon="4.64858">
        <ele>496.1777344</ele>
        <time>2012-11-04T09:52:51Z</time>
      </trkpt>
      <trkpt lat="45.77573" lon="4.6487">
        <ele>495.2161865</ele>
        <time>2012-11-04T09:52:53Z</time>
      </trkpt>
      <trkpt lat="45.77574" lon="4.64896">
        <ele>493.2935791</ele>
        <time>2012-11-04T09:52:57Z</time>
      </trkpt>
      <trkpt lat="45.77565" lon="4.6492">
        <ele>495.2161865</ele>
        <time>2012-11-04T09:53:01Z</time>
      </trkpt>
      <trkpt lat="45.7755" lon="4.64941">
        <ele>493.2935791</ele>
        <time>2012-11-04T09:53:04Z</time>
      </trkpt>
      <trkpt lat="45.77531" lon="4.64952">
        <ele>488.4871826</ele>
        <time>2012-11-04T09:53:08Z</time>
      </trkpt>
      <trkpt lat="45.77514" lon="4.64961">
        <ele>485.1224365</ele>
        <time>2012-11-04T09:53:12Z</time>
      </trkpt>
      <trkpt lat="45.77509" lon="4.64978">
        <ele>482.7192383</ele>
        <time>2012-11-04T09:53:15Z</time>
      </trkpt>
      <trkpt lat="45.77506" lon="4.65007">
        <ele>479.835083</ele>
        <time>2012-11-04T09:53:20Z</time>
      </trkpt>
      <trkpt lat="45.77505" lon="4.65013">
        <ele>482.2385254</ele>
        <time>2012-11-04T09:53:23Z</time>
      </trkpt>
      <trkpt lat="45.77503" lon="4.65017">
        <ele>481.2772217</ele>
        <time>2012-11-04T09:53:30Z</time>
      </trkpt>
      <trkpt lat="45.77504" lon="4.65025">
        <ele>480.7966309</ele>
        <time>2012-11-04T09:54:01Z</time>
      </trkpt>
      <trkpt lat="45.77507" lon="4.65027">
        <ele>479.3544922</ele>
        <time>2012-11-04T09:54:15Z</time>
      </trkpt>
      <trkpt lat="45.77507" lon="4.6504">
        <ele>479.3544922</ele>
        <time>2012-11-04T09:54:19Z</time>
      </trkpt>
      <trkpt lat="45.77509" lon="4.65056">
        <ele>478.8739014</ele>
        <time>2012-11-04T09:54:23Z</time>
      </trkpt>
      <trkpt lat="45.77512" lon="4.65085">
        <ele>476.9512939</ele>
        <time>2012-11-04T09:54:27Z</time>
      </trkpt>
      <trkpt lat="45.77518" lon="4.65114">
        <ele>476.4705811</ele>
        <time>2012-11-04T09:54:32Z</time>
      </trkpt>
      <trkpt lat="45.77519" lon="4.65122">
        <ele>476.9512939</ele>
        <time>2012-11-04T09:54:34Z</time>
      </trkpt>
      <trkpt lat="45.77508" lon="4.65127">
        <ele>481.7578125</ele>
        <time>2012-11-04T09:54:38Z</time>
      </trkpt>
      <trkpt lat="45.77492" lon="4.65128">
        <ele>483.6804199</ele>
        <time>2012-11-04T09:54:43Z</time>
      </trkpt>
      <trkpt lat="45.77479" lon="4.65129">
        <ele>484.6418457</ele>
        <time>2012-11-04T09:54:47Z</time>
      </trkpt>
      <trkpt lat="45.77461" lon="4.6513">
        <ele>485.1224365</ele>
        <time>2012-11-04T09:54:52Z</time>
      </trkpt>
      <trkpt lat="45.77446" lon="4.65141">
        <ele>484.6418457</ele>
        <time>2012-11-04T09:54:57Z</time>
      </trkpt>
      <trkpt lat="45.77431" lon="4.65156">
        <ele>483.1998291</ele>
        <time>2012-11-04T09:55:03Z</time>
      </trkpt>
      <trkpt lat="45.77414" lon="4.65175">
        <ele>482.2385254</ele>
        <time>2012-11-04T09:55:09Z</time>
      </trkpt>
      <trkpt lat="45.77405" lon="4.65199">
        <ele>482.7192383</ele>
        <time>2012-11-04T09:55:14Z</time>
      </trkpt>
      <trkpt lat="45.77399" lon="4.65217">
        <ele>485.6030273</ele>
        <time>2012-11-04T09:55:19Z</time>
      </trkpt>
      <trkpt lat="45.7739" lon="4.65245">
        <ele>483.1998291</ele>
        <time>2012-11-04T09:55:26Z</time>
      </trkpt>
      <trkpt lat="45.77384" lon="4.65264">
        <ele>488.0064697</ele>
        <time>2012-11-04T09:55:32Z</time>
      </trkpt>
      <trkpt lat="45.7738" lon="4.65282">
        <ele>489.4483643</ele>
        <time>2012-11-04T09:55:37Z</time>
      </trkpt>
      <trkpt lat="45.77374" lon="4.65303">
        <ele>488.0064697</ele>
        <time>2012-11-04T09:55:42Z</time>
      </trkpt>
      <trkpt lat="45.77365" lon="4.6533">
        <ele>489.9290771</ele>
        <time>2012-11-04T09:55:47Z</time>
      </trkpt>
      <trkpt lat="45.77361" lon="4.65369">
        <ele>488.0064697</ele>
        <time>2012-11-04T09:55:53Z</time>
      </trkpt>
      <trkpt lat="45.77359" lon="4.654">
        <ele>484.1611328</ele>
        <time>2012-11-04T09:55:58Z</time>
      </trkpt>
      <trkpt lat="45.77362" lon="4.65435">
        <ele>477.9124756</ele>
        <time>2012-11-04T09:56:05Z</time>
      </trkpt>
      <trkpt lat="45.77366" lon="4.65473">
        <ele>469.741333</ele>
        <time>2012-11-04T09:56:13Z</time>
      </trkpt>
      <trkpt lat="45.77363" lon="4.65506">
        <ele>469.741333</ele>
        <time>2012-11-04T09:56:18Z</time>
      </trkpt>
      <trkpt lat="45.77357" lon="4.65539">
        <ele>469.741333</ele>
        <time>2012-11-04T09:56:23Z</time>
      </trkpt>
      <trkpt lat="45.77356" lon="4.65546">
        <ele>471.6639404</ele>
        <time>2012-11-04T09:56:24Z</time>
      </trkpt>
      <trkpt lat="45.77355" lon="4.6558">
        <ele>472.6253662</ele>
        <time>2012-11-04T09:56:28Z</time>
      </trkpt>
      <trkpt lat="45.77355" lon="4.65598">
        <ele>471.1833496</ele>
        <time>2012-11-04T09:56:30Z</time>
      </trkpt>
      <trkpt lat="45.77356" lon="4.65637">
        <ele>468.2993164</ele>
        <time>2012-11-04T09:56:34Z</time>
      </trkpt>
      <trkpt lat="45.77359" lon="4.65653">
        <ele>467.3381348</ele>
        <time>2012-11-04T09:56:36Z</time>
      </trkpt>
      <trkpt lat="45.77353" lon="4.65704">
        <ele>467.3381348</ele>
        <time>2012-11-04T09:56:42Z</time>
      </trkpt>
      <trkpt lat="45.77351" lon="4.6574">
        <ele>461.5701904</ele>
        <time>2012-11-04T09:56:47Z</time>
      </trkpt>
      <trkpt lat="45.77346" lon="4.65778">
        <ele>453.3989258</ele>
        <time>2012-11-04T09:56:54Z</time>
      </trkpt>
      <trkpt lat="45.77332" lon="4.65787">
        <ele>451.9570313</ele>
        <time>2012-11-04T09:56:59Z</time>
      </trkpt>
      <trkpt lat="45.77322" lon="4.65795">
        <ele>450.0344238</ele>
        <time>2012-11-04T09:57:02Z</time>
      </trkpt>
      <trkpt lat="45.77302" lon="4.65812">
        <ele>446.1890869</ele>
        <time>2012-11-04T09:57:08Z</time>
      </trkpt>
      <trkpt lat="45.77281" lon="4.65829">
        <ele>444.7470703</ele>
        <time>2012-11-04T09:57:14Z</time>
      </trkpt>
      <trkpt lat="45.77268" lon="4.65842">
        <ele>443.7857666</ele>
        <time>2012-11-04T09:57:19Z</time>
      </trkpt>
      <trkpt lat="45.7726" lon="4.65861">
        <ele>440.4212646</ele>
        <time>2012-11-04T09:57:23Z</time>
      </trkpt>
      <trkpt lat="45.77262" lon="4.65896">
        <ele>439.4597168</ele>
        <time>2012-11-04T09:57:28Z</time>
      </trkpt>
      <trkpt lat="45.77274" lon="4.65927">
        <ele>438.4985352</ele>
        <time>2012-11-04T09:57:33Z</time>
      </trkpt>
      <trkpt lat="45.77277" lon="4.65937">
        <ele>438.0178223</ele>
        <time>2012-11-04T09:57:35Z</time>
      </trkpt>
      <trkpt lat="45.7729" lon="4.65957">
        <ele>436.0952148</ele>
        <time>2012-11-04T09:57:39Z</time>
      </trkpt>
      <trkpt lat="45.77299" lon="4.65963">
        <ele>434.6533203</ele>
        <time>2012-11-04T09:57:41Z</time>
      </trkpt>
      <trkpt lat="45.77313" lon="4.65969">
        <ele>432.7307129</ele>
        <time>2012-11-04T09:57:44Z</time>
      </trkpt>
      <trkpt lat="45.77341" lon="4.65996">
        <ele>429.8465576</ele>
        <time>2012-11-04T09:57:49Z</time>
      </trkpt>
      <trkpt lat="45.77343" lon="4.66002">
        <ele>431.2885742</ele>
        <time>2012-11-04T09:57:50Z</time>
      </trkpt>
      <trkpt lat="45.77354" lon="4.66042">
        <ele>431.769165</ele>
        <time>2012-11-04T09:57:56Z</time>
      </trkpt>
      <trkpt lat="45.77346" lon="4.66066">
        <ele>430.3272705</ele>
        <time>2012-11-04T09:58:00Z</time>
      </trkpt>
      <trkpt lat="45.77336" lon="4.66106">
        <ele>427.9239502</ele>
        <time>2012-11-04T09:58:04Z</time>
      </trkpt>
      <trkpt lat="45.77339" lon="4.66139">
        <ele>424.0787354</ele>
        <time>2012-11-04T09:58:09Z</time>
      </trkpt>
      <trkpt lat="45.77345" lon="4.66159">
        <ele>423.5980225</ele>
        <time>2012-11-04T09:58:13Z</time>
      </trkpt>
      <trkpt lat="45.77345" lon="4.66195">
        <ele>420.7141113</ele>
        <time>2012-11-04T09:58:18Z</time>
      </trkpt>
      <trkpt lat="45.77345" lon="4.66205">
        <ele>419.7528076</ele>
        <time>2012-11-04T09:58:19Z</time>
      </trkpt>
      <trkpt lat="45.77358" lon="4.66236">
        <ele>418.310791</ele>
        <time>2012-11-04T09:58:23Z</time>
      </trkpt>
      <trkpt lat="45.77381" lon="4.6627">
        <ele>418.7915039</ele>
        <time>2012-11-04T09:58:29Z</time>
      </trkpt>
      <trkpt lat="45.77397" lon="4.66317">
        <ele>419.2722168</ele>
        <time>2012-11-04T09:58:35Z</time>
      </trkpt>
      <trkpt lat="45.77402" lon="4.66335">
        <ele>421.1948242</ele>
        <time>2012-11-04T09:58:39Z</time>
      </trkpt>
      <trkpt lat="45.77403" lon="4.66344">
        <ele>421.675415</ele>
        <time>2012-11-04T09:58:41Z</time>
      </trkpt>
      <trkpt lat="45.77391" lon="4.66396">
        <ele>416.8688965</ele>
        <time>2012-11-04T09:58:47Z</time>
      </trkpt>
      <trkpt lat="45.77389" lon="4.66403">
        <ele>414.946167</ele>
        <time>2012-11-04T09:58:48Z</time>
      </trkpt>
      <trkpt lat="45.7738" lon="4.66439">
        <ele>409.1783447</ele>
        <time>2012-11-04T09:58:54Z</time>
      </trkpt>
      <trkpt lat="45.77373" lon="4.66466">
        <ele>407.7363281</ele>
        <time>2012-11-04T09:58:58Z</time>
      </trkpt>
      <trkpt lat="45.77368" lon="4.6649">
        <ele>401.9685059</ele>
        <time>2012-11-04T09:59:02Z</time>
      </trkpt>
      <trkpt lat="45.77355" lon="4.66537">
        <ele>399.5650635</ele>
        <time>2012-11-04T09:59:08Z</time>
      </trkpt>
      <trkpt lat="45.77349" lon="4.66567">
        <ele>400.0458984</ele>
        <time>2012-11-04T09:59:12Z</time>
      </trkpt>
      <trkpt lat="45.77345" lon="4.6658">
        <ele>396.2005615</ele>
        <time>2012-11-04T09:59:16Z</time>
      </trkpt>
      <trkpt lat="45.77345" lon="4.66581">
        <ele>396.2005615</ele>
        <time>2012-11-04T09:59:17Z</time>
      </trkpt>
      <trkpt lat="45.77352" lon="4.66585">
        <ele>394.2779541</ele>
        <time>2012-11-04T09:59:21Z</time>
      </trkpt>
      <trkpt lat="45.77343" lon="4.66598">
        <ele>396.6811523</ele>
        <time>2012-11-04T09:59:25Z</time>
      </trkpt>
      <trkpt lat="45.77313" lon="4.66612">
        <ele>392.8359375</ele>
        <time>2012-11-04T09:59:31Z</time>
      </trkpt>
      <trkpt lat="45.77302" lon="4.66617">
        <ele>392.3553467</ele>
        <time>2012-11-04T09:59:33Z</time>
      </trkpt>
      <trkpt lat="45.77289" lon="4.66633">
        <ele>388.0292969</ele>
        <time>2012-11-04T09:59:37Z</time>
      </trkpt>
      <trkpt lat="45.77291" lon="4.66645">
        <ele>387.0679932</ele>
        <time>2012-11-04T09:59:39Z</time>
      </trkpt>
      <trkpt lat="45.77302" lon="4.6669">
        <ele>383.2226563</ele>
        <time>2012-11-04T09:59:47Z</time>
      </trkpt>
      <trkpt lat="45.773" lon="4.66711">
        <ele>382.7420654</ele>
        <time>2012-11-04T09:59:52Z</time>
      </trkpt>
      <trkpt lat="45.77291" lon="4.66742">
        <ele>382.2613525</ele>
        <time>2012-11-04T09:59:59Z</time>
      </trkpt>
      <trkpt lat="45.77285" lon="4.66774">
        <ele>381.3000488</ele>
        <time>2012-11-04T10:00:05Z</time>
      </trkpt>
      <trkpt lat="45.77281" lon="4.6678">
        <ele>380.819458</ele>
        <time>2012-11-04T10:00:07Z</time>
      </trkpt>
      <trkpt lat="45.77264" lon="4.66783">
        <ele>378.4161377</ele>
        <time>2012-11-04T10:00:11Z</time>
      </trkpt>
      <trkpt lat="45.77253" lon="4.66793">
        <ele>376.0128174</ele>
        <time>2012-11-04T10:00:14Z</time>
      </trkpt>
      <trkpt lat="45.77251" lon="4.66801">
        <ele>375.5321045</ele>
        <time>2012-11-04T10:00:15Z</time>
      </trkpt>
      <trkpt lat="45.77235" lon="4.66853">
        <ele>373.6094971</ele>
        <time>2012-11-04T10:00:22Z</time>
      </trkpt>
      <trkpt lat="45.77213" lon="4.66901">
        <ele>374.5708008</ele>
        <time>2012-11-04T10:00:30Z</time>
      </trkpt>
      <trkpt lat="45.77195" lon="4.66951">
        <ele>379.8580322</ele>
        <time>2012-11-04T10:00:38Z</time>
      </trkpt>
      <trkpt lat="45.77176" lon="4.67007">
        <ele>380.819458</ele>
        <time>2012-11-04T10:00:46Z</time>
      </trkpt>
      <trkpt lat="45.77162" lon="4.67059">
        <ele>378.8968506</ele>
        <time>2012-11-04T10:00:53Z</time>
      </trkpt>
      <trkpt lat="45.77153" lon="4.67103">
        <ele>377.9354248</ele>
        <time>2012-11-04T10:00:59Z</time>
      </trkpt>
      <trkpt lat="45.77145" lon="4.67147">
        <ele>377.9354248</ele>
        <time>2012-11-04T10:01:06Z</time>
      </trkpt>
      <trkpt lat="45.7714" lon="4.67199">
        <ele>376.4935303</ele>
        <time>2012-11-04T10:01:14Z</time>
      </trkpt>
      <trkpt lat="45.77139" lon="4.67228">
        <ele>375.0515137</ele>
        <time>2012-11-04T10:01:19Z</time>
      </trkpt>
      <trkpt lat="45.7714" lon="4.67276">
        <ele>374.0900879</ele>
        <time>2012-11-04T10:01:27Z</time>
      </trkpt>
      <trkpt lat="45.77141" lon="4.67308">
        <ele>372.1674805</ele>
        <time>2012-11-04T10:01:33Z</time>
      </trkpt>
      <trkpt lat="45.7714" lon="4.67345">
        <ele>374.5708008</ele>
        <time>2012-11-04T10:01:40Z</time>
      </trkpt>
      <trkpt lat="45.77137" lon="4.67369">
        <ele>377.9354248</ele>
        <time>2012-11-04T10:01:45Z</time>
      </trkpt>
      <trkpt lat="45.77136" lon="4.67401">
        <ele>378.8968506</ele>
        <time>2012-11-04T10:01:52Z</time>
      </trkpt>
      <trkpt lat="45.77137" lon="4.67425">
        <ele>381.3000488</ele>
        <time>2012-11-04T10:01:57Z</time>
      </trkpt>
      <trkpt lat="45.77137" lon="4.67445">
        <ele>380.819458</ele>
        <time>2012-11-04T10:02:00Z</time>
      </trkpt>
      <trkpt lat="45.77145" lon="4.67499">
        <ele>383.7032471</ele>
        <time>2012-11-04T10:02:07Z</time>
      </trkpt>
      <trkpt lat="45.77157" lon="4.67545">
        <ele>380.819458</ele>
        <time>2012-11-04T10:02:13Z</time>
      </trkpt>
      <trkpt lat="45.77159" lon="4.6755">
        <ele>379.8580322</ele>
        <time>2012-11-04T10:02:14Z</time>
      </trkpt>
      <trkpt lat="45.7715" lon="4.67566">
        <ele>378.4161377</ele>
        <time>2012-11-04T10:02:18Z</time>
      </trkpt>
      <trkpt lat="45.77146" lon="4.67569">
        <ele>377.454834</ele>
        <time>2012-11-04T10:02:19Z</time>
      </trkpt>
      <trkpt lat="45.7711" lon="4.67593">
        <ele>379.8580322</ele>
        <time>2012-11-04T10:02:26Z</time>
      </trkpt>
      <trkpt lat="45.77077" lon="4.6762">
        <ele>383.7032471</ele>
        <time>2012-11-04T10:02:31Z</time>
      </trkpt>
      <trkpt lat="45.77028" lon="4.67662">
        <ele>382.2613525</ele>
        <time>2012-11-04T10:02:37Z</time>
      </trkpt>
      <trkpt lat="45.76991" lon="4.67704">
        <ele>375.5321045</ele>
        <time>2012-11-04T10:02:42Z</time>
      </trkpt>
      <trkpt lat="45.7698" lon="4.67723">
        <ele>373.6094971</ele>
        <time>2012-11-04T10:02:44Z</time>
      </trkpt>
      <trkpt lat="45.76957" lon="4.67778">
        <ele>367.3609619</ele>
        <time>2012-11-04T10:02:49Z</time>
      </trkpt>
      <trkpt lat="45.76933" lon="4.67831">
        <ele>362.5543213</ele>
        <time>2012-11-04T10:02:54Z</time>
      </trkpt>
      <trkpt lat="45.76923" lon="4.67854">
        <ele>361.1124268</ele>
        <time>2012-11-04T10:02:56Z</time>
      </trkpt>
      <trkpt lat="45.76902" lon="4.67924">
        <ele>358.2283936</ele>
        <time>2012-11-04T10:03:02Z</time>
      </trkpt>
      <trkpt lat="45.76897" lon="4.67962">
        <ele>354.8637695</ele>
        <time>2012-11-04T10:03:06Z</time>
      </trkpt>
      <trkpt lat="45.76896" lon="4.67978">
        <ele>351.9798584</ele>
        <time>2012-11-04T10:03:09Z</time>
      </trkpt>
      <trkpt lat="45.76874" lon="4.68002">
        <ele>347.1732178</ele>
        <time>2012-11-04T10:03:14Z</time>
      </trkpt>
      <trkpt lat="45.76852" lon="4.6801">
        <ele>345.7313232</ele>
        <time>2012-11-04T10:03:19Z</time>
      </trkpt>
      <trkpt lat="45.76835" lon="4.68019">
        <ele>345.2506104</ele>
        <time>2012-11-04T10:03:22Z</time>
      </trkpt>
      <trkpt lat="45.76818" lon="4.68048">
        <ele>344.2894287</ele>
        <time>2012-11-04T10:03:27Z</time>
      </trkpt>
      <trkpt lat="45.76826" lon="4.68058">
        <ele>341.8859863</ele>
        <time>2012-11-04T10:03:32Z</time>
      </trkpt>
      <trkpt lat="45.76828" lon="4.68059">
        <ele>342.3666992</ele>
        <time>2012-11-04T10:03:33Z</time>
      </trkpt>
      <trkpt lat="45.76847" lon="4.68058">
        <ele>342.84729</ele>
        <time>2012-11-04T10:03:40Z</time>
      </trkpt>
      <trkpt lat="45.76853" lon="4.68061">
        <ele>342.3666992</ele>
        <time>2012-11-04T10:03:43Z</time>
      </trkpt>
      <trkpt lat="45.76852" lon="4.68074">
        <ele>342.84729</ele>
        <time>2012-11-04T10:03:48Z</time>
      </trkpt>
      <trkpt lat="45.7685" lon="4.68077">
        <ele>344.2894287</ele>
        <time>2012-11-04T10:03:49Z</time>
      </trkpt>
      <trkpt lat="45.76841" lon="4.68093">
        <ele>347.1732178</ele>
        <time>2012-11-04T10:03:56Z</time>
      </trkpt>
      <trkpt lat="45.76836" lon="4.68104">
        <ele>344.2894287</ele>
        <time>2012-11-04T10:04:01Z</time>
      </trkpt>
      <trkpt lat="45.76836" lon="4.68109">
        <ele>345.2506104</ele>
        <time>2012-11-04T10:04:03Z</time>
      </trkpt>
      <trkpt lat="45.7684" lon="4.68124">
        <ele>343.3278809</ele>
        <time>2012-11-04T10:04:10Z</time>
      </trkpt>
      <trkpt lat="45.76844" lon="4.68133">
        <ele>345.7313232</ele>
        <time>2012-11-04T10:04:14Z</time>
      </trkpt>
      <trkpt lat="45.76849" lon="4.68134">
        <ele>345.7313232</ele>
        <time>2012-11-04T10:04:18Z</time>
      </trkpt>
      <trkpt lat="45.76857" lon="4.68134">
        <ele>347.6539307</ele>
        <time>2012-11-04T10:04:24Z</time>
      </trkpt>
      <trkpt lat="45.76865" lon="4.68142">
        <ele>350.057251</ele>
        <time>2012-11-04T10:04:30Z</time>
      </trkpt>
      <trkpt lat="45.76871" lon="4.68142">
        <ele>351.4991455</ele>
        <time>2012-11-04T10:04:34Z</time>
      </trkpt>
      <trkpt lat="45.76877" lon="4.68137">
        <ele>351.4991455</ele>
        <time>2012-11-04T10:04:39Z</time>
      </trkpt>
      <trkpt lat="45.76889" lon="4.68137">
        <ele>353.421875</ele>
        <time>2012-11-04T10:04:46Z</time>
      </trkpt>
      <trkpt lat="45.76898" lon="4.68139">
        <ele>354.8637695</ele>
        <time>2012-11-04T10:04:52Z</time>
      </trkpt>
      <trkpt lat="45.76913" lon="4.68129">
        <ele>350.5378418</ele>
        <time>2012-11-04T10:05:00Z</time>
      </trkpt>
      <trkpt lat="45.76915" lon="4.68127">
        <ele>350.057251</ele>
        <time>2012-11-04T10:05:01Z</time>
      </trkpt>
      <trkpt lat="45.76922" lon="4.68132">
        <ele>349.0958252</ele>
        <time>2012-11-04T10:05:06Z</time>
      </trkpt>
      <trkpt lat="45.76934" lon="4.68141">
        <ele>353.9025879</ele>
        <time>2012-11-04T10:05:13Z</time>
      </trkpt>
      <trkpt lat="45.76937" lon="4.68154">
        <ele>355.3444824</ele>
        <time>2012-11-04T10:05:21Z</time>
      </trkpt>
      <trkpt lat="45.76938" lon="4.68169">
        <ele>359.6704102</ele>
        <time>2012-11-04T10:05:29Z</time>
      </trkpt>
      <trkpt lat="45.76939" lon="4.68182">
        <ele>359.1896973</ele>
        <time>2012-11-04T10:05:36Z</time>
      </trkpt>
      <trkpt lat="45.76936" lon="4.68187">
        <ele>361.5931396</ele>
        <time>2012-11-04T10:05:42Z</time>
      </trkpt>
      <trkpt lat="45.76938" lon="4.68198">
        <ele>363.0350342</ele>
        <time>2012-11-04T10:05:47Z</time>
      </trkpt>
      <trkpt lat="45.76933" lon="4.68207">
        <ele>361.5931396</ele>
        <time>2012-11-04T10:05:54Z</time>
      </trkpt>
      <trkpt lat="45.76933" lon="4.68208">
        <ele>362.5543213</ele>
        <time>2012-11-04T10:05:55Z</time>
      </trkpt>
      <trkpt lat="45.76927" lon="4.68222">
        <ele>364.4769287</ele>
        <time>2012-11-04T10:06:02Z</time>
      </trkpt>
      <trkpt lat="45.76921" lon="4.68243">
        <ele>367.3609619</ele>
        <time>2012-11-04T10:06:09Z</time>
      </trkpt>
      <trkpt lat="45.76917" lon="4.68265">
        <ele>370.7255859</ele>
        <time>2012-11-04T10:06:16Z</time>
      </trkpt>
      <trkpt lat="45.76924" lon="4.68275">
        <ele>369.2836914</ele>
        <time>2012-11-04T10:06:21Z</time>
      </trkpt>
      <trkpt lat="45.7693" lon="4.68275">
        <ele>367.8415527</ele>
        <time>2012-11-04T10:06:24Z</time>
      </trkpt>
      <trkpt lat="45.76941" lon="4.6828">
        <ele>367.3609619</ele>
        <time>2012-11-04T10:06:29Z</time>
      </trkpt>
      <trkpt lat="45.76944" lon="4.68299">
        <ele>364.4769287</ele>
        <time>2012-11-04T10:06:36Z</time>
      </trkpt>
      <trkpt lat="45.76937" lon="4.68329">
        <ele>362.5543213</ele>
        <time>2012-11-04T10:06:43Z</time>
      </trkpt>
      <trkpt lat="45.76934" lon="4.68366">
        <ele>359.6704102</ele>
        <time>2012-11-04T10:06:49Z</time>
      </trkpt>
      <trkpt lat="45.76927" lon="4.68412">
        <ele>356.786377</ele>
        <time>2012-11-04T10:06:55Z</time>
      </trkpt>
      <trkpt lat="45.76919" lon="4.68438">
        <ele>354.8637695</ele>
        <time>2012-11-04T10:06:58Z</time>
      </trkpt>
      <trkpt lat="45.769" lon="4.68482">
        <ele>354.8637695</ele>
        <time>2012-11-04T10:07:03Z</time>
      </trkpt>
      <trkpt lat="45.76887" lon="4.68533">
        <ele>353.421875</ele>
        <time>2012-11-04T10:07:09Z</time>
      </trkpt>
      <trkpt lat="45.76878" lon="4.68564">
        <ele>356.3057861</ele>
        <time>2012-11-04T10:07:14Z</time>
      </trkpt>
      <trkpt lat="45.76869" lon="4.68596">
        <ele>356.3057861</ele>
        <time>2012-11-04T10:07:21Z</time>
      </trkpt>
      <trkpt lat="45.76862" lon="4.68632">
        <ele>355.8251953</ele>
        <time>2012-11-04T10:07:29Z</time>
      </trkpt>
      <trkpt lat="45.76854" lon="4.68664">
        <ele>358.2283936</ele>
        <time>2012-11-04T10:07:37Z</time>
      </trkpt>
      <trkpt lat="45.76839" lon="4.68693">
        <ele>361.1124268</ele>
        <time>2012-11-04T10:07:44Z</time>
      </trkpt>
      <trkpt lat="45.76817" lon="4.68736">
        <ele>363.5157471</ele>
        <time>2012-11-04T10:07:54Z</time>
      </trkpt>
      <trkpt lat="45.76802" lon="4.68767">
        <ele>361.5931396</ele>
        <time>2012-11-04T10:08:01Z</time>
      </trkpt>
      <trkpt lat="45.76795" lon="4.68772">
        <ele>360.151123</ele>
        <time>2012-11-04T10:08:03Z</time>
      </trkpt>
      <trkpt lat="45.76776" lon="4.68768">
        <ele>357.7478027</ele>
        <time>2012-11-04T10:08:07Z</time>
      </trkpt>
      <trkpt lat="45.76763" lon="4.68777">
        <ele>357.2670898</ele>
        <time>2012-11-04T10:08:11Z</time>
      </trkpt>
      <trkpt lat="45.76769" lon="4.6879">
        <ele>357.7478027</ele>
        <time>2012-11-04T10:08:14Z</time>
      </trkpt>
      <trkpt lat="45.76785" lon="4.68818">
        <ele>359.6704102</ele>
        <time>2012-11-04T10:08:22Z</time>
      </trkpt>
      <trkpt lat="45.76803" lon="4.68848">
        <ele>361.5931396</ele>
        <time>2012-11-04T10:08:32Z</time>
      </trkpt>
      <trkpt lat="45.7682" lon="4.68869">
        <ele>363.9963379</ele>
        <time>2012-11-04T10:08:41Z</time>
      </trkpt>
      <trkpt lat="45.76834" lon="4.68885">
        <ele>365.9189453</ele>
        <time>2012-11-04T10:08:49Z</time>
      </trkpt>
      <trkpt lat="45.76847" lon="4.68894">
        <ele>367.3609619</ele>
        <time>2012-11-04T10:08:56Z</time>
      </trkpt>
      <trkpt lat="45.76862" lon="4.68902">
        <ele>368.3222656</ele>
        <time>2012-11-04T10:09:03Z</time>
      </trkpt>
      <trkpt lat="45.76873" lon="4.68915">
        <ele>370.7255859</ele>
        <time>2012-11-04T10:09:09Z</time>
      </trkpt>
      <trkpt lat="45.76878" lon="4.68943">
        <ele>370.244873</ele>
        <time>2012-11-04T10:09:16Z</time>
      </trkpt>
      <trkpt lat="45.76885" lon="4.68976">
        <ele>369.7642822</ele>
        <time>2012-11-04T10:09:22Z</time>
      </trkpt>
      <trkpt lat="45.76889" lon="4.68987">
        <ele>369.7642822</ele>
        <time>2012-11-04T10:09:24Z</time>
      </trkpt>
      <trkpt lat="45.76911" lon="4.69029">
        <ele>368.3222656</ele>
        <time>2012-11-04T10:09:33Z</time>
      </trkpt>
      <trkpt lat="45.76917" lon="4.69038">
        <ele>367.8415527</ele>
        <time>2012-11-04T10:09:35Z</time>
      </trkpt>
      <trkpt lat="45.76924" lon="4.69054">
        <ele>367.3609619</ele>
        <time>2012-11-04T10:09:38Z</time>
      </trkpt>
      <trkpt lat="45.76929" lon="4.69084">
        <ele>365.4383545</ele>
        <time>2012-11-04T10:09:42Z</time>
      </trkpt>
      <trkpt lat="45.76928" lon="4.69136">
        <ele>359.6704102</ele>
        <time>2012-11-04T10:09:47Z</time>
      </trkpt>
      <trkpt lat="45.76926" lon="4.69199">
        <ele>356.786377</ele>
        <time>2012-11-04T10:09:52Z</time>
      </trkpt>
      <trkpt lat="45.76931" lon="4.6926">
        <ele>354.8637695</ele>
        <time>2012-11-04T10:09:57Z</time>
      </trkpt>
      <trkpt lat="45.76937" lon="4.69314">
        <ele>353.421875</ele>
        <time>2012-11-04T10:10:02Z</time>
      </trkpt>
      <trkpt lat="45.76939" lon="4.69358">
        <ele>353.421875</ele>
        <time>2012-11-04T10:10:07Z</time>
      </trkpt>
      <trkpt lat="45.76936" lon="4.694">
        <ele>354.8637695</ele>
        <time>2012-11-04T10:10:13Z</time>
      </trkpt>
      <trkpt lat="45.76932" lon="4.6945">
        <ele>357.2670898</ele>
        <time>2012-11-04T10:10:21Z</time>
      </trkpt>
      <trkpt lat="45.76931" lon="4.69503">
        <ele>358.2283936</ele>
        <time>2012-11-04T10:10:29Z</time>
      </trkpt>
      <trkpt lat="45.76928" lon="4.6955">
        <ele>357.2670898</ele>
        <time>2012-11-04T10:10:35Z</time>
      </trkpt>
      <trkpt lat="45.76927" lon="4.69562">
        <ele>357.2670898</ele>
        <time>2012-11-04T10:10:38Z</time>
      </trkpt>
      <trkpt lat="45.76927" lon="4.69573">
        <ele>356.786377</ele>
        <time>2012-11-04T10:10:41Z</time>
      </trkpt>
      <trkpt lat="45.76933" lon="4.69608">
        <ele>356.786377</ele>
        <time>2012-11-04T10:10:47Z</time>
      </trkpt>
      <trkpt lat="45.76939" lon="4.69654">
        <ele>354.8637695</ele>
        <time>2012-11-04T10:10:53Z</time>
      </trkpt>
      <trkpt lat="45.76943" lon="4.69712">
        <ele>351.9798584</ele>
        <time>2012-11-04T10:10:59Z</time>
      </trkpt>
      <trkpt lat="45.76945" lon="4.69745">
        <ele>350.057251</ele>
        <time>2012-11-04T10:11:03Z</time>
      </trkpt>
      <trkpt lat="45.76947" lon="4.69795">
        <ele>347.1732178</ele>
        <time>2012-11-04T10:11:10Z</time>
      </trkpt>
      <trkpt lat="45.76951" lon="4.69835">
        <ele>345.2506104</ele>
        <time>2012-11-04T10:11:16Z</time>
      </trkpt>
      <trkpt lat="45.7695" lon="4.69876">
        <ele>337.5600586</ele>
        <time>2012-11-04T10:11:22Z</time>
      </trkpt>
      <trkpt lat="45.76942" lon="4.69931">
        <ele>333.2341309</ele>
        <time>2012-11-04T10:11:28Z</time>
      </trkpt>
      <trkpt lat="45.76933" lon="4.69987">
        <ele>331.3115234</ele>
        <time>2012-11-04T10:11:34Z</time>
      </trkpt>
      <trkpt lat="45.76924" lon="4.70043">
        <ele>327.4661865</ele>
        <time>2012-11-04T10:11:41Z</time>
      </trkpt>
      <trkpt lat="45.76921" lon="4.70059">
        <ele>326.0241699</ele>
        <time>2012-11-04T10:11:44Z</time>
      </trkpt>
      <trkpt lat="45.76917" lon="4.70076">
        <ele>324.5822754</ele>
        <time>2012-11-04T10:11:48Z</time>
      </trkpt>
      <trkpt lat="45.7692" lon="4.70075">
        <ele>322.1789551</ele>
        <time>2012-11-04T10:11:51Z</time>
      </trkpt>
      <trkpt lat="45.76921" lon="4.70074">
        <ele>321.6983643</ele>
        <time>2012-11-04T10:11:52Z</time>
      </trkpt>
      <trkpt lat="45.7693" lon="4.70069">
        <ele>320.7370605</ele>
        <time>2012-11-04T10:11:57Z</time>
      </trkpt>
      <trkpt lat="45.76942" lon="4.70086">
        <ele>322.659668</ele>
        <time>2012-11-04T10:12:02Z</time>
      </trkpt>
      <trkpt lat="45.76949" lon="4.70093">
        <ele>326.5048828</ele>
        <time>2012-11-04T10:12:04Z</time>
      </trkpt>
      <trkpt lat="45.76986" lon="4.70139">
        <ele>327.9467773</ele>
        <time>2012-11-04T10:12:12Z</time>
      </trkpt>
      <trkpt lat="45.77019" lon="4.7018">
        <ele>327.4661865</ele>
        <time>2012-11-04T10:12:19Z</time>
      </trkpt>
      <trkpt lat="45.77056" lon="4.70226">
        <ele>326.9855957</ele>
        <time>2012-11-04T10:12:27Z</time>
      </trkpt>
      <trkpt lat="45.77091" lon="4.70271">
        <ele>326.9855957</ele>
        <time>2012-11-04T10:12:36Z</time>
      </trkpt>
      <trkpt lat="45.77128" lon="4.70307">
        <ele>326.9855957</ele>
        <time>2012-11-04T10:12:45Z</time>
      </trkpt>
      <trkpt lat="45.77165" lon="4.70332">
        <ele>326.5048828</ele>
        <time>2012-11-04T10:12:53Z</time>
      </trkpt>
      <trkpt lat="45.77222" lon="4.70363">
        <ele>326.0241699</ele>
        <time>2012-11-04T10:13:04Z</time>
      </trkpt>
      <trkpt lat="45.77274" lon="4.70391">
        <ele>324.5822754</ele>
        <time>2012-11-04T10:13:13Z</time>
      </trkpt>
      <trkpt lat="45.7732" lon="4.70415">
        <ele>323.1403809</ele>
        <time>2012-11-04T10:13:20Z</time>
      </trkpt>
      <trkpt lat="45.77341" lon="4.70428">
        <ele>321.6983643</ele>
        <time>2012-11-04T10:13:24Z</time>
      </trkpt>
      <trkpt lat="45.77343" lon="4.70436">
        <ele>321.6983643</ele>
        <time>2012-11-04T10:13:25Z</time>
      </trkpt>
      <trkpt lat="45.77349" lon="4.70466">
        <ele>320.7370605</ele>
        <time>2012-11-04T10:13:30Z</time>
      </trkpt>
      <trkpt lat="45.77353" lon="4.70498">
        <ele>321.2177734</ele>
        <time>2012-11-04T10:13:36Z</time>
      </trkpt>
      <trkpt lat="45.77361" lon="4.70558">
        <ele>320.7370605</ele>
        <time>2012-11-04T10:13:45Z</time>
      </trkpt>
      <trkpt lat="45.77362" lon="4.70571">
        <ele>319.7756348</ele>
        <time>2012-11-04T10:13:47Z</time>
      </trkpt>
      <trkpt lat="45.77363" lon="4.70616">
        <ele>318.3336182</ele>
        <time>2012-11-04T10:13:53Z</time>
      </trkpt>
      <trkpt lat="45.77357" lon="4.70658">
        <ele>314.0078125</ele>
        <time>2012-11-04T10:13:59Z</time>
      </trkpt>
      <trkpt lat="45.7735" lon="4.70715">
        <ele>313.0465088</ele>
        <time>2012-11-04T10:14:07Z</time>
      </trkpt>
      <trkpt lat="45.77349" lon="4.70722">
        <ele>313.0465088</ele>
        <time>2012-11-04T10:14:08Z</time>
      </trkpt>
      <trkpt lat="45.77331" lon="4.70765">
        <ele>313.5272217</ele>
        <time>2012-11-04T10:14:15Z</time>
      </trkpt>
      <trkpt lat="45.77318" lon="4.70794">
        <ele>313.5272217</ele>
        <time>2012-11-04T10:14:20Z</time>
      </trkpt>
      <trkpt lat="45.77312" lon="4.70806">
        <ele>314.9691162</ele>
        <time>2012-11-04T10:14:22Z</time>
      </trkpt>
      <trkpt lat="45.77305" lon="4.70819">
        <ele>315.4498291</ele>
        <time>2012-11-04T10:14:24Z</time>
      </trkpt>
      <trkpt lat="45.77288" lon="4.70854">
        <ele>319.2950439</ele>
        <time>2012-11-04T10:14:30Z</time>
      </trkpt>
      <trkpt lat="45.77281" lon="4.70873">
        <ele>318.3336182</ele>
        <time>2012-11-04T10:14:33Z</time>
      </trkpt>
      <trkpt lat="45.7728" lon="4.70888">
        <ele>315.4498291</ele>
        <time>2012-11-04T10:14:35Z</time>
      </trkpt>
      <trkpt lat="45.77283" lon="4.70934">
        <ele>309.6818848</ele>
        <time>2012-11-04T10:14:41Z</time>
      </trkpt>
      <trkpt lat="45.77285" lon="4.7097">
        <ele>306.3172607</ele>
        <time>2012-11-04T10:14:45Z</time>
      </trkpt>
      <trkpt lat="45.77288" lon="4.70989">
        <ele>305.355957</ele>
        <time>2012-11-04T10:14:47Z</time>
      </trkpt>
      <trkpt lat="45.77291" lon="4.71014">
        <ele>305.355957</ele>
        <time>2012-11-04T10:14:50Z</time>
      </trkpt>
      <trkpt lat="45.77289" lon="4.71097">
        <ele>308.2398682</ele>
        <time>2012-11-04T10:14:58Z</time>
      </trkpt>
      <trkpt lat="45.7729" lon="4.71124">
        <ele>310.1624756</ele>
        <time>2012-11-04T10:15:01Z</time>
      </trkpt>
      <trkpt lat="45.77292" lon="4.71202">
        <ele>307.7592773</ele>
        <time>2012-11-04T10:15:09Z</time>
      </trkpt>
      <trkpt lat="45.7729" lon="4.71253">
        <ele>312.5657959</ele>
        <time>2012-11-04T10:15:14Z</time>
      </trkpt>
      <trkpt lat="45.77296" lon="4.71313">
        <ele>313.0465088</ele>
        <time>2012-11-04T10:15:20Z</time>
      </trkpt>
      <trkpt lat="45.77296" lon="4.71338">
        <ele>312.5657959</ele>
        <time>2012-11-04T10:15:23Z</time>
      </trkpt>
      <trkpt lat="45.77317" lon="4.71364">
        <ele>310.6430664</ele>
        <time>2012-11-04T10:15:27Z</time>
      </trkpt>
      <trkpt lat="45.77344" lon="4.71391">
        <ele>305.355957</ele>
        <time>2012-11-04T10:15:31Z</time>
      </trkpt>
      <trkpt lat="45.77373" lon="4.71437">
        <ele>303.4332275</ele>
        <time>2012-11-04T10:15:37Z</time>
      </trkpt>
      <trkpt lat="45.77394" lon="4.71449">
        <ele>303.4332275</ele>
        <time>2012-11-04T10:15:41Z</time>
      </trkpt>
      <trkpt lat="45.7741" lon="4.71459">
        <ele>301.991333</ele>
        <time>2012-11-04T10:15:44Z</time>
      </trkpt>
      <trkpt lat="45.77418" lon="4.71474">
        <ele>300.5493164</ele>
        <time>2012-11-04T10:15:46Z</time>
      </trkpt>
      <trkpt lat="45.77438" lon="4.71512">
        <ele>300.5493164</ele>
        <time>2012-11-04T10:15:52Z</time>
      </trkpt>
      <trkpt lat="45.77456" lon="4.71543">
        <ele>300.0687256</ele>
        <time>2012-11-04T10:15:57Z</time>
      </trkpt>
      <trkpt lat="45.77473" lon="4.71567">
        <ele>298.1461182</ele>
        <time>2012-11-04T10:16:02Z</time>
      </trkpt>
      <trkpt lat="45.77479" lon="4.71574">
        <ele>299.1072998</ele>
        <time>2012-11-04T10:16:04Z</time>
      </trkpt>
      <trkpt lat="45.77496" lon="4.71589">
        <ele>296.7041016</ele>
        <time>2012-11-04T10:16:08Z</time>
      </trkpt>
      <trkpt lat="45.77525" lon="4.71629">
        <ele>295.7426758</ele>
        <time>2012-11-04T10:16:16Z</time>
      </trkpt>
      <trkpt lat="45.7754" lon="4.71643">
        <ele>297.6654053</ele>
        <time>2012-11-04T10:16:20Z</time>
      </trkpt>
      <trkpt lat="45.77553" lon="4.7163">
        <ele>301.991333</ele>
        <time>2012-11-04T10:16:24Z</time>
      </trkpt>
      <trkpt lat="45.77567" lon="4.71596">
        <ele>304.3946533</ele>
        <time>2012-11-04T10:16:28Z</time>
      </trkpt>
      <trkpt lat="45.77574" lon="4.71576">
        <ele>307.2785645</ele>
        <time>2012-11-04T10:16:31Z</time>
      </trkpt>
      <trkpt lat="45.77572" lon="4.71553">
        <ele>309.2011719</ele>
        <time>2012-11-04T10:16:34Z</time>
      </trkpt>
      <trkpt lat="45.77558" lon="4.71537">
        <ele>310.1624756</ele>
        <time>2012-11-04T10:16:37Z</time>
      </trkpt>
      <trkpt lat="45.77553" lon="4.71528">
        <ele>311.6044922</ele>
        <time>2012-11-04T10:16:40Z</time>
      </trkpt>
      <trkpt lat="45.7755" lon="4.71511">
        <ele>302.4719238</ele>
        <time>2012-11-04T10:16:45Z</time>
      </trkpt>
      <trkpt lat="45.77549" lon="4.71505">
        <ele>295.2619629</ele>
        <time>2012-11-04T10:16:48Z</time>
      </trkpt>
      <trkpt lat="45.77542" lon="4.7148">
        <ele>290.9361572</ele>
        <time>2012-11-04T10:16:58Z</time>
      </trkpt>
      <trkpt lat="45.77536" lon="4.71469">
        <ele>292.3781738</ele>
        <time>2012-11-04T10:17:05Z</time>
      </trkpt>
      <trkpt lat="45.77529" lon="4.71458">
        <ele>296.7041016</ele>
        <time>2012-11-04T10:17:14Z</time>
      </trkpt>
      <trkpt lat="45.77529" lon="4.71455">
        <ele>296.7041016</ele>
        <time>2012-11-04T10:17:16Z</time>
      </trkpt>
      <trkpt lat="45.77537" lon="4.71444">
        <ele>298.1461182</ele>
        <time>2012-11-04T10:17:23Z</time>
      </trkpt>
      <trkpt lat="45.77544" lon="4.71441">
        <ele>299.1072998</ele>
        <time>2012-11-04T10:17:29Z</time>
      </trkpt>
      <trkpt lat="45.77555" lon="4.71432">
        <ele>300.0687256</ele>
        <time>2012-11-04T10:17:37Z</time>
      </trkpt>
      <trkpt lat="45.77569" lon="4.7142">
        <ele>300.5493164</ele>
        <time>2012-11-04T10:17:46Z</time>
      </trkpt>
      <trkpt lat="45.77583" lon="4.71407">
        <ele>297.6654053</ele>
        <time>2012-11-04T10:17:53Z</time>
      </trkpt>
      <trkpt lat="45.77599" lon="4.71392">
        <ele>299.5880127</ele>
        <time>2012-11-04T10:18:02Z</time>
      </trkpt>
      <trkpt lat="45.77613" lon="4.7138">
        <ele>299.5880127</ele>
        <time>2012-11-04T10:18:10Z</time>
      </trkpt>
      <trkpt lat="45.77623" lon="4.71368">
        <ele>299.1072998</ele>
        <time>2012-11-04T10:18:16Z</time>
      </trkpt>
      <trkpt lat="45.77634" lon="4.71372">
        <ele>298.626709</ele>
        <time>2012-11-04T10:18:20Z</time>
      </trkpt>
      <trkpt lat="45.77656" lon="4.71408">
        <ele>298.1461182</ele>
        <time>2012-11-04T10:18:26Z</time>
      </trkpt>
      <trkpt lat="45.77679" lon="4.71452">
        <ele>300.0687256</ele>
        <time>2012-11-04T10:18:32Z</time>
      </trkpt>
      <trkpt lat="45.77698" lon="4.71489">
        <ele>300.5493164</ele>
        <time>2012-11-04T10:18:38Z</time>
      </trkpt>
      <trkpt lat="45.77722" lon="4.71541">
        <ele>302.4719238</ele>
        <time>2012-11-04T10:18:47Z</time>
      </trkpt>
      <trkpt lat="45.77744" lon="4.71582">
        <ele>304.3946533</ele>
        <time>2012-11-04T10:18:55Z</time>
      </trkpt>
      <trkpt lat="45.77768" lon="4.71606">
        <ele>304.8752441</ele>
        <time>2012-11-04T10:19:02Z</time>
      </trkpt>
      <trkpt lat="45.77803" lon="4.71623">
        <ele>304.8752441</ele>
        <time>2012-11-04T10:19:10Z</time>
      </trkpt>
      <trkpt lat="45.77837" lon="4.71623">
        <ele>305.8366699</ele>
        <time>2012-11-04T10:19:17Z</time>
      </trkpt>
      <trkpt lat="45.77873" lon="4.71609">
        <ele>307.7592773</ele>
        <time>2012-11-04T10:19:25Z</time>
      </trkpt>
      <trkpt lat="45.77907" lon="4.71584">
        <ele>309.6818848</ele>
        <time>2012-11-04T10:19:33Z</time>
      </trkpt>
      <trkpt lat="45.77937" lon="4.71555">
        <ele>309.6818848</ele>
        <time>2012-11-04T10:19:41Z</time>
      </trkpt>
      <trkpt lat="45.77976" lon="4.71519">
        <ele>310.6430664</ele>
        <time>2012-11-04T10:19:51Z</time>
      </trkpt>
      <trkpt lat="45.78011" lon="4.71483">
        <ele>310.1624756</ele>
        <time>2012-11-04T10:20:00Z</time>
      </trkpt>
      <trkpt lat="45.7804" lon="4.71455">
        <ele>310.6430664</ele>
        <time>2012-11-04T10:20:07Z</time>
      </trkpt>
      <trkpt lat="45.78078" lon="4.71421">
        <ele>309.2011719</ele>
        <time>2012-11-04T10:20:15Z</time>
      </trkpt>
      <trkpt lat="45.78115" lon="4.71388">
        <ele>307.7592773</ele>
        <time>2012-11-04T10:20:22Z</time>
      </trkpt>
      <trkpt lat="45.78157" lon="4.71352">
        <ele>308.720459</ele>
        <time>2012-11-04T10:20:30Z</time>
      </trkpt>
      <trkpt lat="45.78191" lon="4.71332">
        <ele>309.2011719</ele>
        <time>2012-11-04T10:20:37Z</time>
      </trkpt>
      <trkpt lat="45.78234" lon="4.7132">
        <ele>309.2011719</ele>
        <time>2012-11-04T10:20:45Z</time>
      </trkpt>
      <trkpt lat="45.78279" lon="4.71318">
        <ele>309.6818848</ele>
        <time>2012-11-04T10:20:54Z</time>
      </trkpt>
      <trkpt lat="45.78314" lon="4.71319">
        <ele>310.1624756</ele>
        <time>2012-11-04T10:21:02Z</time>
      </trkpt>
      <trkpt lat="45.78347" lon="4.71325">
        <ele>310.6430664</ele>
        <time>2012-11-04T10:21:11Z</time>
      </trkpt>
      <trkpt lat="45.78355" lon="4.71335">
        <ele>311.1237793</ele>
        <time>2012-11-04T10:21:14Z</time>
      </trkpt>
      <trkpt lat="45.7836" lon="4.71367">
        <ele>310.1624756</ele>
        <time>2012-11-04T10:21:19Z</time>
      </trkpt>
      <trkpt lat="45.78359" lon="4.71382">
        <ele>309.6818848</ele>
        <time>2012-11-04T10:21:21Z</time>
      </trkpt>
      <trkpt lat="45.78347" lon="4.7146">
        <ele>307.7592773</ele>
        <time>2012-11-04T10:21:30Z</time>
      </trkpt>
      <trkpt lat="45.78336" lon="4.71545">
        <ele>306.3172607</ele>
        <time>2012-11-04T10:21:38Z</time>
      </trkpt>
      <trkpt lat="45.78335" lon="4.71568">
        <ele>305.8366699</ele>
        <time>2012-11-04T10:21:40Z</time>
      </trkpt>
      <trkpt lat="45.78347" lon="4.71607">
        <ele>305.355957</ele>
        <time>2012-11-04T10:21:44Z</time>
      </trkpt>
      <trkpt lat="45.7838" lon="4.71668">
        <ele>302.4719238</ele>
        <time>2012-11-04T10:21:51Z</time>
      </trkpt>
      <trkpt lat="45.78422" lon="4.71744">
        <ele>301.0299072</ele>
        <time>2012-11-04T10:22:00Z</time>
      </trkpt>
      <trkpt lat="45.78432" lon="4.71777">
        <ele>300.0687256</ele>
        <time>2012-11-04T10:22:04Z</time>
      </trkpt>
      <trkpt lat="45.78438" lon="4.71793">
        <ele>300.0687256</ele>
        <time>2012-11-04T10:22:06Z</time>
      </trkpt>
      <trkpt lat="45.78452" lon="4.7184">
        <ele>299.1072998</ele>
        <time>2012-11-04T10:22:11Z</time>
      </trkpt>
      <trkpt lat="45.78461" lon="4.71924">
        <ele>297.6654053</ele>
        <time>2012-11-04T10:22:18Z</time>
      </trkpt>
      <trkpt lat="45.78472" lon="4.72045">
        <ele>296.7041016</ele>
        <time>2012-11-04T10:22:28Z</time>
      </trkpt>
      <trkpt lat="45.78481" lon="4.72157">
        <ele>296.2235107</ele>
        <time>2012-11-04T10:22:38Z</time>
      </trkpt>
      <trkpt lat="45.78489" lon="4.72241">
        <ele>295.7426758</ele>
        <time>2012-11-04T10:22:46Z</time>
      </trkpt>
      <trkpt lat="45.7849" lon="4.72251">
        <ele>295.7426758</ele>
        <time>2012-11-04T10:22:47Z</time>
      </trkpt>
      <trkpt lat="45.78484" lon="4.72299">
        <ele>294.7813721</ele>
        <time>2012-11-04T10:22:52Z</time>
      </trkpt>
      <trkpt lat="45.78481" lon="4.72308">
        <ele>294.3007813</ele>
        <time>2012-11-04T10:22:53Z</time>
      </trkpt>
      <trkpt lat="45.78449" lon="4.72372">
        <ele>289.4941406</ele>
        <time>2012-11-04T10:23:01Z</time>
      </trkpt>
      <trkpt lat="45.78429" lon="4.72416">
        <ele>288.0522461</ele>
        <time>2012-11-04T10:23:06Z</time>
      </trkpt>
      <trkpt lat="45.78408" lon="4.72467">
        <ele>286.1295166</ele>
        <time>2012-11-04T10:23:11Z</time>
      </trkpt>
      <trkpt lat="45.784" lon="4.72536">
        <ele>283.2456055</ele>
        <time>2012-11-04T10:23:16Z</time>
      </trkpt>
      <trkpt lat="45.78395" lon="4.72619">
        <ele>279.4002686</ele>
        <time>2012-11-04T10:23:21Z</time>
      </trkpt>
      <trkpt lat="45.78382" lon="4.72721">
        <ele>275.0744629</ele>
        <time>2012-11-04T10:23:27Z</time>
      </trkpt>
      <trkpt lat="45.7838" lon="4.7281">
        <ele>271.7097168</ele>
        <time>2012-11-04T10:23:32Z</time>
      </trkpt>
      <trkpt lat="45.78377" lon="4.72893">
        <ele>267.3839111</ele>
        <time>2012-11-04T10:23:37Z</time>
      </trkpt>
      <trkpt lat="45.78372" lon="4.73006">
        <ele>258.7319336</ele>
        <time>2012-11-04T10:23:44Z</time>
      </trkpt>
      <trkpt lat="45.7837" lon="4.7304">
        <ele>257.2900391</ele>
        <time>2012-11-04T10:23:46Z</time>
      </trkpt>
      <trkpt lat="45.7838" lon="4.73128">
        <ele>254.4060059</ele>
        <time>2012-11-04T10:23:51Z</time>
      </trkpt>
      <trkpt lat="45.78401" lon="4.73174">
        <ele>254.8865967</ele>
        <time>2012-11-04T10:23:54Z</time>
      </trkpt>
      <trkpt lat="45.7842" lon="4.73199">
        <ele>254.8865967</ele>
        <time>2012-11-04T10:23:56Z</time>
      </trkpt>
      <trkpt lat="45.78441" lon="4.73224">
        <ele>256.8093262</ele>
        <time>2012-11-04T10:23:58Z</time>
      </trkpt>
      <trkpt lat="45.78485" lon="4.73303">
        <ele>255.3673096</ele>
        <time>2012-11-04T10:24:03Z</time>
      </trkpt>
      <trkpt lat="45.78503" lon="4.73339">
        <ele>255.3673096</ele>
        <time>2012-11-04T10:24:06Z</time>
      </trkpt>
      <trkpt lat="45.78505" lon="4.73348">
        <ele>253.4447021</ele>
        <time>2012-11-04T10:24:07Z</time>
      </trkpt>
      <trkpt lat="45.78502" lon="4.73359">
        <ele>252.4833984</ele>
        <time>2012-11-04T10:24:11Z</time>
      </trkpt>
      <trkpt lat="45.78503" lon="4.73371">
        <ele>249.5994873</ele>
        <time>2012-11-04T10:24:16Z</time>
      </trkpt>
      <trkpt lat="45.78506" lon="4.73382">
        <ele>247.6767578</ele>
        <time>2012-11-04T10:24:18Z</time>
      </trkpt>
      <trkpt lat="45.7852" lon="4.73411">
        <ele>242.3896484</ele>
        <time>2012-11-04T10:24:22Z</time>
      </trkpt>
      <trkpt lat="45.78557" lon="4.73451">
        <ele>236.6217041</ele>
        <time>2012-11-04T10:24:28Z</time>
      </trkpt>
      <trkpt lat="45.7858" lon="4.73447">
        <ele>236.1409912</ele>
        <time>2012-11-04T10:24:32Z</time>
      </trkpt>
      <trkpt lat="45.78591" lon="4.73426">
        <ele>237.1022949</ele>
        <time>2012-11-04T10:24:35Z</time>
      </trkpt>
      <trkpt lat="45.78616" lon="4.73382">
        <ele>239.0249023</ele>
        <time>2012-11-04T10:24:43Z</time>
      </trkpt>
      <trkpt lat="45.78637" lon="4.73348">
        <ele>240.9476318</ele>
        <time>2012-11-04T10:24:50Z</time>
      </trkpt>
      <trkpt lat="45.78643" lon="4.73339">
        <ele>241.9089355</ele>
        <time>2012-11-04T10:24:52Z</time>
      </trkpt>
      <trkpt lat="45.78667" lon="4.73308">
        <ele>246.2348633</ele>
        <time>2012-11-04T10:25:00Z</time>
      </trkpt>
      <trkpt lat="45.78688" lon="4.7328">
        <ele>248.1575928</ele>
        <time>2012-11-04T10:25:08Z</time>
      </trkpt>
      <trkpt lat="45.78707" lon="4.73267">
        <ele>248.6381836</ele>
        <time>2012-11-04T10:25:15Z</time>
      </trkpt>
      <trkpt lat="45.78718" lon="4.73264">
        <ele>249.1187744</ele>
        <time>2012-11-04T10:25:20Z</time>
      </trkpt>
      <trkpt lat="45.78731" lon="4.73256">
        <ele>249.5994873</ele>
        <time>2012-11-04T10:25:27Z</time>
      </trkpt>
      <trkpt lat="45.78746" lon="4.73255">
        <ele>252.4833984</ele>
        <time>2012-11-04T10:25:34Z</time>
      </trkpt>
      <trkpt lat="45.78758" lon="4.73256">
        <ele>254.4060059</ele>
        <time>2012-11-04T10:25:40Z</time>
      </trkpt>
      <trkpt lat="45.78772" lon="4.73258">
        <ele>256.8093262</ele>
        <time>2012-11-04T10:25:47Z</time>
      </trkpt>
      <trkpt lat="45.78787" lon="4.73263">
        <ele>258.7319336</ele>
        <time>2012-11-04T10:25:54Z</time>
      </trkpt>
      <trkpt lat="45.78808" lon="4.73274">
        <ele>259.6933594</ele>
        <time>2012-11-04T10:26:04Z</time>
      </trkpt>
      <trkpt lat="45.78828" lon="4.73286">
        <ele>262.0965576</ele>
        <time>2012-11-04T10:26:15Z</time>
      </trkpt>
      <trkpt lat="45.78841" lon="4.73293">
        <ele>263.5385742</ele>
        <time>2012-11-04T10:26:23Z</time>
      </trkpt>
      <trkpt lat="45.78853" lon="4.73301">
        <ele>264.0192871</ele>
        <time>2012-11-04T10:26:30Z</time>
      </trkpt>
      <trkpt lat="45.78862" lon="4.73307">
        <ele>267.3839111</ele>
        <time>2012-11-04T10:26:36Z</time>
      </trkpt>
      <trkpt lat="45.78875" lon="4.73316">
        <ele>270.2677002</ele>
        <time>2012-11-04T10:26:44Z</time>
      </trkpt>
      <trkpt lat="45.78886" lon="4.73324">
        <ele>270.2677002</ele>
        <time>2012-11-04T10:26:51Z</time>
      </trkpt>
      <trkpt lat="45.78902" lon="4.73332">
        <ele>269.7871094</ele>
        <time>2012-11-04T10:26:59Z</time>
      </trkpt>
      <trkpt lat="45.78923" lon="4.7334">
        <ele>270.2677002</ele>
        <time>2012-11-04T10:27:07Z</time>
      </trkpt>
      <trkpt lat="45.78948" lon="4.7335">
        <ele>269.7871094</ele>
        <time>2012-11-04T10:27:15Z</time>
      </trkpt>
      <trkpt lat="45.78974" lon="4.73362">
        <ele>267.864502</ele>
        <time>2012-11-04T10:27:23Z</time>
      </trkpt>
      <trkpt lat="45.79005" lon="4.73375">
        <ele>270.2677002</ele>
        <time>2012-11-04T10:27:31Z</time>
      </trkpt>
      <trkpt lat="45.79041" lon="4.73385">
        <ele>268.3450928</ele>
        <time>2012-11-04T10:27:41Z</time>
      </trkpt>
      <trkpt lat="45.79062" lon="4.73392">
        <ele>267.3839111</ele>
        <time>2012-11-04T10:27:48Z</time>
      </trkpt>
      <trkpt lat="45.79086" lon="4.734">
        <ele>268.8258057</ele>
        <time>2012-11-04T10:27:56Z</time>
      </trkpt>
      <trkpt lat="45.79111" lon="4.73405">
        <ele>271.229126</ele>
        <time>2012-11-04T10:28:05Z</time>
      </trkpt>
      <trkpt lat="45.7913" lon="4.73406">
        <ele>273.6324463</ele>
        <time>2012-11-04T10:28:12Z</time>
      </trkpt>
      <trkpt lat="45.79149" lon="4.734">
        <ele>278.9196777</ele>
        <time>2012-11-04T10:28:19Z</time>
      </trkpt>
      <trkpt lat="45.79163" lon="4.73396">
        <ele>275.5550537</ele>
        <time>2012-11-04T10:28:25Z</time>
      </trkpt>
      <trkpt lat="45.79166" lon="4.73391">
        <ele>273.6324463</ele>
        <time>2012-11-04T10:28:27Z</time>
      </trkpt>
      <trkpt lat="45.79177" lon="4.73371">
        <ele>269.7871094</ele>
        <time>2012-11-04T10:28:32Z</time>
      </trkpt>
      <trkpt lat="45.79185" lon="4.73357">
        <ele>269.3065186</ele>
        <time>2012-11-04T10:28:37Z</time>
      </trkpt>
      <trkpt lat="45.79201" lon="4.73345">
        <ele>268.8258057</ele>
        <time>2012-11-04T10:28:43Z</time>
      </trkpt>
      <trkpt lat="45.79233" lon="4.73328">
        <ele>267.3839111</ele>
        <time>2012-11-04T10:28:54Z</time>
      </trkpt>
      <trkpt lat="45.79224" lon="4.73314">
        <ele>274.59375</ele>
        <time>2012-11-04T10:28:57Z</time>
      </trkpt>
      <trkpt lat="45.79225" lon="4.73306">
        <ele>275.5550537</ele>
        <time>2012-11-04T10:29:00Z</time>
      </trkpt>
      <trkpt lat="45.79225" lon="4.73301">
        <ele>267.3839111</ele>
        <time>2012-11-04T10:29:06Z</time>
      </trkpt>
      <trkpt lat="45.79222" lon="4.73292">
        <ele>266.4224854</ele>
        <time>2012-11-04T10:29:11Z</time>
      </trkpt>
      <trkpt lat="45.79234" lon="4.73291">
        <ele>266.9031982</ele>
        <time>2012-11-04T10:29:16Z</time>
      </trkpt>
      <trkpt lat="45.79249" lon="4.73273">
        <ele>263.5385742</ele>
        <time>2012-11-04T10:29:23Z</time>
      </trkpt>
      <trkpt lat="45.79262" lon="4.73266">
        <ele>261.6159668</ele>
        <time>2012-11-04T10:29:27Z</time>
      </trkpt>
      <trkpt lat="45.79276" lon="4.73263">
        <ele>261.1352539</ele>
        <time>2012-11-04T10:29:31Z</time>
      </trkpt>
      <trkpt lat="45.79293" lon="4.7326">
        <ele>263.0578613</ele>
        <time>2012-11-04T10:29:36Z</time>
      </trkpt>
      <trkpt lat="45.79304" lon="4.73262">
        <ele>262.5771484</ele>
        <time>2012-11-04T10:29:41Z</time>
      </trkpt>
      <trkpt lat="45.79322" lon="4.73265">
        <ele>262.5771484</ele>
        <time>2012-11-04T10:29:49Z</time>
      </trkpt>
      <trkpt lat="45.79324" lon="4.73265">
        <ele>262.5771484</ele>
        <time>2012-11-04T10:29:51Z</time>
      </trkpt>
      <trkpt lat="45.79342" lon="4.73254">
        <ele>261.6159668</ele>
        <time>2012-11-04T10:29:57Z</time>
      </trkpt>
      <trkpt lat="45.79346" lon="4.73257">
        <ele>264.0192871</ele>
        <time>2012-11-04T10:30:02Z</time>
      </trkpt>
      <trkpt lat="45.79348" lon="4.73253">
        <ele>261.6159668</ele>
        <time>2012-11-04T10:30:05Z</time>
      </trkpt>
      <trkpt lat="45.79358" lon="4.73244">
        <ele>262.5771484</ele>
        <time>2012-11-04T10:30:16Z</time>
      </trkpt>
      <trkpt lat="45.79359" lon="4.73243">
        <ele>262.0965576</ele>
        <time>2012-11-04T10:30:18Z</time>
      </trkpt>
      <trkpt lat="45.79382" lon="4.73255">
        <ele>253.4447021</ele>
        <time>2012-11-04T10:30:23Z</time>
      </trkpt>
      <trkpt lat="45.79397" lon="4.73253">
        <ele>253.925415</ele>
        <time>2012-11-04T10:30:27Z</time>
      </trkpt>
      <trkpt lat="45.79417" lon="4.73241">
        <ele>251.5220947</ele>
        <time>2012-11-04T10:30:33Z</time>
      </trkpt>
      <trkpt lat="45.79433" lon="4.73224">
        <ele>251.0413818</ele>
        <time>2012-11-04T10:30:38Z</time>
      </trkpt>
      <trkpt lat="45.79448" lon="4.73208">
        <ele>250.0802002</ele>
        <time>2012-11-04T10:30:43Z</time>
      </trkpt>
      <trkpt lat="45.79469" lon="4.73196">
        <ele>253.4447021</ele>
        <time>2012-11-04T10:30:49Z</time>
      </trkpt>
      <trkpt lat="45.79486" lon="4.73195">
        <ele>259.2126465</ele>
        <time>2012-11-04T10:30:54Z</time>
      </trkpt>
      <trkpt lat="45.79507" lon="4.73187">
        <ele>270.2677002</ele>
        <time>2012-11-04T10:31:00Z</time>
      </trkpt>
      <trkpt lat="45.79517" lon="4.73168">
        <ele>276.5163574</ele>
        <time>2012-11-04T10:31:05Z</time>
      </trkpt>
      <trkpt lat="45.79529" lon="4.73142">
        <ele>282.7650146</ele>
        <time>2012-11-04T10:31:11Z</time>
      </trkpt>
      <trkpt lat="45.7955" lon="4.73115">
        <ele>282.2843018</ele>
        <time>2012-11-04T10:31:19Z</time>
      </trkpt>
      <trkpt lat="45.79557" lon="4.73107">
        <ele>282.7650146</ele>
        <time>2012-11-04T10:31:22Z</time>
      </trkpt>
      <trkpt lat="45.79575" lon="4.73097">
        <ele>279.4002686</ele>
        <time>2012-11-04T10:31:28Z</time>
      </trkpt>
      <trkpt lat="45.79592" lon="4.73097">
        <ele>274.59375</ele>
        <time>2012-11-04T10:31:33Z</time>
      </trkpt>
      <trkpt lat="45.79625" lon="4.73089">
        <ele>273.6324463</ele>
        <time>2012-11-04T10:31:44Z</time>
      </trkpt>
      <trkpt lat="45.79634" lon="4.7309">
        <ele>262.5771484</ele>
        <time>2012-11-04T10:31:48Z</time>
      </trkpt>
      <trkpt lat="45.79641" lon="4.73079">
        <ele>261.1352539</ele>
        <time>2012-11-04T10:31:55Z</time>
      </trkpt>
      <trkpt lat="45.79643" lon="4.73079">
        <ele>269.3065186</ele>
        <time>2012-11-04T10:32:00Z</time>
      </trkpt>
      <trkpt lat="45.79651" lon="4.73074">
        <ele>276.0356445</ele>
        <time>2012-11-04T10:32:07Z</time>
      </trkpt>
      <trkpt lat="45.79651" lon="4.73072">
        <ele>277.4776611</ele>
        <time>2012-11-04T10:32:08Z</time>
      </trkpt>
      <trkpt lat="45.79664" lon="4.73059">
        <ele>272.1904297</ele>
        <time>2012-11-04T10:32:16Z</time>
      </trkpt>
      <trkpt lat="45.79668" lon="4.73045">
        <ele>272.6711426</ele>
        <time>2012-11-04T10:32:23Z</time>
      </trkpt>
      <trkpt lat="45.79668" lon="4.73043">
        <ele>272.6711426</ele>
        <time>2012-11-04T10:32:24Z</time>
      </trkpt>
      <trkpt lat="45.79693" lon="4.73025">
        <ele>265.4613037</ele>
        <time>2012-11-04T10:32:33Z</time>
      </trkpt>
      <trkpt lat="45.79698" lon="4.73017">
        <ele>265.4613037</ele>
        <time>2012-11-04T10:32:38Z</time>
      </trkpt>
      <trkpt lat="45.79713" lon="4.73017">
        <ele>270.7484131</ele>
        <time>2012-11-04T10:32:43Z</time>
      </trkpt>
      <trkpt lat="45.79728" lon="4.73007">
        <ele>271.229126</ele>
        <time>2012-11-04T10:32:50Z</time>
      </trkpt>
      <trkpt lat="45.79737" lon="4.72997">
        <ele>272.6711426</ele>
        <time>2012-11-04T10:32:55Z</time>
      </trkpt>
      <trkpt lat="45.79749" lon="4.72976">
        <ele>281.322998</ele>
        <time>2012-11-04T10:33:03Z</time>
      </trkpt>
      <trkpt lat="45.79759" lon="4.72969">
        <ele>280.8424072</ele>
        <time>2012-11-04T10:33:07Z</time>
      </trkpt>
      <trkpt lat="45.79772" lon="4.72954">
        <ele>287.5714111</ele>
        <time>2012-11-04T10:33:13Z</time>
      </trkpt>
      <trkpt lat="45.79775" lon="4.72953">
        <ele>287.0908203</ele>
        <time>2012-11-04T10:33:14Z</time>
      </trkpt>
      <trkpt lat="45.79783" lon="4.7295">
        <ele>287.0908203</ele>
        <time>2012-11-04T10:33:17Z</time>
      </trkpt>
      <trkpt lat="45.79797" lon="4.72948">
        <ele>284.6876221</ele>
        <time>2012-11-04T10:33:23Z</time>
      </trkpt>
      <trkpt lat="45.79807" lon="4.72934">
        <ele>283.2456055</ele>
        <time>2012-11-04T10:33:28Z</time>
      </trkpt>
      <trkpt lat="45.79816" lon="4.72916">
        <ele>284.2069092</ele>
        <time>2012-11-04T10:33:33Z</time>
      </trkpt>
      <trkpt lat="45.79826" lon="4.72904">
        <ele>284.6876221</ele>
        <time>2012-11-04T10:33:39Z</time>
      </trkpt>
      <trkpt lat="45.79837" lon="4.72892">
        <ele>286.6102295</ele>
        <time>2012-11-04T10:33:45Z</time>
      </trkpt>
      <trkpt lat="45.79847" lon="4.72884">
        <ele>289.4941406</ele>
        <time>2012-11-04T10:33:50Z</time>
      </trkpt>
      <trkpt lat="45.79859" lon="4.72878">
        <ele>294.7813721</ele>
        <time>2012-11-04T10:33:57Z</time>
      </trkpt>
      <trkpt lat="45.79861" lon="4.72878">
        <ele>295.2619629</ele>
        <time>2012-11-04T10:33:58Z</time>
      </trkpt>
      <trkpt lat="45.7987" lon="4.72874">
        <ele>299.1072998</ele>
        <time>2012-11-04T10:34:03Z</time>
      </trkpt>
      <trkpt lat="45.79882" lon="4.72871">
        <ele>296.7041016</ele>
        <time>2012-11-04T10:34:11Z</time>
      </trkpt>
      <trkpt lat="45.79891" lon="4.72873">
        <ele>291.416748</ele>
        <time>2012-11-04T10:34:18Z</time>
      </trkpt>
      <trkpt lat="45.79901" lon="4.72872">
        <ele>290.9361572</ele>
        <time>2012-11-04T10:34:25Z</time>
      </trkpt>
      <trkpt lat="45.79911" lon="4.72873">
        <ele>289.4941406</ele>
        <time>2012-11-04T10:34:32Z</time>
      </trkpt>
      <trkpt lat="45.7992" lon="4.72872">
        <ele>289.4941406</ele>
        <time>2012-11-04T10:34:38Z</time>
      </trkpt>
      <trkpt lat="45.7993" lon="4.72874">
        <ele>289.0135498</ele>
        <time>2012-11-04T10:34:45Z</time>
      </trkpt>
      <trkpt lat="45.79934" lon="4.72875">
        <ele>289.4941406</ele>
        <time>2012-11-04T10:34:48Z</time>
      </trkpt>
      <trkpt lat="45.79944" lon="4.72877">
        <ele>291.416748</ele>
        <time>2012-11-04T10:34:56Z</time>
      </trkpt>
      <trkpt lat="45.79953" lon="4.72883">
        <ele>291.416748</ele>
        <time>2012-11-04T10:35:03Z</time>
      </trkpt>
      <trkpt lat="45.79965" lon="4.72889">
        <ele>293.3393555</ele>
        <time>2012-11-04T10:35:11Z</time>
      </trkpt>
      <trkpt lat="45.79976" lon="4.72896">
        <ele>292.8587646</ele>
        <time>2012-11-04T10:35:18Z</time>
      </trkpt>
      <trkpt lat="45.79984" lon="4.72904">
        <ele>294.7813721</ele>
        <time>2012-11-04T10:35:24Z</time>
      </trkpt>
      <trkpt lat="45.79989" lon="4.72908">
        <ele>295.7426758</ele>
        <time>2012-11-04T10:35:29Z</time>
      </trkpt>
      <trkpt lat="45.79993" lon="4.72918">
        <ele>297.1846924</ele>
        <time>2012-11-04T10:35:36Z</time>
      </trkpt>
      <trkpt lat="45.79995" lon="4.72928">
        <ele>298.626709</ele>
        <time>2012-11-04T10:35:43Z</time>
      </trkpt>
      <trkpt lat="45.79996" lon="4.7293">
        <ele>299.1072998</ele>
        <time>2012-11-04T10:35:45Z</time>
      </trkpt>
      <trkpt lat="45.79998" lon="4.72931">
        <ele>299.5880127</ele>
        <time>2012-11-04T10:35:47Z</time>
      </trkpt>
      <trkpt lat="45.80004" lon="4.7294">
        <ele>300.5493164</ele>
        <time>2012-11-04T10:35:55Z</time>
      </trkpt>
      <trkpt lat="45.80008" lon="4.72943">
        <ele>300.5493164</ele>
        <time>2012-11-04T10:36:01Z</time>
      </trkpt>
      <trkpt lat="45.8001" lon="4.72946">
        <ele>300.5493164</ele>
        <time>2012-11-04T10:36:05Z</time>
      </trkpt>
      <trkpt lat="45.80011" lon="4.7295">
        <ele>301.0299072</ele>
        <time>2012-11-04T10:36:12Z</time>
      </trkpt>
      <trkpt lat="45.80013" lon="4.72952">
        <ele>301.5106201</ele>
        <time>2012-11-04T10:36:16Z</time>
      </trkpt>
      <trkpt lat="45.80022" lon="4.72955">
        <ele>301.5106201</ele>
        <time>2012-11-04T10:36:25Z</time>
      </trkpt>
      <trkpt lat="45.80026" lon="4.72956">
        <ele>300.5493164</ele>
        <time>2012-11-04T10:36:32Z</time>
      </trkpt>
      <trkpt lat="45.80026" lon="4.72956">
        <ele>300.0687256</ele>
        <time>2012-11-04T10:36:44Z</time>
      </trkpt>
      <trkpt lat="45.80027" lon="4.72957">
        <ele>300.5493164</ele>
        <time>2012-11-04T10:37:55Z</time>
      </trkpt>
      <trkpt lat="45.80032" lon="4.72957">
        <ele>300.5493164</ele>
        <time>2012-11-04T10:38:00Z</time>
      </trkpt>
      <trkpt lat="45.80039" lon="4.72958">
        <ele>301.0299072</ele>
        <time>2012-11-04T10:38:05Z</time>
      </trkpt>
      <trkpt lat="45.80048" lon="4.72958">
        <ele>301.991333</ele>
        <time>2012-11-04T10:38:10Z</time>
      </trkpt>
      <trkpt lat="45.80057" lon="4.72963">
        <ele>302.4719238</ele>
        <time>2012-11-04T10:38:16Z</time>
      </trkpt>
      <trkpt lat="45.8007" lon="4.72965">
        <ele>303.9139404</ele>
        <time>2012-11-04T10:38:23Z</time>
      </trkpt>
      <trkpt lat="45.80081" lon="4.7296">
        <ele>304.3946533</ele>
        <time>2012-11-04T10:38:29Z</time>
      </trkpt>
      <trkpt lat="45.80092" lon="4.72955">
        <ele>306.7978516</ele>
        <time>2012-11-04T10:38:36Z</time>
      </trkpt>
      <trkpt lat="45.80107" lon="4.72962">
        <ele>308.2398682</ele>
        <time>2012-11-04T10:38:44Z</time>
      </trkpt>
      <trkpt lat="45.80122" lon="4.7297">
        <ele>306.7978516</ele>
        <time>2012-11-04T10:38:52Z</time>
      </trkpt>
      <trkpt lat="45.80137" lon="4.72979">
        <ele>306.3172607</ele>
        <time>2012-11-04T10:39:00Z</time>
      </trkpt>
      <trkpt lat="45.80154" lon="4.72987">
        <ele>306.7978516</ele>
        <time>2012-11-04T10:39:08Z</time>
      </trkpt>
      <trkpt lat="45.80177" lon="4.72998">
        <ele>307.2785645</ele>
        <time>2012-11-04T10:39:19Z</time>
      </trkpt>
      <trkpt lat="45.80198" lon="4.73007">
        <ele>308.720459</ele>
        <time>2012-11-04T10:39:28Z</time>
      </trkpt>
      <trkpt lat="45.8022" lon="4.73014">
        <ele>309.6818848</ele>
        <time>2012-11-04T10:39:38Z</time>
      </trkpt>
      <trkpt lat="45.80237" lon="4.73013">
        <ele>310.6430664</ele>
        <time>2012-11-04T10:39:45Z</time>
      </trkpt>
      <trkpt lat="45.80257" lon="4.73009">
        <ele>312.5657959</ele>
        <time>2012-11-04T10:39:53Z</time>
      </trkpt>
      <trkpt lat="45.80276" lon="4.73005">
        <ele>316.4110107</ele>
        <time>2012-11-04T10:40:01Z</time>
      </trkpt>
      <trkpt lat="45.80289" lon="4.73001">
        <ele>319.7756348</ele>
        <time>2012-11-04T10:40:07Z</time>
      </trkpt>
      <trkpt lat="45.80305" lon="4.72993">
        <ele>323.6209717</ele>
        <time>2012-11-04T10:40:14Z</time>
      </trkpt>
      <trkpt lat="45.80328" lon="4.72981">
        <ele>325.5435791</ele>
        <time>2012-11-04T10:40:23Z</time>
      </trkpt>
      <trkpt lat="45.80346" lon="4.72969">
        <ele>325.5435791</ele>
        <time>2012-11-04T10:40:31Z</time>
      </trkpt>
      <trkpt lat="45.80365" lon="4.72958">
        <ele>326.5048828</ele>
        <time>2012-11-04T10:40:39Z</time>
      </trkpt>
      <trkpt lat="45.80378" lon="4.7295">
        <ele>327.9467773</ele>
        <time>2012-11-04T10:40:45Z</time>
      </trkpt>
      <trkpt lat="45.804" lon="4.72935">
        <ele>328.9083252</ele>
        <time>2012-11-04T10:40:55Z</time>
      </trkpt>
      <trkpt lat="45.80406" lon="4.7293">
        <ele>329.8695068</ele>
        <time>2012-11-04T10:40:58Z</time>
      </trkpt>
      <trkpt lat="45.80406" lon="4.72916">
        <ele>330.3502197</ele>
        <time>2012-11-04T10:41:03Z</time>
      </trkpt>
      <trkpt lat="45.80396" lon="4.72888">
        <ele>327.4661865</ele>
        <time>2012-11-04T10:41:10Z</time>
      </trkpt>
      <trkpt lat="45.80385" lon="4.72851">
        <ele>323.1403809</ele>
        <time>2012-11-04T10:41:17Z</time>
      </trkpt>
      <trkpt lat="45.80376" lon="4.72826">
        <ele>319.7756348</ele>
        <time>2012-11-04T10:41:21Z</time>
      </trkpt>
      <trkpt lat="45.80363" lon="4.72782">
        <ele>315.9304199</ele>
        <time>2012-11-04T10:41:27Z</time>
      </trkpt>
      <trkpt lat="45.80362" lon="4.72761">
        <ele>313.5272217</ele>
        <time>2012-11-04T10:41:31Z</time>
      </trkpt>
      <trkpt lat="45.80362" lon="4.72756">
        <ele>313.0465088</ele>
        <time>2012-11-04T10:41:32Z</time>
      </trkpt>
      <trkpt lat="45.8037" lon="4.7272">
        <ele>309.6818848</ele>
        <time>2012-11-04T10:41:38Z</time>
      </trkpt>
      <trkpt lat="45.80373" lon="4.72709">
        <ele>308.720459</ele>
        <time>2012-11-04T10:41:40Z</time>
      </trkpt>
      <trkpt lat="45.80375" lon="4.72683">
        <ele>305.8366699</ele>
        <time>2012-11-04T10:41:45Z</time>
      </trkpt>
      <trkpt lat="45.80369" lon="4.72661">
        <ele>301.5106201</ele>
        <time>2012-11-04T10:41:51Z</time>
      </trkpt>
      <trkpt lat="45.80363" lon="4.72652">
        <ele>298.626709</ele>
        <time>2012-11-04T10:41:57Z</time>
      </trkpt>
      <trkpt lat="45.80361" lon="4.7265">
        <ele>298.626709</ele>
        <time>2012-11-04T10:42:09Z</time>
      </trkpt>
      <trkpt lat="45.80358" lon="4.7265">
        <ele>297.6654053</ele>
        <time>2012-11-04T10:42:17Z</time>
      </trkpt>
      <trkpt lat="45.80354" lon="4.72645">
        <ele>296.2235107</ele>
        <time>2012-11-04T10:42:21Z</time>
      </trkpt>
      <trkpt lat="45.80341" lon="4.72635">
        <ele>294.3007813</ele>
        <time>2012-11-04T10:42:26Z</time>
      </trkpt>
      <trkpt lat="45.80332" lon="4.72622">
        <ele>293.3393555</ele>
        <time>2012-11-04T10:42:30Z</time>
      </trkpt>
      <trkpt lat="45.80317" lon="4.72607">
        <ele>292.8587646</ele>
        <time>2012-11-04T10:42:35Z</time>
      </trkpt>
      <trkpt lat="45.80306" lon="4.72597">
        <ele>293.8200684</ele>
        <time>2012-11-04T10:42:40Z</time>
      </trkpt>
      <trkpt lat="45.80298" lon="4.7259">
        <ele>294.3007813</ele>
        <time>2012-11-04T10:42:45Z</time>
      </trkpt>
      <trkpt lat="45.80292" lon="4.72585">
        <ele>296.7041016</ele>
        <time>2012-11-04T10:42:51Z</time>
      </trkpt>
      <trkpt lat="45.80285" lon="4.7258">
        <ele>299.1072998</ele>
        <time>2012-11-04T10:42:57Z</time>
      </trkpt>
      <trkpt lat="45.80283" lon="4.72575">
        <ele>300.5493164</ele>
        <time>2012-11-04T10:43:04Z</time>
      </trkpt>
      <trkpt lat="45.80281" lon="4.72571">
        <ele>301.0299072</ele>
        <time>2012-11-04T10:43:10Z</time>
      </trkpt>
      <trkpt lat="45.80279" lon="4.7257">
        <ele>297.1846924</ele>
        <time>2012-11-04T10:43:17Z</time>
      </trkpt>
      <trkpt lat="45.80275" lon="4.72568">
        <ele>297.6654053</ele>
        <time>2012-11-04T10:43:23Z</time>
      </trkpt>
      <trkpt lat="45.80272" lon="4.72566">
        <ele>299.5880127</ele>
        <time>2012-11-04T10:43:29Z</time>
      </trkpt>
      <trkpt lat="45.8027" lon="4.72565">
        <ele>297.6654053</ele>
        <time>2012-11-04T10:43:35Z</time>
      </trkpt>
      <trkpt lat="45.80266" lon="4.72564">
        <ele>295.2619629</ele>
        <time>2012-11-04T10:43:53Z</time>
      </trkpt>
      <trkpt lat="45.80264" lon="4.72562">
        <ele>295.7426758</ele>
        <time>2012-11-04T10:43:59Z</time>
      </trkpt>
      <trkpt lat="45.80256" lon="4.72555">
        <ele>300.5493164</ele>
        <time>2012-11-04T10:44:07Z</time>
      </trkpt>
      <trkpt lat="45.80246" lon="4.72549">
        <ele>303.4332275</ele>
        <time>2012-11-04T10:44:15Z</time>
      </trkpt>
      <trkpt lat="45.8024" lon="4.72545">
        <ele>305.355957</ele>
        <time>2012-11-04T10:44:20Z</time>
      </trkpt>
      <trkpt lat="45.80233" lon="4.72541">
        <ele>308.2398682</ele>
        <time>2012-11-04T10:44:26Z</time>
      </trkpt>
      <trkpt lat="45.80226" lon="4.72537">
        <ele>310.1624756</ele>
        <time>2012-11-04T10:44:32Z</time>
      </trkpt>
      <trkpt lat="45.80215" lon="4.72533">
        <ele>307.7592773</ele>
        <time>2012-11-04T10:44:39Z</time>
      </trkpt>
      <trkpt lat="45.80212" lon="4.72532">
        <ele>306.7978516</ele>
        <time>2012-11-04T10:44:41Z</time>
      </trkpt>
      <trkpt lat="45.80205" lon="4.72524">
        <ele>307.7592773</ele>
        <time>2012-11-04T10:44:47Z</time>
      </trkpt>
      <trkpt lat="45.80204" lon="4.7252">
        <ele>308.2398682</ele>
        <time>2012-11-04T10:44:49Z</time>
      </trkpt>
      <trkpt lat="45.80202" lon="4.72502">
        <ele>309.6818848</ele>
        <time>2012-11-04T10:44:56Z</time>
      </trkpt>
      <trkpt lat="45.80199" lon="4.72485">
        <ele>310.6430664</ele>
        <time>2012-11-04T10:45:04Z</time>
      </trkpt>
      <trkpt lat="45.80197" lon="4.72473">
        <ele>311.1237793</ele>
        <time>2012-11-04T10:45:09Z</time>
      </trkpt>
      <trkpt lat="45.80195" lon="4.72464">
        <ele>311.1237793</ele>
        <time>2012-11-04T10:45:13Z</time>
      </trkpt>
      <trkpt lat="45.80193" lon="4.72459">
        <ele>311.6044922</ele>
        <time>2012-11-04T10:45:15Z</time>
      </trkpt>
      <trkpt lat="45.80183" lon="4.72458">
        <ele>310.6430664</ele>
        <time>2012-11-04T10:45:20Z</time>
      </trkpt>
      <trkpt lat="45.80176" lon="4.7246">
        <ele>310.1624756</ele>
        <time>2012-11-04T10:45:24Z</time>
      </trkpt>
      <trkpt lat="45.80163" lon="4.7247">
        <ele>308.2398682</ele>
        <time>2012-11-04T10:45:31Z</time>
      </trkpt>
      <trkpt lat="45.80151" lon="4.72478">
        <ele>307.2785645</ele>
        <time>2012-11-04T10:45:38Z</time>
      </trkpt>
      <trkpt lat="45.80146" lon="4.72482">
        <ele>306.3172607</ele>
        <time>2012-11-04T10:45:41Z</time>
      </trkpt>
      <trkpt lat="45.80138" lon="4.72484">
        <ele>305.355957</ele>
        <time>2012-11-04T10:45:46Z</time>
      </trkpt>
      <trkpt lat="45.8012" lon="4.72493">
        <ele>303.9139404</ele>
        <time>2012-11-04T10:45:55Z</time>
      </trkpt>
      <trkpt lat="45.80106" lon="4.72498">
        <ele>303.9139404</ele>
        <time>2012-11-04T10:46:02Z</time>
      </trkpt>
      <trkpt lat="45.80095" lon="4.72506">
        <ele>303.4332275</ele>
        <time>2012-11-04T10:46:09Z</time>
      </trkpt>
      <trkpt lat="45.80091" lon="4.72506">
        <ele>303.4332275</ele>
        <time>2012-11-04T10:46:12Z</time>
      </trkpt>
      <trkpt lat="45.80079" lon="4.72506">
        <ele>303.4332275</ele>
        <time>2012-11-04T10:46:19Z</time>
      </trkpt>
      <trkpt lat="45.80069" lon="4.72509">
        <ele>303.4332275</ele>
        <time>2012-11-04T10:46:24Z</time>
      </trkpt>
      <trkpt lat="45.80051" lon="4.72517">
        <ele>302.4719238</ele>
        <time>2012-11-04T10:46:32Z</time>
      </trkpt>
      <trkpt lat="45.80035" lon="4.72527">
        <ele>301.0299072</ele>
        <time>2012-11-04T10:46:39Z</time>
      </trkpt>
      <trkpt lat="45.80019" lon="4.72536">
        <ele>300.0687256</ele>
        <time>2012-11-04T10:46:44Z</time>
      </trkpt>
      <trkpt lat="45.8" lon="4.72544">
        <ele>299.1072998</ele>
        <time>2012-11-04T10:46:50Z</time>
      </trkpt>
      <trkpt lat="45.79979" lon="4.72553">
        <ele>298.626709</ele>
        <time>2012-11-04T10:46:56Z</time>
      </trkpt>
      <trkpt lat="45.7996" lon="4.72556">
        <ele>298.626709</ele>
        <time>2012-11-04T10:47:02Z</time>
      </trkpt>
      <trkpt lat="45.79945" lon="4.72545">
        <ele>298.626709</ele>
        <time>2012-11-04T10:47:10Z</time>
      </trkpt>
      <trkpt lat="45.79929" lon="4.72536">
        <ele>301.991333</ele>
        <time>2012-11-04T10:47:17Z</time>
      </trkpt>
      <trkpt lat="45.7991" lon="4.72537">
        <ele>301.991333</ele>
        <time>2012-11-04T10:47:23Z</time>
      </trkpt>
      <trkpt lat="45.79881" lon="4.72542">
        <ele>301.5106201</ele>
        <time>2012-11-04T10:47:30Z</time>
      </trkpt>
      <trkpt lat="45.7986" lon="4.72544">
        <ele>301.5106201</ele>
        <time>2012-11-04T10:47:36Z</time>
      </trkpt>
      <trkpt lat="45.79841" lon="4.72545">
        <ele>301.5106201</ele>
        <time>2012-11-04T10:47:42Z</time>
      </trkpt>
      <trkpt lat="45.79816" lon="4.72549">
        <ele>301.991333</ele>
        <time>2012-11-04T10:47:50Z</time>
      </trkpt>
      <trkpt lat="45.79797" lon="4.72543">
        <ele>303.4332275</ele>
        <time>2012-11-04T10:47:56Z</time>
      </trkpt>
      <trkpt lat="45.79792" lon="4.72529">
        <ele>305.355957</ele>
        <time>2012-11-04T10:48:00Z</time>
      </trkpt>
      <trkpt lat="45.79789" lon="4.72501">
        <ele>310.1624756</ele>
        <time>2012-11-04T10:48:06Z</time>
      </trkpt>
      <trkpt lat="45.79785" lon="4.72466">
        <ele>313.5272217</ele>
        <time>2012-11-04T10:48:13Z</time>
      </trkpt>
      <trkpt lat="45.7978" lon="4.72453">
        <ele>315.4498291</ele>
        <time>2012-11-04T10:48:17Z</time>
      </trkpt>
      <trkpt lat="45.79768" lon="4.72431">
        <ele>318.8143311</ele>
        <time>2012-11-04T10:48:24Z</time>
      </trkpt>
      <trkpt lat="45.79767" lon="4.72423">
        <ele>318.8143311</ele>
        <time>2012-11-04T10:48:26Z</time>
      </trkpt>
      <trkpt lat="45.79772" lon="4.72413">
        <ele>318.3336182</ele>
        <time>2012-11-04T10:48:30Z</time>
      </trkpt>
      <trkpt lat="45.79793" lon="4.724">
        <ele>314.9691162</ele>
        <time>2012-11-04T10:48:37Z</time>
      </trkpt>
      <trkpt lat="45.79809" lon="4.72392">
        <ele>313.5272217</ele>
        <time>2012-11-04T10:48:42Z</time>
      </trkpt>
      <trkpt lat="45.79832" lon="4.7238">
        <ele>313.5272217</ele>
        <time>2012-11-04T10:48:49Z</time>
      </trkpt>
      <trkpt lat="45.79856" lon="4.72368">
        <ele>313.0465088</ele>
        <time>2012-11-04T10:48:57Z</time>
      </trkpt>
      <trkpt lat="45.7988" lon="4.72358">
        <ele>311.1237793</ele>
        <time>2012-11-04T10:49:04Z</time>
      </trkpt>
      <trkpt lat="45.79905" lon="4.72354">
        <ele>310.1624756</ele>
        <time>2012-11-04T10:49:10Z</time>
      </trkpt>
      <trkpt lat="45.79936" lon="4.72356">
        <ele>309.2011719</ele>
        <time>2012-11-04T10:49:18Z</time>
      </trkpt>
      <trkpt lat="45.79958" lon="4.7235">
        <ele>309.2011719</ele>
        <time>2012-11-04T10:49:25Z</time>
      </trkpt>
      <trkpt lat="45.79971" lon="4.72335">
        <ele>309.6818848</ele>
        <time>2012-11-04T10:49:30Z</time>
      </trkpt>
      <trkpt lat="45.79988" lon="4.72324">
        <ele>310.1624756</ele>
        <time>2012-11-04T10:49:36Z</time>
      </trkpt>
      <trkpt lat="45.80014" lon="4.7231">
        <ele>310.6430664</ele>
        <time>2012-11-04T10:49:44Z</time>
      </trkpt>
      <trkpt lat="45.80056" lon="4.7229">
        <ele>311.1237793</ele>
        <time>2012-11-04T10:49:55Z</time>
      </trkpt>
      <trkpt lat="45.80076" lon="4.7228">
        <ele>311.1237793</ele>
        <time>2012-11-04T10:50:00Z</time>
      </trkpt>
      <trkpt lat="45.80118" lon="4.72257">
        <ele>311.6044922</ele>
        <time>2012-11-04T10:50:10Z</time>
      </trkpt>
      <trkpt lat="45.80165" lon="4.72226">
        <ele>312.0852051</ele>
        <time>2012-11-04T10:50:21Z</time>
      </trkpt>
      <trkpt lat="45.80169" lon="4.72223">
        <ele>312.0852051</ele>
        <time>2012-11-04T10:50:22Z</time>
      </trkpt>
      <trkpt lat="45.80174" lon="4.72203">
        <ele>311.1237793</ele>
        <time>2012-11-04T10:50:26Z</time>
      </trkpt>
      <trkpt lat="45.80171" lon="4.72191">
        <ele>310.6430664</ele>
        <time>2012-11-04T10:50:28Z</time>
      </trkpt>
      <trkpt lat="45.80172" lon="4.72166">
        <ele>310.1624756</ele>
        <time>2012-11-04T10:50:32Z</time>
      </trkpt>
      <trkpt lat="45.80182" lon="4.72156">
        <ele>311.1237793</ele>
        <time>2012-11-04T10:50:35Z</time>
      </trkpt>
      <trkpt lat="45.80226" lon="4.72138">
        <ele>313.5272217</ele>
        <time>2012-11-04T10:50:45Z</time>
      </trkpt>
      <trkpt lat="45.80261" lon="4.72118">
        <ele>316.8917236</ele>
        <time>2012-11-04T10:50:54Z</time>
      </trkpt>
      <trkpt lat="45.80288" lon="4.72096">
        <ele>319.2950439</ele>
        <time>2012-11-04T10:51:03Z</time>
      </trkpt>
      <trkpt lat="45.80319" lon="4.72073">
        <ele>321.2177734</ele>
        <time>2012-11-04T10:51:13Z</time>
      </trkpt>
      <trkpt lat="45.80356" lon="4.7206">
        <ele>321.2177734</ele>
        <time>2012-11-04T10:51:24Z</time>
      </trkpt>
      <trkpt lat="45.8038" lon="4.7205">
        <ele>320.7370605</ele>
        <time>2012-11-04T10:51:31Z</time>
      </trkpt>
      <trkpt lat="45.80406" lon="4.72041">
        <ele>320.7370605</ele>
        <time>2012-11-04T10:51:38Z</time>
      </trkpt>
      <trkpt lat="45.80434" lon="4.72032">
        <ele>322.659668</ele>
        <time>2012-11-04T10:51:45Z</time>
      </trkpt>
      <trkpt lat="45.80442" lon="4.7203">
        <ele>322.659668</ele>
        <time>2012-11-04T10:51:47Z</time>
      </trkpt>
      <trkpt lat="45.80454" lon="4.72034">
        <ele>321.6983643</ele>
        <time>2012-11-04T10:51:50Z</time>
      </trkpt>
      <trkpt lat="45.80469" lon="4.7204">
        <ele>319.7756348</ele>
        <time>2012-11-04T10:51:54Z</time>
      </trkpt>
      <trkpt lat="45.80473" lon="4.7204">
        <ele>319.2950439</ele>
        <time>2012-11-04T10:51:55Z</time>
      </trkpt>
      <trkpt lat="45.80485" lon="4.7204">
        <ele>318.8143311</ele>
        <time>2012-11-04T10:51:58Z</time>
      </trkpt>
      <trkpt lat="45.80514" lon="4.72037">
        <ele>318.8143311</ele>
        <time>2012-11-04T10:52:05Z</time>
      </trkpt>
      <trkpt lat="45.80533" lon="4.72033">
        <ele>319.7756348</ele>
        <time>2012-11-04T10:52:11Z</time>
      </trkpt>
      <trkpt lat="45.80545" lon="4.72043">
        <ele>318.3336182</ele>
        <time>2012-11-04T10:52:15Z</time>
      </trkpt>
      <trkpt lat="45.80563" lon="4.7207">
        <ele>314.4884033</ele>
        <time>2012-11-04T10:52:21Z</time>
      </trkpt>
      <trkpt lat="45.80565" lon="4.72072">
        <ele>314.4884033</ele>
        <time>2012-11-04T10:52:22Z</time>
      </trkpt>
      <trkpt lat="45.80569" lon="4.72075">
        <ele>314.0078125</ele>
        <time>2012-11-04T10:52:26Z</time>
      </trkpt>
    </trkseg>
  </trk>
</gpx>